     2              OBSERVATION DATA    GPS                 RINEX VERSION / TYPE
teqc 1999Jul19 19991123 03:05:25UTC                         PGM / RUN BY / DATE
                                                            COMMENT
Original Marker Name: 0604                                  COMMENT
Campaign Name: HPGN 1991                                    COMMENT
4-Character Station Name: 0604                              COMMENT
6-Character Antenna Code: TRMSST                            COMMENT
Vertical Measurement Point: BPA                             COMMENT
Vertical Offset to Rinex Ref. Point: 0.0000                 COMMENT
Radial Measurement Point: RRP                               COMMENT
Radial Offset to Rinex Ref. Point: 0.0000                   COMMENT
Antenna Height from Field Measurement: 2.2200 m             COMMENT
                                                            COMMENT
Original XYZ: -2506687.9352 -4439090.9856 3821002.2756      COMMENT
New XYZ position is based on association with SCEC monument COMMENT
E1F7T2S1+0011. Position of that monument is believed to be  COMMENT
valid to within 1 m horizontally; vertical accuracy         COMMENT
should be no worse than 3-times this value.                 COMMENT
                                                            COMMENT
Revised Rinex header created by UCSD GPS archive for        COMMENT
GSAC on 10-Mar-2000 (2000:070) 17:15:49 GMT                 COMMENT
For assistance contact dagnew@ucsd.edu or hjohnson@ucsd.edu COMMENT
                                                            COMMENT
HPGN CA 06 04                                               MARKER NAME
0604                                                        MARKER NUMBER
-Unknown- CALIF DEPT TRANSPORTATION                         OBSERVER / AGENCY
290 TRIMBLE 4000 SST NP 4.30 / SP 4.20                      REC # / TYPE / VERS
103 TR 4000SST L1/L2 GEO                                    ANT # / TYPE
 -2506694.5293 -4439100.1286  3821009.3559                  APPROX POSITION XYZ
        2.2200        0.0000        0.0000                  ANTENNA: DELTA H/E/N
     1     1     0                                          WAVELENGTH FACT L1/2
     5    C1    L1    L2    S1    S2                        # / TYPES OF OBSERV
     0                                                      INTERVAL
  1991     5    30    17    15   15.000000                  TIME OF FIRST OBS
  1991     5    30    23    16   15.000000                  TIME OF LAST OBS
                                                            END OF HEADER
 91  5 30 17 15 15.0000000  0  4G18G11G19G 2
  20468848.750      440396.822 8                        29.250
  24005109.641          -0.96715                        11.500
  20636421.258          -0.07017                        22.000
  24060554.016          -0.36815                         9.500
 91  5 30 17 15 30.0000000  0  4G18G11G19G 2
  20471078.578      452121.819 8                        28.500
  23997052.469      -42334.155 6                        12.500
  20634595.258       -9596.337 7                        22.500
  24050081.398      -55041.998 5                         9.500
 91  5 30 17 15 45.0000000  0  4G18G11G19G 2
  20473330.719      463949.190 8        -0.22633        28.750           2.656
  23989009.070      -84599.363 5                        11.750
  20632776.867      -19148.888 7                        22.250
  24039614.211     -110056.352 5                         8.750
 91  5 30 17 16  0.0000000  0  4G18G11G19G 2
  20475600.641      475880.038 8      9296.52123        28.500           2.656
  23980976.008     -126794.948 5        -0.43031        11.500           0.375
  20630966.414      -28656.479 7        -0.25632        22.750           1.969
  24029153.406     -165042.076 5        -0.37431         9.000           0.469
 91  5 30 17 16 15.0000000  0  4G18G11G19G 2
  20477891.563      487915.322 8     18674.64923        28.750           2.625
  23972960.141     -168919.866 6    -32824.99421        12.500           0.438
  20629166.430      -38118.562 7     -7373.30222        22.000           1.906
  24018692.859     -219998.055 5    -42823.07921         9.250           0.344
 91  5 30 17 16 30.0000000  0  4G18G11G19G 2
  20480201.094      500052.735 8     28132.36223        29.250           2.625
  23964957.266     -210975.938 6    -65595.91021        12.750           0.438
  20627376.680      -47537.349 7    -14712.61822        21.750           2.063
  24008241.672     -274926.392 5    -85624.25321         8.250           0.406
 91  5 30 17 16 45.0000000  0  4G18G11G19G 2
  20482530.867      512297.026 8     37673.35423        29.000           2.594
  23956966.008     -252958.043 6    -98309.17721        12.000           0.438
  20625591.984      -56908.051 7    -22014.46122        22.250           2.031
  23997798.742     -329822.185 5   -128400.10221         8.250           0.250
 91  5 30 17 17  0.0000000  0  4G18G11G19G 2
  20484881.805      524643.679 8     47294.10123        29.000           2.656
  23948988.047     -294869.953 5   -130967.75521        11.750           0.438
  20623815.367      -66235.158 7    -29282.33522        22.250           2.000
  23987353.383     -384689.519 5   -171153.72321         9.000           0.469
 91  5 30 17 17 15.0000000  0  4G18G11G19G 2
  20487250.719      537095.354 8     56996.68823        29.500           2.625
  23941030.234     -336709.045 5   -163569.56421        11.250           0.531
  20622050.289      -75516.279 7    -36514.37622        21.750           1.906
  23976915.844     -439525.807 5   -213883.17821         8.500           0.500
 91  5 30 17 17 30.0000000  0  4G18G11G19G 2
  20489638.680      549650.953 8     66780.25023        28.500           2.625
  23933081.031     -378475.682 5   -196114.95221        11.000           0.438
  20620294.148      -84752.198 7    -43711.19522        22.000           1.938
  23966488.148     -494331.705 5   -256588.96721         8.750           0.406
 91  5 30 17 17 45.0000000  0  4G18G11G19G 2
  20492047.953      562310.084 8     76644.49023        28.500           2.625
  23925153.711     -420169.935 6   -228603.91421        12.500           0.344
  20618544.016      -93943.379 7    -50873.14922        21.750           1.938
  23956063.688     -549107.499 5   -299271.27821         9.000           0.250
 91  5 30 17 18  0.0000000  0  4G18G11G19G 2
  20494477.633      575073.549 8     86590.04423        28.750           2.656
  23917233.016     -461790.670 5   -261035.62621        11.500           0.500
  20616804.398     -103089.165 7    -57999.73622        22.250           1.875
  23945647.602     -603852.211 5   -341929.39621         9.500           0.344
 91  5 30 17 18 15.0000000  0  4G18G11G19G 2
  20496923.438      587937.407 8     96613.82323        28.000           2.719
  23909322.320     -503341.195 5   -293412.57021        11.500           0.469
  20615071.094     -112193.343 7    -65093.89822        21.750           1.906
  23935233.031     -658569.355 5   -384566.03621         9.500           0.281
 91  5 30 17 18 30.0000000  0  4G18G11G19G 2
  20499391.523      600904.400 7    106717.95023        27.750           2.688
  23901434.531     -544818.647 6   -325732.62421        12.250           0.469
  20613346.906     -121253.395 7    -72153.67922        22.250           1.938
  23924827.609     -713256.437 5   -427179.23121         9.000           0.313
 91  5 30 17 18 45.0000000  0  4G18G11G19G 2
  20501878.516      613978.252 7    116905.35223        27.750           2.688
  23893557.344     -586218.738 6   -357992.36721        12.250           0.406
  20611631.367     -130265.533 7    -79176.13022        21.500           1.906
  23914429.336     -767909.413 5   -469765.83021        10.000           0.281
 91  5 30 17 19  0.0000000  0  4G18G11G19G 2
  20504388.586      627155.239 8    127173.12323        28.250           2.719
  23885686.813     -627544.699 6   -390194.36921        12.000           0.563
  20609927.500     -139233.333 7    -86164.01722        21.750           1.875
  23904034.336     -822531.557 5   -512328.46221        10.500           0.344
 91  5 30 17 19 14.9990000  0  4G18G11G19G 2
  20506912.870      640435.146 7    137521.08223        27.750           2.688
  23877839.105     -668792.741 5   -422335.60421        11.250           0.438
  20608228.315     -148155.680 7    -93116.49722        22.250           1.813
  23893648.183     -877118.490 5   -554863.64021         9.750           0.344
 91  5 30 17 19 29.9990000  0  4G18G11G19G 2
  20509461.964      653820.426 7    147951.15223        27.750           2.656
  23869999.901     -709967.089 5   -454419.46021        11.750           0.344
  20606540.284     -157033.149 7   -100034.00622        22.250           1.938
  23883262.136     -931676.519 5   -597376.26221        10.500           0.438
 91  5 30 17 19 44.9990000  0  4G18G11G19G 2
  20512027.683      667309.499 8    158462.09423        28.250           2.688
  23862177.683     -751065.339 5   -486444.00221        11.500           0.438
  20604856.511     -165865.748 7   -106916.54822        21.250           1.906
  23872890.839     -986202.451 5   -639863.88921        11.750           0.469
 91  5 30 17 19 59.9990000  0  4G18G11G19G 2
  20514614.605      680898.982 8    169051.28323        28.500           2.594
  23854374.940     -792090.440 5   -518411.57021        11.250           0.406
  20603184.815     -174656.609 7   -113766.57422        21.750           1.875
  23862516.659    -1040699.292 5   -682328.88121        11.000           0.344
 91  5 30 17 20 14.9990000  0  4G18G11G19G 2
  20517219.370      694589.947 7    179719.55523        27.750           2.625
  23846586.534     -833041.125 6   -550321.10921        12.750           0.563
  20601522.269     -183404.957 7   -120583.47022        22.250           1.781
  23852150.120    -1095166.148 5   -724770.47921        10.750           0.500
 91  5 30 17 20 29.9990000  0  4G18G11G19G 2
  20519843.933      708382.277 7    190466.82123        27.250           2.750
  23838798.323     -873917.303 5   -582172.61821        10.250           0.469
  20599863.198     -192111.165 7   -127367.53322        22.250           1.813
  23841793.730    -1149603.031 5   -767188.71721        11.250           0.531
 91  5 30 17 20 44.9990000  0  4G18G11G19G 2
  20522486.589      722277.796 7    201294.47723        26.750           2.813
  23831040.776     -914716.122 6   -613963.84421        12.250           0.500
  20598215.073     -200772.635 7   -134116.72922        22.000           1.813
  23831439.284    -1204007.251 5   -809581.51821        11.000           0.469
 91  5 30 17 20 59.9990000  0  4G18G11G19G 2
  20525153.440      736276.699 7    212202.69323        27.500           2.875
  23823290.011     -955437.356 6   -645694.61921        12.750           0.469
  20596578.730     -209389.503 7   -140831.17322        21.250           1.781
  23821093.933    -1258378.604 5   -851948.70721        10.750           0.500
 91  5 30 17 21 14.9990000  0  4G18G11G19G 2
  20527834.214      750377.131 7    223190.02223        27.250           2.938
  23815551.183     -996082.273 5   -677365.94121        11.750           0.469
  20594943.003     -217963.672 7   -147512.34922        22.000           2.000
  23810755.112    -1312718.916 5   -894291.70121        11.250           0.469
 91  5 30 17 21 29.9990000  0  4G18G11G19G 2
  20530539.331      764578.576 7    234256.06223        27.750           2.844
  23807840.120    -1036650.872 6   -708977.74621        13.750           0.500
  20593321.550     -226495.653 7   -154160.64622        21.250           1.875
  23800417.980    -1367028.507 5   -936610.78421        11.250           0.594
 91  5 30 17 21 44.9990000  0  4G18G11G19G 2
  20533258.620      778882.763 7    245402.16323        27.500           2.813
  23800126.526    -1077141.082 6   -740528.52021        12.250           0.500
  20591706.495     -234983.677 7   -160774.69122        22.000           1.938
  23790093.136    -1421305.285 5   -978904.26821        10.500           0.500
 91  5 30 17 21 59.9990000  0  4G18G11G19G 2
  20536002.136      793290.287 8    256628.78523        28.250           2.938
  23792443.276    -1117552.123 6   -772017.56621        13.000           0.438
  20590098.870     -243427.434 7   -167354.24522        21.500           1.875
  23779766.800    -1475548.791 5  -1021171.82021        10.750           0.438
 91  5 30 17 22 14.9990000  0  4G18G11G19G 2
  20538762.464      807799.395 7    267934.56023        27.750           2.844
  23784768.964    -1157885.084 6   -803445.81321        13.500           0.469
  20588497.636     -251828.463 7   -173900.50822        21.000           1.938
  23769448.870    -1529760.195 5  -1063414.38421        11.250           0.469
 91  5 30 17 22 29.9990000  0  4G18G11G19G 2
  20541542.784      822412.294 7    279321.21723        27.750           2.844
  23777109.792    -1198137.213 6   -834811.04521        12.750           0.438
  20586909.347     -260184.321 7   -180411.56222        22.000           1.875
  23759140.597    -1583936.830 5  -1105629.87821        10.750           0.500
 91  5 30 17 22 44.9990000  0  4G18G11G19G 2
  20544343.808      837122.909 7    290784.01423        27.500           2.781
  23769464.331    -1238314.326 6   -866117.81521        13.500           0.375
  20585328.214     -268501.214 7   -186892.26922        21.750           1.813
  23748834.847    -1638084.912 5  -1147823.06021        11.000           0.594
 91  5 30 17 22 59.9990000  0  4G18G11G19G 2
  20547162.245      851935.253 7    302326.07623        27.500           2.719
  23761833.276    -1278411.914 6   -897362.64221        12.500           0.563
  20583751.612     -276774.964 7   -193339.34422        21.500           1.875
  23738536.581    -1692200.198 5  -1189990.71821        11.250           0.500
 91  5 30 17 23 14.9990000  0  4G18G11G19G 2
  20550000.159      866850.712 7    313948.49423        27.000           2.625
  23754225.401    -1318428.002 6   -928543.92821        13.500           0.406
  20582186.136     -285004.086 7   -199751.64622        21.500           1.813
  23728244.870    -1746280.725 5  -1232131.29921        10.250           0.438
 91  5 30 17 23 29.9990000  0  4G18G11G19G 2
  20552857.097      881865.489 7    325648.29923        27.000           2.688
  23746622.112    -1358366.269 6   -959664.61621        12.750           0.594
  20580629.073     -293192.620 7   -206132.32222        21.750           1.813
  23717962.401    -1800330.289 5  -1274247.75121        10.750           0.500
 91  5 30 17 23 44.9990000  0  4G18G11G19G 2
  20555734.948      896983.486 7    337428.54423        27.500           2.719
  23739031.183    -1398222.345 6   -990721.23821        12.250           0.531
  20579079.659     -301336.748 7   -212478.40222        21.500           1.750
  23707687.362    -1854344.905 5  -1316336.95021        11.500           0.594
 91  5 30 17 23 59.9990000  0  4G18G11G19G 2
  20558631.159      912205.040 7    349289.48323        27.250           2.813
  23731465.847    -1437995.486 6  -1021713.21721        13.500           0.563
  20577537.339     -309436.149 7   -218789.62422        21.500           1.844
  23697408.815    -1908324.027 5  -1358398.51721        10.250           0.563
 91  5 30 17 24 14.9990000  0  4G18G11G19G 2
  20561545.097      927526.822 7    361228.52423        26.750           2.813
  23723911.745    -1477688.598 6  -1052642.88321        12.500           0.469
  20576005.472     -317494.017 7   -225068.48822        22.000           1.875
  23687145.651    -1962270.741 5  -1400434.83121        10.750           0.500
 91  5 30 17 24 29.9990000  0  4G18G11G19G 2
  20564480.472      942948.776 7    373245.60623        27.500           2.844
  23716372.839    -1517301.151 6  -1083509.76421        13.000           0.500
  20574478.589     -325510.358 7   -231314.99022        21.500           1.844
  23676888.222    -2016184.763 5  -1442445.66821        11.250           0.563
 91  5 30 17 24 44.9990000  0  4G18G11G19G 2
  20567437.136      958471.523 8    385341.23823        28.500           2.813
  23708844.433    -1556832.156 6  -1114313.08021        12.500           0.500
  20572962.065     -333484.575 7   -237528.67022        21.250           1.875
  23666634.370    -2070065.218 5  -1484430.34121        10.000           0.563
 91  5 30 17 24 59.9990000  0  4G18G11G19G 2
  20570408.417      974096.037 7    397516.16123        27.500           2.813
  23701337.581    -1596280.324 6  -1145051.86821        13.000           0.531
  20571452.323     -341415.750 7   -243708.80822        21.750           1.813
  23656381.636    -2123911.092 5  -1526388.05121         9.500           0.656
 91  5 30 17 25 14.9990000  0  4G18G11G19G 2
  20573398.300      989822.671 7    409770.66123        27.000           2.688
  23693850.315    -1635644.599 6  -1175725.25221        13.750           0.500
  20569950.550     -349303.109 7   -249854.80722        21.000           1.875
  23646146.526    -2177721.554 5  -1568318.21921        11.000           0.563
 91  5 30 17 25 29.9990000  0  4G18G11G19G 2
  20576412.839     1005650.200 7    422103.77823        27.500           2.750
  23686372.323    -1674925.823 6  -1206333.96621        12.000           0.531
  20568458.089     -357147.960 7   -255967.68822        21.750           1.844
  23635917.058    -2231497.721 5  -1610221.62621        11.250           0.531
 91  5 30 17 25 44.9990000  0  5G18G11G19G 2G16
  20579446.120     1021579.373 8    434516.11023        28.000           2.813
  23678914.690    -1714122.967 6  -1236877.12721        13.250           0.469
  20566974.440     -364949.761 7   -262047.01122        21.000           1.844
  23625687.198    -2285238.674 5  -1652097.58421        11.250           0.500
  24128683.823          -0.58514                         6.750
 91  5 30 17 25 59.9990000  0  5G18G11G19G 2G16
  20582495.605     1037609.912 7    447007.42323        27.500           2.781
  23671473.175    -1753235.853 6  -1267354.66321        13.000           0.563
  20565501.378     -372708.824 7   -268093.04122        20.750           1.875
  23615469.730    -2338944.409 5  -1693946.13421        11.500           0.469
  24121641.245      -37001.123 4                         6.250
 91  5 30 17 26 14.9990000  0  5G18G11G19G 2G16
  20585562.011     1053741.077 7    459577.13523        26.500           2.844
  23664043.870    -1792264.682 6  -1297766.67221        12.500           0.500
  20564026.745     -380425.551 7   -274106.08622        21.250           1.875
  23605250.995    -2392615.272 5  -1735767.51521        10.750           0.469
  24114625.776      -73899.063 4                         7.250
 91  5 30 17 26 29.9990000  0  5G18G11G19G 2G16
  20588654.253     1069973.646 7    472225.87523        27.000           2.719
  23656634.159    -1831208.323 6  -1328112.32821        12.750           0.406
  20562566.605     -388099.291 7   -280085.61922        21.500           1.844
  23595050.128    -2446250.418 5  -1777561.03121        11.500           0.469
  24107619.714     -110693.355 4                         6.750
 91  5 30 17 26 44.9990000  0  5G18G11G19G 2G16
  20591761.151     1086302.273 7    484949.45823        26.750           2.688
  23649240.745    -1870071.389 6  -1358395.18221        12.500           0.625
  20561115.105     -395735.171 7   -286035.65522        21.500           1.813
  23584847.683    -2499854.688 5  -1819330.50721        11.250           0.438
  24100633.464     -147389.038 4                         7.000
 91  5 30 17 26 59.9990000  0  5G18G11G19G 2G16
  20594886.909     1102733.080 7    497752.66023        26.500           2.688
  23641860.815    -1908847.574 6  -1388610.32121        13.500           0.469
  20559669.440     -403327.172 7   -291951.50522        22.000           1.844
  23574652.511    -2553422.069 5  -1861071.25921        11.000           0.469
  24093675.222     -183979.855 4                         7.250
 91  5 30 17 27 14.9990000  0  5G18G11G19G 2G16
  20598034.026     1119268.238 7    510637.17623        26.000           2.625
  23634503.394    -1947534.681 6  -1418756.07821        14.000           0.500
  20558234.815     -410873.423 7   -297831.69922        21.500           1.813
  23564469.370    -2606950.395 5  -1902781.55821        11.500           0.469
  24086731.855     -220463.459 4        -0.29931         7.250           0.281
 91  5 30 17 27 29.9990000  0  5G18G11G19G 2G16
  20601200.761     1135902.580 7    523598.98623        26.750           2.688
  23627152.698    -1986137.088 6  -1448835.81921        13.000           0.625
  20556806.565     -418378.757 7   -303680.01222        21.000           1.813
  23554288.323    -2660444.178 5  -1944464.92921        11.500           0.500
  24079807.815     -256844.397 4    -28349.10221         7.250           0.094
 91  5 30 17 27 44.9990000  0  5G18G11G19G 2G16
  20604384.995     1152637.504 7    536639.17723        26.750           2.594
  23619822.190    -2024652.565 6  -1478847.82721        13.250           0.500
  20555387.909     -425841.509 7   -309495.14222        21.500           1.969
  23544112.706    -2713901.482 5  -1986119.89821        10.750           0.469
  24072910.769     -293120.631 5    -56616.28621         8.000           0.156
 91  5 30 17 27 59.9990000  0  5G18G11G19G 2G16
  20607588.315     1169472.619 7    549757.43223        26.750           2.719
  23612510.292    -2063081.437 6  -1508792.36721        13.000           0.469
  20553973.065     -433262.300 7   -315277.57922        20.750           1.875
  23533949.644    -2767322.907 6  -2027746.90021        12.750           0.625
  24066027.972     -329292.602 5    -84802.23221         8.000           0.156
 91  5 30 17 28 14.9990000  0  5G18G11G19G 2G16
  20610808.870     1186404.280 7    562950.91323        26.750           2.719
  23605215.917    -2101427.237 6  -1538672.15121        14.000           0.563
  20552570.972     -440644.828 7   -321030.19922        21.000           1.875
  23523792.276    -2820712.078 6  -2069348.76021        12.000           0.656
  24059160.597     -365364.158 5   -112909.94821         7.500           0.125
 91  5 30 17 28 29.9990000  0  5G18G11G19G 2G16
  20614051.433     1203434.962 7    576221.55223        27.500           2.719
  23597931.230    -2139686.901 6  -1568484.81921        12.500           0.594
  20551169.862     -447986.470 7   -326750.96022        21.000           1.906
  23513633.401    -2874066.196 5  -2110923.30121        11.750           0.656
  24052315.651     -401332.329 5   -140937.06121         8.250           0.188
 91  5 30 17 28 44.9990000  0  5G18G11G19G 2G16
  20617310.870     1220568.368 7    589572.23923        27.750           2.688
  23590670.276    -2177856.097 6  -1598226.99021        12.750           0.469
  20549784.034     -455283.316 7   -332436.82022        20.750           1.938
  23503488.448    -2927380.960 6  -2152467.20821        12.250           0.469
  24045493.331     -437192.832 5   -168880.33621         8.750           0.125
 91  5 30 17 28 59.9990000  0  5G18G11G19G 2G16
  20620591.675     1237803.279 7    603002.02223        27.750           2.656
  23583424.995    -2215935.722 6  -1627899.37221        13.500           0.531
  20548404.128     -462536.832 6   -338088.90622        19.750           1.906
  23493351.589    -2980657.533 6  -2193981.35521        12.750           0.531
  24038691.714     -472946.812 5   -196740.54121         7.750           0.188
 91  5 30 17 29 14.9990000  0  5G18G11G19G 2G16
  20623891.550     1255139.299 7    616510.59323        27.500           2.656
  23576195.925    -2253925.616 6  -1657501.85621        13.500           0.594
  20547032.456     -469747.117 7   -343707.31322        21.000           1.906
  23483223.698    -3033896.011 6  -2235465.78121        13.250           0.469
  24031907.636     -508594.358 4   -224517.85321         7.250           0.125
 91  5 30 17 29 29.9990000  0  5G18G11G19G 2G16
  20627206.675     1272574.980 7    630096.81523        26.500           2.719
  23568982.011    -2291826.840 6  -1687035.21621        13.750           0.625
  20545665.261     -476915.579 7   -349293.13122        21.750           1.844
  23473100.097    -3087097.667 6  -2276921.56421        13.500           0.406
  24025139.565     -544136.660 4   -252213.13121         7.000           0.125
 91  5 30 17 29 44.9990000  0  5G18G11G19G 2G16
  20630545.487     1290113.563 7    643763.22123        27.000           2.625
  23561788.753    -2329635.665 6  -1716496.57821        13.500           0.625
  20544310.831     -484038.897 7   -354843.76622        21.000           1.844
  23462983.659    -3140258.974 6  -2318345.87521        13.250           0.625
  24018394.659     -579570.211 5   -279823.67721         7.750           0.250
 91  5 30 17 29 59.9990000  0  5G18G11G19G 2G16
  20633902.261     1307753.859 7    657508.88523        26.500           2.719
  23554612.315    -2367352.974 6  -1745886.64921        13.250           0.500
  20542963.019     -491118.470 7   -360360.31822        21.250           1.875
  23452869.972    -3193380.968 6  -2359739.54921        12.750           0.781
  24011669.120     -614895.936 4   -307350.18721         7.250           0.313
 91  5 30 17 30 14.9990000  0  5G18G11G19G 2G16
  20637276.722     1325491.312 7    671330.26123        25.250           2.719
  23547452.214    -2404982.842 6  -1775208.56821        13.500           0.625
  20541626.862     -498158.782 7   -365846.27322        21.750           1.875
  23442767.480    -3246467.916 6  -2401105.91621        13.250           0.594
  24004971.581     -650117.882 5   -334795.84621         8.500           0.375
 91  5 30 17 30 29.9990000  0  5G18G11G19G 2G16
  20640671.823     1343329.078 7    685229.79523        25.750           2.719
  23540306.894    -2442521.899 6  -1804459.73221        13.250           0.625
  20540291.558     -505156.598 7   -371299.12222        22.000           2.000
  23432673.190    -3299516.657 6  -2442442.54721        13.000           0.625
  23998281.690     -685232.847 5   -362158.15221         7.750           0.281
 91  5 30 17 30 44.9990000  0  5G18G11G19G 2G16
  20644084.940     1361272.093 7    699211.34023        25.250           2.750
  23533183.355    -2479964.353 6  -1833635.62621        13.750           0.625
  20538970.987     -512106.610 7   -376714.71122        21.500           1.844
  23422589.589    -3352521.556 6  -2483744.97321        13.750           0.656
  23991627.503     -720235.141 5   -389432.63521         7.750           0.250
 91  5 30 17 30 59.9990000  0  5G18G11G19G 2G16
  20647520.347     1379315.754 7    713271.31623        26.000           2.750
  23526074.355    -2517314.686 6  -1862739.72421        13.750           0.594
  20537656.558     -519013.546 7   -382096.73822        21.500           1.906
  23412509.472    -3405487.380 6  -2525016.96421        13.750           0.688
  23984989.019     -755129.455 5   -416622.98921         8.000           0.188
 91  5 30 17 31 14.9990000  0  5G18G11G19G 2G16
  20650971.964     1397459.044 7    727408.91823        25.000           2.688
  23518985.159    -2554573.340 6  -1891772.40321        14.250           0.656
  20536350.870     -525878.215 7   -387445.83522        21.500           1.906
  23402440.011    -3458414.484 6  -2566258.77621        14.500           0.656
  23978369.355     -789916.472 5   -443729.78421         8.250           0.156
 91  5 30 17 31 29.9990000  0  5G18G11G19G 2G16
  20654443.956     1415700.525 7    741623.04423        26.000           2.813
  23511912.386    -2591741.362 6  -1920734.46421        13.750           0.500
  20535051.245     -532702.244 7   -392763.26522        20.500           1.844
  23392375.214    -3511304.407 6  -2607471.64821        14.250           0.531
  23971771.815     -824597.574 5   -470754.00021         8.000           0.281
 91  5 30 17 31 44.9990000  0  5G18G11G19G 2G16
  20657934.198     1434044.062 7    755916.69223        26.000           2.656
  23504858.792    -2628814.373 6  -1949622.47021        14.000           0.438
  20533760.917     -539481.595 7   -398045.88122        20.500           1.938
  23382318.050    -3564152.943 6  -2648652.24121        14.000           0.625
  23965192.636     -859168.304 5   -497692.22521         8.000           0.281
 91  5 30 17 31 59.9990000  0  5G18G11G19G 2G16
  20661445.230     1452488.968 7    770289.33323        27.000           2.594
  23497819.347    -2665792.612 6  -1978436.64921        13.250           0.531
  20532478.190     -546216.967 7   -403294.22322        20.500           1.906
  23372267.659    -3616960.462 6  -2689800.89121        14.000           0.625
  23958632.706     -893628.909 5   -524544.62021         7.750           0.375
 91  5 30 17 32 14.9990000  0  5G18G11G19G 2G16
  20664973.159     1471033.314 7    784739.44623        27.000           2.750
  23490799.698    -2702677.634 6  -2007178.17921        13.750           0.656
  20531205.847     -552910.109 7   -408509.66022        20.500           1.969
  23362225.948    -3669728.638 6  -2730918.86721        13.750           0.750
  23952099.980     -927981.135 5   -551312.62321         8.750           0.219
 91  5 30 17 32 29.9990000  0  5G18G11G19G 2G16
  20668521.667     1489675.035 7    799265.43623        27.000           2.625
  23483802.370    -2739471.017 6  -2035848.29421        15.000           0.625
  20529938.987     -559563.132 7   -413693.83322        20.250           2.000
  23352192.909    -3722459.347 6  -2772007.67321        13.250           0.719
  23945578.534     -962226.875 5   -577997.58821         9.000           0.250
 91  5 30 17 32 44.9990000  0  5G18G11G19G 2G16
  20672087.448     1508417.734 7    813870.11523        26.500           2.594
  23476821.456    -2776168.760 6  -2064443.89921        15.000           0.563
  20528683.776     -566172.397 7   -418843.91822        20.750           1.938
  23342165.706    -3775148.718 6  -2813064.24621        12.500           0.656
  23939087.206     -996362.307 5   -604596.60221         9.250           0.250
 91  5 30 17 32 59.9990000  0  5G18G11G19G 2G16
  20675673.776     1527260.807 7    828553.00423        26.750           2.656
  23469856.276    -2812771.182 6  -2092965.22321        14.750           0.625
  20527432.440     -572738.511 7   -423960.36922        20.750           1.969
  23332141.355    -3827797.198 5  -2854088.95621        11.750           0.594
  23932609.073    -1030387.810 5   -631109.95421         8.750           0.250
 91  5 30 17 33 14.9990000  0  5G18G11G19G 2G16
  20679277.886     1546201.230 7    843311.75923        26.750           2.688
  23462906.058    -2849280.796 6  -2121414.22021        15.000           0.625
  20526191.651     -579264.325 7   -429045.42222        20.500           2.000
  23322135.651    -3880407.668 6  -2895084.07221        12.500           0.594
  23926153.722    -1064305.991 5   -657539.70121         8.250           0.313
 91  5 30 17 33 29.9990000  0  5G18G11G19G 2G16
  20682900.808     1565243.126 7    858149.57123        26.000           2.656
  23455977.667    -2885692.980 6  -2149787.31821        14.500           0.625
  20524959.042     -585745.612 7   -434095.77122        20.000           1.969
  23312129.784    -3932975.655 6  -2936046.04521        13.000           0.781
  23919721.995    -1098112.634 5   -683882.53321         8.000           0.313
 91  5 30 17 33 44.9990000  0  5G18G11G19G 2G16
  20686543.034     1584383.176 7    873063.87423        25.750           2.688
  23449061.464    -2922010.636 6  -2178086.74621        14.750           0.594
  20523734.308     -592185.552 7   -439113.91022        21.250           1.969
  23302137.183    -3985504.109 6  -2976977.23121        13.250           0.594
  23913312.347    -1131810.440 5   -710140.53421         8.750           0.313
 91  5 30 17 33 59.9990000  0  5G18G11G19G 2G16
  20690204.565     1603627.050 7    888059.08223        25.750           2.656
  23442172.792    -2958227.581 6  -2206307.70821        15.000           0.594
  20522517.019     -598578.410 7   -444095.36322        20.250           2.031
  23292149.526    -4037987.012 6  -3017872.94221        13.000           0.750
  23906915.339    -1165393.452 5   -736309.12621         8.500           0.406
 91  5 30 17 34 14.9990000  0  5G18G11G19G 2G16
  20693885.487     1622968.331 7    903130.18323        25.500           2.688
  23435294.620    -2994349.942 6  -2234454.98621        13.750           0.563
  20521306.706     -604930.594 7   -449045.12122        21.000           1.938
  23282166.659    -4090430.636 6  -3058738.03121        13.250           0.719
  23900540.472    -1198868.352 5   -762393.44321         8.000           0.344
 91  5 30 17 34 29.9990000  0  5G18G11G19G 2G16
  20697585.097     1642406.225 7    918276.56923        24.750           2.656
  23428445.683    -3030377.939 6  -2262528.69421        15.750           0.531
  20520106.284     -611242.768 7   -453963.69422        21.500           1.969
  23272195.331    -4142835.484 6  -3099572.91221        12.750           0.625
  23894194.401    -1232235.256 5   -788393.62221         8.500           0.281
 91  5 30 17 34 44.9990000  0  5G18G11G19G 2G16
  20701302.378     1661943.453 7    933500.36123        25.750           2.625
  23421604.495    -3066308.464 6  -2290526.48321        14.500           0.625
  20518911.917     -617512.241 7   -458848.99622        20.500           1.875
  23262233.433    -4195198.742 6  -3140375.36821        13.500           0.719
  23887872.230    -1265491.098 5   -814307.22521         8.750           0.219
 91  5 30 17 34 59.9990000  0  5G18G11G19G 2G16
  20705040.237     1681579.686 7    948801.30123        25.750           2.688
  23414784.612    -3102141.427 6  -2318448.24121        14.750           0.500
  20517727.862     -623739.100 7   -463701.09422        20.250           1.969
  23252279.034    -4247520.423 6  -3181145.44021        14.250           0.719
  23881554.480    -1298635.950 5   -840134.39321         7.750           0.219
 91  5 30 17 35 14.9990000  0  5G18G11G19G 2G16
  20708794.245     1701317.226 7    964181.19223        25.500           2.688
  23407988.706    -3137873.937 6  -2346291.71521        14.750           0.656
  20516550.636     -629921.032 7   -468518.18122        20.500           1.875
  23242326.526    -4299797.809 6  -3221881.00521        14.000           0.531
  23875276.401    -1331667.324 5   -865873.10421         8.250           0.313
 91  5 30 17 35 29.9990000  0  5G18G11G19G 2G16
  20712569.105     1721154.921 7    979639.11423        25.500           2.594
  23401203.956    -3173506.759 6  -2374057.53621        14.750           0.625
  20515382.058     -636059.253 7   -473301.21822        20.500           1.813
  23232388.542    -4352032.101 6  -3262582.98221        14.000           0.625
  23869014.800    -1364585.737 5   -891523.80221         8.750           0.344
 91  5 30 17 35 44.9990000  0  5G18G11G19G 2G16
  20716363.050     1741090.674 7    995173.44623        26.000           2.656
  23394444.644    -3209041.569 6  -2401746.95721        14.500           0.563
  20514223.519     -642155.674 7   -478051.67222        20.250           1.906
  23222454.401    -4404224.889 6  -3303252.63821        13.500           0.656
  23862772.144    -1397393.361 5   -917088.17921         9.250           0.188
 91  5 30 17 35 59.9990000  0  5G18G11G19G 2G16
  20720176.112     1761125.803 7   1010785.20823        26.250           2.594
  23387698.269    -3244476.733 6  -2429358.73421        14.250           0.625
  20513070.464     -648209.026 7   -482768.57122        20.250           1.969
  23212532.847    -4456374.679 6  -3343888.75521        14.250           0.813
  23856546.011    -1430088.546 5   -942564.90521         9.250           0.375
 91  5 30 17 36 14.9990000  0  5G18G11G19G 2G16
  20724008.026     1781260.083 7   1026474.23323        25.500           2.531
  23380972.698    -3279812.084 6  -2456892.74821        13.750           0.688
  20511930.128     -654219.452 7   -487452.02322        21.250           1.938
  23202616.347    -4508481.520 6  -3384491.42221        14.000           0.719
  23850351.464    -1462671.041 5   -967953.84521        10.500           0.344
 91  5 30 17 36 29.9990000  0  5G18G11G19G 2G16
  20727857.214     1801489.908 7   1042237.70523        25.750           2.656
  23374270.245    -3315050.607 6  -2484351.32121        14.000           0.563
  20510790.511     -660190.426 7   -492104.72822        21.250           1.969
  23192711.198    -4560548.626 6  -3425063.12821        14.750           0.750
  23844168.823    -1495144.088 5   -993257.49721         9.750           0.344
 91  5 30 17 36 44.9990000  0  5G18G11G19G 2G16
  20731726.011     1821819.890 7   1058079.21723        25.750           2.688
  23367585.550    -3350187.282 6  -2511730.49421        15.000           0.500
  20509662.315     -666117.280 7   -496723.05222        20.500           1.906
  23182808.808    -4612571.370 6  -3465600.27121        14.500           0.688
  23838011.565    -1527503.047 5  -1018472.25621        10.250           0.375
 91  5 30 17 36 59.9990000  0  5G18G11G19G 2G16
  20735613.940     1842249.450 7   1073998.33423        26.250           2.781
  23360917.940    -3385222.402 6  -2539030.57221        14.500           0.469
  20508543.995     -672000.508 7   -501307.39522        21.250           1.969
  23172916.214    -4664549.826 6  -3506102.89821        14.000           0.750
  23831876.417    -1559748.244 5  -1043598.37121        10.250           0.313
 91  5 30 17 37 14.9990000  0  5G18G11G19G 2G16
  20739520.769     1862781.631 7   1089997.42023        25.250           2.844
  23354266.690    -3420152.620 6  -2566248.89921        14.000           0.531
  20507434.675     -677837.141 7   -505855.41422        21.250           1.750
  23163035.698    -4716480.889 6  -3546568.59221        14.250           0.719
  23825760.503    -1591876.542 5  -1068633.39621         9.750           0.344
 91  5 30 17 37 29.9990000  0  5G18G11G19G 2G16
  20743445.542     1883412.437 7   1106073.35823        25.000           2.875
  23347641.480    -3454981.031 6  -2593387.89321        14.000           0.656
  20506329.878     -683630.577 7   -510369.78022        21.250           2.000
  23153163.089    -4768367.993 6  -3587000.02121        14.250           0.844
  23819670.659    -1623891.244 5  -1093579.91721         9.750           0.344
 91  5 30 17 37 44.9990000  0  5G18G11G19G 2G16
  20747392.651     1904143.577 7   1122227.46823        26.000           2.875
  23341037.956    -3489705.672 6  -2620446.01021        14.750           0.625
  20505236.112     -689379.389 7   -514849.37222        20.750           1.969
  23143295.761    -4820209.475 6  -3627395.91721        13.750           0.688
  23813596.175    -1655790.566 5  -1118436.53021         9.250           0.188
 91  5 30 17 37 59.9990000  0  5G18G11G19G 2G16
  20751355.550     1924974.045 7   1138458.96923        25.750           2.781
  23334448.026    -3524327.099 6  -2647423.74321        15.000           0.656
  20504149.675     -695084.572 7   -519294.97522        20.750           1.906
  23133438.870    -4872005.987 6  -3667756.78021        13.750           0.813
  23807552.808    -1687575.321 5  -1143203.86221        10.500           0.281
 91  5 30 17 38 14.9990000  0  5G18G11G19G 2G16
  20755339.964     1945907.111 7   1154770.42623        25.500           2.844
  23327880.706    -3558841.433 6  -2674317.98821        15.250           0.656
  20503075.175     -700742.239 7   -523703.53722        20.000           2.000
  23123588.948    -4923753.746 6  -3708079.64421        14.000           0.781
  23801527.815    -1719241.654 5  -1167878.92021        10.000           0.250
 91  5 30 17 38 29.9990000  0  5G18G11G19G 2G16
  20759340.558     1966941.775 7   1171161.04323        25.000           2.781
  23321334.487    -3593249.632 6  -2701129.56321        14.750           0.531
  20502010.503     -706353.856 6   -528076.23722        19.500           1.938
  23113754.605    -4975453.892 6  -3748365.41721        14.250           0.906
  23795522.433    -1750790.644 5  -1192462.54221        10.250           0.250
 91  5 30 17 38 44.9990000  0  5G18G11G19G 2G16
  20763364.862     1988072.536 7   1187626.54223        26.250           2.719
  23314799.409    -3627556.771 6  -2727862.37321        14.000           0.625
  20500948.183     -711924.782 7   -532417.22022        20.000           1.813
  23103923.042    -5027111.804 6  -3788618.26121        13.750           0.781
  23789540.722    -1782227.409 5  -1216958.72721        10.000           0.313
 91  5 30 17 38 59.9990000  0  5G18G11G19G 2G16
  20767401.940     2009300.654 7   1204167.91023        25.750           2.688
  23308290.151    -3661761.058 6  -2754515.02621        14.500           0.594
  20499892.995     -717453.442 7   -536725.26522        20.250           1.875
  23094100.440    -5078725.660 6  -3828836.78921        13.500           0.750
  23783575.815    -1813550.173 5  -1241366.05621         9.250           0.406
 91  5 30 17 39 14.9990000  0  5G18G11G19G 2G16
  20771461.331     2030628.716 7   1220787.16023        25.250           2.625
  23301807.128    -3695859.272 6  -2781085.04021        15.000           0.594
  20498850.550     -722937.042 7   -540998.19222        20.500           1.969
  23084285.448    -5130292.416 6  -3869018.61921        14.000           0.969
  23777640.198    -1844756.698 5  -1265682.83321         8.750           0.344
 91  5 30 17 39 29.9990000  0  5G18G11G19G 2G16
  20775537.683     2052052.448 7   1237480.95423        24.750           2.719
  23295338.573    -3729855.425 6  -2807575.51521        14.750           0.656
  20497814.269     -728379.782 7   -545239.29022        21.250           1.938
  23074484.339    -5181816.335 6  -3909167.06421        13.500           1.000
  23771719.503    -1875850.395 5  -1289911.65621         8.750           0.375
 91  5 30 17 39 44.9990000  0  5G18G11G19G 2G16
  20779632.534     2073575.149 7   1254251.86323        24.750           2.594
  23288886.565    -3763746.033 6  -2833983.75321        15.500           0.688
  20496787.558     -733778.752 7   -549446.27922        20.750           1.906
  23064688.417    -5233293.975 6  -3949279.42421        14.250           0.969
  23765828.730    -1906827.911 5  -1314049.99221         9.500           0.406
 91  5 30 17 39 59.9990000  0  5G18G11G19G 2G16
  20783748.050     2095195.559 7   1271098.90823        25.000           2.656
  23282453.925    -3797531.570 6  -2860310.12821        15.250           0.719
  20495770.894     -739135.038 7   -553620.00322        20.750           2.000
  23054903.644    -5284726.172 6  -3989356.40621        13.250           0.906
  23759956.901    -1937689.943 5  -1338098.29021         9.250           0.438
 91  5 30 17 40 14.9990000  0  5G18G11G19G 2G16
  20787879.644     2116915.432 7   1288023.45223        24.750           2.656
  23276049.276    -3831209.784 6  -2886552.86421        15.250           0.688
  20494759.300     -744446.507 7   -557758.81222        21.000           1.938
  23045120.948    -5336110.806 6  -4029396.31821        12.500           0.906
  23754106.495    -1968434.523 5  -1362055.10121        10.000           0.344
 91  5 30 17 40 29.9990000  0  5G18G11G19G 2G16
  20792035.190     2138740.629 7   1305030.07723        24.750           2.625
  23269664.612    -3864774.547 6  -2912707.19121        14.750           0.594
  20493757.597     -749707.309 7   -561858.13322        21.500           1.906
  23035353.081    -5387441.987 6  -4069394.56321        13.250           0.938
  23748281.565    -1999055.745 5  -1385915.78421        10.250           0.344
 91  5 30 17 40 44.9990000  0  5G18G11G19G 2G16
  20796207.323     2160661.254 7   1322111.05223        25.250           2.719
  23263292.714    -3898235.041 6  -2938780.29221        14.750           0.594
  20492762.737     -754926.972 7   -565925.40422        20.750           1.969
  23025596.839    -5438729.129 6  -4109358.51721        14.500           0.875
  23742474.745    -2029562.876 5  -1409687.57021        10.000           0.406
 91  5 30 17 40 59.9990000  0  5G18G11G19G 2G16
  20800395.300     2182682.706 7   1339270.59723        24.750           2.781
  23256945.300    -3931585.752 6  -2964767.84221        14.500           0.625
  20491778.472     -760100.206 7   -569956.49922        21.250           2.000
  23015842.737    -5489966.782 6  -4149283.89021        13.750           0.844
  23736691.667    -2059950.638 5  -1433366.32221        10.000           0.281
 91  5 30 17 41 14.9990000  0  5G18G11G19G 2G16
  20804606.565     2204802.135 7   1356506.48623        25.250           2.781
  23250624.308    -3964828.817 6  -2990671.50721        14.500           0.563
  20490801.136     -765229.685 7   -573953.49122        20.500           1.844
  23006100.472    -5541157.076 6  -4189172.37821        13.500           0.750
  23730926.190    -2090220.995 5  -1456953.61821         9.500           0.375
 91  5 30 17 41 29.9990000  0  5G18G11G19G 2G16
  20808832.581     2227019.945 7   1373819.03723        25.000           2.813
  23244316.839    -3997963.782 6  -3016490.93521        15.000           0.594
  20489837.487     -770315.039 7   -577916.10422        20.000           1.906
  22996370.269    -5592299.758 6  -4229023.77021        14.000           0.750
  23725190.011    -2120373.824 5  -1480449.32521         9.750           0.375
 91  5 30 17 41 44.9990000  0  5G18G11G19G 2G16
  20813079.605     2249336.080 7   1391208.20223        25.250           2.938
  23238028.995    -4030990.255 6  -3042225.82321        14.750           0.563
  20488874.300     -775356.147 7   -581844.23922        20.250           1.969
  22986645.276    -5643394.731 6  -4268837.98221        13.250           1.000
  23719473.315    -2150408.895 5  -1503853.27021        10.000           0.406
 91  5 30 17 41 59.9990000  0  5G18G11G19G 2G16
  20817345.456     2271749.409 7   1408673.10723        25.000           2.906
  23231766.558    -4063908.784 6  -3067876.59121        14.500           0.688
  20487924.284     -780353.987 7   -585738.66222        20.750           1.938
  22976935.753    -5694442.753 6  -4308615.58121        13.750           0.938
  23713780.784    -2180326.797 5  -1527165.90721         9.500           0.438
 91  5 30 17 42 14.9990000  0  5G18G11G19G 2G16
  20821630.206     2294265.420 7   1426218.02623        24.250           2.906
  23225526.940    -4096713.220 6  -3093438.47021        15.000           0.719
  20486984.948     -785302.837 7   -589594.90822        20.750           1.906
  22967229.019    -5745437.794 6  -4348351.89521        13.500           0.938
  23708110.831    -2210121.682 5  -1550382.68321         9.500           0.344
 91  5 30 17 42 29.9990000  0  5G18G11G19G 2G16
  20825931.050     2316877.015 7   1443837.41223        24.750           2.906
  23219301.089    -4129410.489 6  -3118916.82521        15.000           0.625
  20486048.690     -790210.040 7   -593418.70122        20.250           1.844
  22957533.886    -5796386.896 6  -4388052.43421        13.750           0.875
  23702461.362    -2239800.693 5  -1573509.18421         9.250           0.344
 91  5 30 17 42 44.9990000  0  5G18G11G19G 2G16
  20830254.823     2339588.291 7   1461534.49023        24.750           2.813
  23213102.526    -4161995.999 6  -3144308.10221        15.000           0.594
  20485126.003     -795071.233 7   -597206.63722        21.250           1.906
  22947847.050    -5847285.827 6  -4427713.87221        13.750           0.938
  23696843.206    -2269359.572 5  -1596542.07421         9.750           0.375
 91  5 30 17 42 59.9990000  0  5G18G11G19G 2G16
  20834593.605     2362396.759 7   1479307.30523        24.500           2.750
  23206920.284    -4194471.674 6  -3169613.79521        14.250           0.625
  20484207.370     -799888.540 7   -600960.38622        21.500           1.781
  22938171.620    -5898136.621 6  -4467337.77821        14.750           0.906
  23691240.651    -2298800.344 5  -1619482.92821        10.250           0.344
 91  5 30 17 43 14.9990000  0  5G18G11G19G 2G16
  20838954.261     2385303.215 7   1497156.45623        25.250           2.750
  23200762.081    -4226836.392 6  -3194833.02221        14.750           0.656
  20483300.308     -804661.409 7   -604679.49922        21.000           1.844
  22928504.589    -5948938.222 6  -4506923.37521        14.750           0.844
  23685655.081    -2328121.784 5  -1642330.76721        10.500           0.500
 91  5 30 17 43 29.9990000  0  5G18G11G19G 2G16
  20843330.862     2408307.475 7   1515081.82123        25.000           2.813
  23194622.980    -4259089.671 6  -3219965.41921        14.750           0.594
  20482399.190     -809389.573 7   -608363.77622        21.000           2.000
  22918846.440    -5999690.230 6  -4546470.35221        15.250           0.781
  23680102.995    -2357323.612 5  -1665085.43421        10.000           0.344
 91  5 30 17 43 44.9990000  0  5G18G11G19G 2G16
  20847726.050     2431411.554 7   1533084.98023        24.750           2.719
  23188509.980    -4291229.224 6  -3245009.17121        14.500           0.656
  20481511.034     -814071.092 7   -612011.71622        21.250           1.906
  22909199.464    -6050390.778 6  -4585977.20721        15.000           0.813
  23674567.081    -2386403.839 5  -1687745.32921         9.750           0.500
 91  5 30 17 43 59.9990000  0  5G18G11G19G 2G16
  20852144.855     2454613.431 7   1551164.33023        25.750           2.625
  23182414.230    -4323256.564 6  -3269965.50321        14.500           0.625
  20480628.667     -818707.778 7   -615624.71522        20.000           1.906
  22899562.355    -6101041.449 6  -4625445.18921        15.250           0.906
  23669057.792    -2415363.814 5  -1710311.52221         9.000           0.469
 91  5 30 17 44 14.9990000  0  6G18G11G19G 2G16G 6
  20856577.409     2477915.183 7   1569321.51123        25.000           2.625
  23176341.175    -4355169.208 6  -3294832.46421        14.750           0.719
  20479753.714     -823297.324 7   -619200.98522        20.250           1.969
  22889934.323    -6151639.836 6  -4664872.42821        16.250           0.906
  23663570.636    -2444201.542 5  -1732782.47521         9.000           0.344
  24226293.409          -0.22814                         6.250
 91  5 30 17 44 29.9990000  0  6G18G11G19G 2G16G 6
  20861029.323     2501317.546 7   1587557.09123        25.000           2.594
  23170289.784    -4386966.322 6  -3319609.39021        14.750           0.688
  20478886.925     -827839.405 7   -622740.26622        20.000           2.031
  22880315.526    -6202185.345 6  -4704258.48221        15.500           0.781
  23658105.315    -2472916.325 5  -1755157.61221         9.000           0.406
  24218242.339      -42310.118 4                         7.000
 91  5 30 17 44 44.9990000  0  6G18G11G19G 2G16G 6
  20865501.237     2524818.375 7   1605869.39923        24.750           2.563
  23164261.933    -4418649.411 6  -3344297.48321        15.000           0.688
  20478033.253     -832335.722 7   -626243.88822        20.500           1.969
  22870702.894    -6252679.653 6  -4743604.65521        14.750           0.750
  23652662.167    -2501509.591 5  -1777438.09821         9.250           0.469
  24210197.870      -84607.056 5                         8.250
 91  5 30 17 44 59.9990000  0  6G18G11G19G 2G16G 6
  20869992.698     2548416.033 7   1624257.15423        24.500           2.594
  23158255.683    -4450219.721 6  -3368897.68921        14.500           0.719
  20477184.222     -836787.774 7   -629713.02222        20.250           2.000
  22861104.456    -6303124.106 6  -4782911.94921        15.250           0.875
  23647241.737    -2529982.813 5  -1799624.99321         9.500           0.406
  24202153.144     -126892.638 5                         8.250
 91  5 30 17 45 14.9990000  0  6G18G11G19G 2G16G 6
  20874502.331     2572114.120 7   1642723.16323        24.750           2.656
  23152269.042    -4481673.259 6  -3393406.91021        14.750           0.625
  20476347.878     -841191.820 7   -633144.74822        20.500           2.031
  22851513.065    -6353514.945 6  -4822177.48121        14.500           0.906
  23641846.831    -2558332.227 5  -1821715.43221         9.250           0.375
  24194104.558     -169163.190 4                         6.500
 91  5 30 17 45 29.9990000  0  6G18G11G19G 2G16G 6
  20879032.050     2595910.350 7   1661265.64323        25.000           2.656
  23146302.456    -4513011.902 6  -3417826.58521        14.000           0.719
  20475518.300     -845550.014 7   -636540.74222        20.750           2.031
  22841935.831    -6403854.108 6  -4861402.74021        15.500           0.781
  23636473.612    -2586559.979 5  -1843711.06221         8.750           0.438
  24186060.940     -211420.852 4        -0.25631         6.500           0.188
 91  5 30 17 45 44.9990000  0  6G18G11G19G 2G16G 6
  20883578.761     2619806.521 7   1679886.00923        24.250           2.719
  23140363.776    -4544233.274 6  -3442154.89021        14.750           0.750
  20474699.620     -849860.363 7   -639899.45722        21.000           1.969
  22832367.464    -6454139.336 6  -4900585.99521        15.750           0.844
  23631130.917    -2614663.605 5  -1865609.97121         9.000           0.500
  24178021.042     -253663.816 4    -32916.79021         6.500           0.219
 91  5 30 17 45 59.9990000  0  6G18G11G19G 2G16G 6
  20888144.698     2643799.718 7   1698581.96723        24.750           2.719
  23134446.855    -4575339.890 6  -3466393.77721        15.000           0.750
  20473888.644     -854125.914 7   -643223.25922        20.250           1.844
  22822809.136    -6504373.504 6  -4939729.44221        15.500           0.938
  23625803.136    -2642646.070 5  -1887414.51021         8.500           0.469
  24169986.198     -295894.753 4    -65823.94021         6.750           0.250
 91  5 30 17 46 14.9990000  0  6G18G11G19G 2G16G 6
  20892730.815     2667893.463 7   1717356.28423        25.000           2.781
  23128544.276    -4606327.705 6  -3490540.08421        14.250           0.719
  20473085.440     -858342.829 7   -646509.16522        21.250           1.906
  22813257.581    -6554552.704 6  -4978830.04821        15.000           0.906
  23620505.815    -2670503.393 5  -1909121.49221         8.750           0.438
  24161955.097     -338110.183 4    -98719.03321         6.750           0.250
 91  5 30 17 46 29.9990000  0  6G18G11G19G 2G16G 6
  20897332.401     2692085.769 7   1736207.40323        23.500           2.719
  23122675.261    -4637198.362 6  -3514595.09121        15.500           0.594
  20472292.331     -862513.046 7   -649758.68422        20.500           1.906
  22803719.980    -6604678.554 6  -5017889.09721        16.000           0.813
  23615226.558    -2698237.321 5  -1930732.33121         9.250           0.375
  24153930.167     -380311.958 4   -131603.48321         7.250           0.219
 91  5 30 17 46 44.9990000  0  6G18G11G19G 2G16G 6
  20901954.917     2716376.796 7   1755135.45523        24.250           2.750
  23116818.987    -4667951.239 6  -3538558.32921        14.000           0.719
  20471507.659     -866636.159 7   -652971.49422        21.250           1.906
  22794192.519    -6654750.480 6  -5056906.15021        15.750           0.938
  23609973.464    -2725847.684 5  -1952246.89921         9.500           0.469
  24145893.331     -422499.753 4   -164477.03221         7.000           0.250
 91  5 30 17 46 59.9990000  0  6G18G11G19G 2G16G 6
  20906594.870     2740765.538 7   1774139.64723        24.250           2.750
  23110989.073    -4698586.921 6  -3562430.26321        14.500           0.656
  20470729.972     -870712.972 7   -656148.22822        21.500           1.906
  22784676.183    -6704769.296 6  -5095881.78021        15.500           1.000
  23604737.073    -2753334.685 5  -1973665.32921         8.750           0.438
  24137870.042     -464674.433 4   -197340.38621         7.250           0.188
 91  5 30 17 47 14.9990000  0  6G18G11G19G 2G16G 6
  20911256.433     2765251.834 7   1793219.85223        24.500           2.781
  23105180.800    -4729105.125 6  -3586210.62721        14.000           0.688
  20469965.378     -874743.514 7   -659288.90922        21.000           1.969
  22775167.222    -6754735.102 6  -5134816.11621        15.750           1.000
  23599537.901    -2780698.509 5  -1994987.77421         9.250           0.469
  24129851.308     -506836.177 5   -230193.61521         8.250           0.219
 91  5 30 17 47 29.9990000  0  6G18G11G19G 2G16G 6
  20915934.964     2789838.825 7   1812378.51723        24.500           2.781
  23099396.948    -4759502.467 6  -3609896.82821        14.500           0.719
  20469204.972     -878724.843 7   -662391.23722        20.750           1.938
  22765667.706    -6804644.500 6  -5173706.50521        15.750           0.906
  23594354.628    -2807935.687 5  -2016211.53921         9.750           0.500
  24121828.706     -548981.943 4   -263034.42621         7.000           0.250
 91  5 30 17 47 44.9990000  0  6G18G11G19G 2G16G 6
  20920632.972     2814522.831 7   1831612.77723        24.750           2.625
  23093639.019    -4789782.255 6  -3633491.43821        14.000           0.750
  20468458.417     -882660.401 7   -665457.90722        21.000           1.938
  22756182.487    -6854501.035 6  -5212555.71021        15.000           1.063
  23589193.370    -2835049.871 5  -2037339.45721         9.500           0.500
  24113809.183     -591115.254 4   -295865.53921         7.250           0.281
 91  5 30 17 47 59.9990000  0  6G18G11G19G 2G16G 6
  20925348.737     2839302.406 7   1850921.50423        25.500           2.594
  23087897.300    -4819945.388 6  -3656995.12821        14.500           0.594
  20467715.573     -886551.529 7   -668489.95222        20.750           1.938
  22746705.261    -6904305.655 6  -5251364.42521        14.750           1.156
  23584055.581    -2862042.227 5  -2058372.45821        10.000           0.438
  24105793.565     -633237.398 4   -328687.92021         6.750           0.281
 91  5 30 17 48 14.9990000  0  6G18G11G19G 2G16G 6
  20930079.183     2864177.892 7   1870304.96923        24.750           2.500
  23082175.862    -4849990.977 6  -3680407.24921        14.000           0.750
  20466984.948     -890397.687 7   -671486.96322        21.000           1.844
  22737235.448    -6954057.662 6  -5290132.15821        14.750           0.969
  23578943.503    -2888911.987 5  -2079309.93621         9.750           0.438
  24097783.417     -675347.886 5   -361501.21721         7.500           0.313
 91  5 30 17 48 29.9990000  0  6G18G11G19G 2G16G 6
  20934833.511     2889153.961 7   1889766.80622        24.750           2.406
  23076491.323    -4879913.974 6  -3703723.82321        15.500           0.813
  20466261.355     -894193.896 7   -674445.04922        20.750           1.969
  22727778.526    -7003752.190 6  -5328855.12021        15.000           1.000
  23573852.456    -2915654.182 5  -2100148.00821         9.750           0.563
  24089769.714     -717441.964 3   -394301.73321         5.750           0.250
 91  5 30 17 48 44.9990000  0  6G18G11G19G 2G16G 6
  20939604.315     2914226.133 7   1909303.52923        25.000           2.500
  23070811.730    -4909718.549 6  -3726948.13621        14.250           0.719
  20465547.855     -897944.705 7   -677367.75922        21.000           1.938
  22718332.847    -7053393.603 6  -5367536.68421        15.000           1.063
  23568788.815    -2942273.129 5  -2120890.02421        10.250           0.438
  24081763.128     -759524.116 3   -427092.97521         6.000           0.313
 91  5 30 17 48 59.9990000  0  6G18G11G19G 2G16G 6
  20944396.253     2939396.219 7   1928916.55222        25.000           2.438
  23065162.370    -4939402.046 6  -3750078.08421        14.500           0.719
  20464843.073     -901647.670 7   -680253.18222        21.250           1.938
  22708897.503    -7102979.367 6  -5406174.89221        15.250           1.094
  23563747.440    -2968766.413 5  -2141534.12221         9.750           0.469
  24073759.511     -801592.082 4   -459873.16421         6.250           0.281
 91  5 30 17 49 14.9990000  0  6G18G11G19G 2G16G 6
  20949204.815     2964663.742 7   1948605.49422        25.250           2.406
  23059538.808    -4968964.817 6  -3773113.97421        14.750           0.625
  20464148.261     -905303.619 7   -683101.97222        20.750           2.000
  22699472.136    -7152509.947 6  -5444770.08621        15.500           1.219
  23558727.917    -2995134.328 5  -2162080.53721        10.000           0.469
  24065754.480     -843646.345 4   -492642.66421         6.500           0.313
 91  5 30 17 49 29.9990000  0  6G18G11G19G 2G16G 6
  20954029.081     2990026.446 7   1968368.61422        24.750           2.406
  23053935.253    -4998408.698 6  -3796057.22221        14.750           0.781
  20463460.425     -908914.671 7   -685915.77922        21.000           1.906
  22690055.855    -7201987.254 6  -5483323.77221        15.250           1.031
  23553733.948    -3021379.024 5  -2182530.94421         9.250           0.531
  24057756.276     -885689.236 4   -525403.29921         6.500           0.344
 91  5 30 17 49 44.9990000  0  6G18G11G19G 2G16G 6
  20958874.378     3015488.926 7   1988209.47522        24.500           2.469
  23048358.081    -5027728.607 6  -3818903.87921        15.250           0.688
  20462783.901     -912476.018 7   -688690.84922        20.500           1.969
  22680649.995    -7251406.579 6  -5521832.28621        15.000           0.969
  23548766.323    -3047495.440 5  -2202881.38421        10.250           0.563
  24049756.581     -927716.014 4   -558151.37821         6.500           0.344
 91  5 30 17 49 59.9990000  0  6G18G11G19G 2G16G 6
  20963738.433     3041050.060 7   2008127.21622        24.250           2.438
  23042799.081    -5056925.302 6  -3841654.51121        15.000           0.625
  20462116.190     -915988.555 7   -691427.89122        20.500           1.875
  22671260.300    -7300768.671 6  -5560296.19621        15.750           1.031
  23543818.667    -3073484.663 5  -2223132.70321        10.250           0.438
  24041763.706     -969727.739 4   -590887.75021         6.750           0.313
 91  5 30 17 50 14.9990000  0  6G18G11G19G 2G16G 6
  20968621.839     3066708.580 7   2028120.83622        24.500           2.469
  23037271.292    -5085999.447 6  -3864309.64421        14.750           0.750
  20461455.464     -919453.247 7   -694127.65322        20.250           1.844
  22661873.847    -7350074.270 6  -5598716.08721        16.000           1.188
  23538896.980    -3099347.720 5  -2243285.72421        10.500           0.469
  24033777.198    -1011725.344 4   -623613.08921         7.250           0.500
 91  5 30 17 50 29.9990000  0  6G18G11G19G 2G16G 6
  20973521.862     3092462.321 7   2048188.65423        24.000           2.625
  23031759.011    -5114953.035 6  -3886870.85321        14.500           0.750
  20460804.347     -922872.369 7   -696791.90322        21.000           1.938
  22652503.464    -7399325.537 6  -5637093.63421        15.750           1.031
  23534003.065    -3125086.516 5  -2263341.90621        10.750           0.500
  24025778.847    -1053711.197 4   -656329.29421         6.500           0.344
 91  5 30 17 50 44.9990000  0  6G18G11G19G 2G16G 6
  20978440.581     3118314.715 7   2068333.35423        23.250           2.625
  23026275.612    -5143782.265 6  -3909335.17021        15.750           0.719
  20460164.675     -926242.433 7   -699417.93222        20.500           1.781
  22643144.440    -7448518.879 6  -5675426.06021        16.250           1.000
  23529127.456    -3150697.520 5  -2283298.52821        10.250           0.469
  24017792.440    -1095681.716 3   -689033.50421         5.750           0.281
 91  5 30 17 50 59.9990000  0  6G18G11G19G 2G16G 6
  20983381.151     3144265.299 7   2088554.55123        24.250           2.656
  23020812.644    -5172486.902 6  -3931702.38821        15.500           0.750
  20459534.081     -929563.695 6   -702005.92422        19.750           1.875
  22633790.839    -7497654.354 6  -5713713.39121        16.500           1.188
  23524275.456    -3176180.538 5  -2303155.43021         9.500           0.563
  24009804.878    -1137637.129 3   -721725.98221         5.750           0.281
 91  5 30 17 51 14.9990000  0  6G18G11G19G 2G16G 6
  20988334.714     3170311.835 7   2108850.52223        23.500           2.625
  23015370.448    -5201069.152 6  -3953974.24121        15.000           0.719
  20458909.542     -932838.358 7   -704557.61722        21.000           1.906
  22624453.925    -7546734.177 6  -5751957.34121        16.750           1.031
  23519448.300    -3201537.778 5  -2322914.30521        10.000           0.469
  24001825.628    -1179579.922 3   -754408.61221         5.750           0.344
 91  5 30 17 51 29.9990000  0  6G18G11G19G 2G16G 6
  20993311.706     3196458.423 7   2129224.45023        24.250           2.750
  23009957.722    -5229524.278 6  -3976147.03321        14.750           0.656
  20458293.815     -936061.945 7   -707069.50922        21.000           1.938
  22615123.480    -7595753.677 6  -5790154.29321        16.500           1.000
  23514651.440    -3226764.622 5  -2342571.58721        10.750           0.500
  23993847.855    -1221505.500 3   -787077.87721         6.000           0.313
 91  5 30 17 51 44.9990000  0  6G18G11G19G 2G16G 6
  20998306.526     3222701.208 7   2149673.32823        24.500           2.594
  23004567.956    -5257855.555 6  -3998223.33221        15.500           0.844
  20457692.401     -939237.841 7   -709544.23222        21.000           1.969
  22605807.300    -7644716.131 6  -5828306.80521        16.000           1.031
  23509875.651    -3251864.766 5  -2362130.11221        10.500           0.406
  23985876.206    -1263417.584 4   -819736.59621         6.500           0.219
 91  5 30 17 51 59.9990000  0  6G18G11G19G 2G16G 6
  21003319.308     3249039.987 7   2170197.02223        24.250           2.719
  22999199.378    -5286062.954 6  -4020203.10821        15.250           0.781
  20457095.542     -942366.436 7   -711982.10322        21.750           1.875
  22596501.901    -7693621.785 6  -5866415.05921        16.000           0.875
  23505127.862    -3276838.419 5  -2381590.09921        11.250           0.500
  23977900.112    -1305316.398 4   -852384.94921         6.750           0.281
 91  5 30 17 52 14.9990000  0  6G18G11G19G 2G16G 6
  21008350.644     3275476.780 7   2190797.09423        24.500           2.625
  22993856.331    -5314143.958 6  -4042084.36721        15.500           0.813
  20456508.784     -945445.597 7   -714381.44922        21.000           1.875
  22587203.987    -7742468.535 6  -5904477.39621        16.250           0.938
  23500392.065    -3301683.309 5  -2400949.74721        10.500           0.438
  23969932.355    -1347199.788 4   -885021.29921         6.500           0.313
 91  5 30 17 52 29.9990000  0  6G18G11G19G 2G16G 6
  21013397.644     3302006.459 7   2211469.53623        25.000           2.625
  22988532.558    -5342103.300 6  -4063870.85221        14.750           0.750
  20455932.745     -948480.272 7   -716746.13222        20.750           1.875
  22577922.097    -7791261.009 6  -5942497.45221        17.250           0.875
  23495691.714    -3326404.063 5  -2420212.66921        10.500           0.406
  23961961.847    -1389072.905 4   -917649.62621         6.500           0.250
 91  5 30 17 52 44.9990000  0  6G18G11G19G 2G16G 6
  21018465.855     3328634.591 7   2232218.69423        24.750           2.563
  22983239.315    -5369934.937 6  -4085557.82121        15.750           0.781
  20455363.472     -951464.786 7   -719071.73722        21.000           1.938
  22568647.862    -7839993.333 6  -5980470.63621        16.750           1.063
  23491013.448    -3350994.904 5  -2439374.35321        10.000           0.500
  23954000.964    -1430929.871 4   -950265.42721         6.500           0.156
 91  5 30 17 52 59.9990000  0  6G18G11G19G 2G16G 6
  21023549.417     3355357.039 7   2253041.34323        24.000           2.500
  22977965.737    -5397642.627 6  -4107148.20721        15.000           0.844
  20454804.901     -954403.021 7   -721361.27322        21.000           1.844
  22559382.886    -7888669.456 6  -6018400.02621        16.750           0.906
  23486358.878    -3375459.835 5  -2458437.92921        10.500           0.438
  23946032.058    -1472774.865 4   -982871.87221         6.750           0.188
 91  5 30 17 53 14.9990000  0  6G18G11G19G 2G16G 6
  21028653.440     3382177.495 7   2273940.36522        24.250           2.375
  22972719.940    -5425222.410 6  -4128638.92221        15.500           0.750
  20454255.448     -957291.183 7   -723611.78922        21.000           1.875
  22550134.081    -7937285.437 6  -6056282.55621        16.500           1.063
  23481727.753    -3399794.740 5  -2477400.18221        10.750           0.438
  23938073.847    -1514604.088 5  -1015465.99621         7.750           0.313
 91  5 30 17 53 29.9990000  0  6G18G11G19G 2G16G 6
  21033775.230     3409093.753 7   2294914.04822        24.000           2.375
  22967490.737    -5452675.744 6  -4150031.11121        15.250           0.781
  20453713.519     -960131.207 7   -725824.79922        21.500           1.844
  22540890.964    -7985842.952 6  -6094119.51921        16.250           1.031
  23477119.839    -3424001.341 5  -2496262.45421        10.750           0.438
  23930113.776    -1556419.325 4  -1048049.22421         7.000           0.250
 91  5 30 17 53 44.9990000  0  6G18G11G19G 2G16G 6
  21038915.815     3436105.141 7   2315961.85022        24.250           2.344
  22962292.144    -5480002.987 6  -4171325.04721        15.500           0.688
  20453184.456     -962923.676 7   -728000.74822        20.750           1.938
  22531664.667    -8034342.499 6  -6131911.32221        16.500           1.063
  23472534.776    -3448080.106 5  -2515025.13321        10.750           0.281
  23922161.323    -1598221.272 4  -1080622.14221         7.000           0.219
 91  5 30 17 53 59.9990000  0  6G18G11G19G 2G16G 6
  21044072.855     3463211.995 7   2337084.02822        23.500           2.281
  22957116.714    -5507203.596 6  -4192520.31021        15.500           0.781
  20452662.261     -965668.174 7   -730139.32122        20.250           1.781
  22522445.136    -8082783.578 6  -6169657.55521        16.750           1.063
  23467981.081    -3472030.757 5  -2533687.97021        10.500           0.375
  23914214.167    -1640009.755 4  -1113184.54921         7.250           0.063
 91  5 30 17 54 14.9990000  0  6G18G11G19G 2G16G 6
  21049250.167     3490415.421 7   2358281.46222        23.750           2.281
  22951970.425    -5534275.926 6  -4213615.61221        16.250           0.688
  20452149.222     -968363.418 7   -732239.51222        21.250           1.906
  22513240.112    -8131164.684 6  -6207357.05921        16.250           1.156
  23463448.659    -3495851.901 5  -2552249.91821        10.250           0.438
  23906258.245    -1681783.378 5  -1145735.37821         7.500           0.156
 91  5 30 17 54 29.9990000  0  6G18G11G19G 2G16G 6
  21054445.558     3517711.565 7   2379551.16122        23.250           2.281
  22946835.644    -5561223.323 6  -4234613.57821        15.750           0.750
  20451643.433     -971013.115 7   -734304.21622        21.250           1.844
  22504043.378    -8179489.289 6  -6245012.53021        16.500           1.156
  23458938.222    -3519547.056 5  -2570713.65721        11.000           0.344
  23898315.628    -1723545.751 5  -1178277.42721         7.750           0.188
 91  5 30 17 54 44.9990000  0  6G18G11G19G 2G16G 6
  21059657.214     3545102.640 7   2400894.81222        24.250           2.250
  22941733.355    -5588043.234 6  -4255512.19721        16.500           0.781
  20451151.417     -973614.754 7   -736331.47422        21.000           1.906
  22494856.878    -8227755.017 6  -6282622.14321        15.250           1.156
  23454449.394    -3543113.925 5  -2589077.45021        10.500           0.344
  23890368.839    -1765294.732 4  -1210809.00921         7.250           0.125
 91  5 30 17 54 59.9990000  0  6G18G11G19G 2G16G 6
  21064890.144     3572589.986 7   2422313.48222        24.500           2.406
  22936655.058    -5614733.667 6  -4276309.92621        15.750           0.750
  20450662.948     -976166.684 7   -738319.99022        20.250           1.938
  22485684.370    -8275960.163 6  -6320184.52121        16.000           1.188
  23449990.136    -3566550.634 5  -2607339.81821        10.500           0.469
  23882427.128    -1807028.552 5  -1243328.86821         7.500           0.250
 91  5 30 17 55 14.9990000  0  6G18G11G19G 2G16G 6
  21070137.940     3600173.585 7   2443807.15722        24.250           2.406
  22931598.425    -5641294.420 6  -4297006.60721        16.000           0.844
  20450188.206     -978668.986 7   -740269.83822        20.500           1.938
  22476523.550    -8324104.528 6  -6357699.54921        16.500           1.281
  23445552.151    -3589856.862 5  -2625500.50421        11.000           0.313
  23874489.526    -1848747.274 5  -1275836.89221         7.500           0.188
 91  5 30 17 55 29.9990000  0  6G18G11G19G 2G16G 6
  21075403.269     3627854.391 7   2465376.57923        24.250           2.531
  22926568.058    -5667724.300 6  -4317601.30121        15.500           0.781
  20449721.612     -981120.520 7   -742180.12222        21.250           1.969
  22467373.237    -8372186.941 6  -6395166.31521        16.500           1.375
  23441147.870    -3613031.706 5  -2643558.83421        10.750           0.281
  23866556.370    -1890449.994 5  -1308332.49021         7.750           0.250
 91  5 30 17 55 44.9990000  0  6G18G11G19G 2G16G 6
  21080689.761     3655629.703 7   2487019.64722        24.500           2.406
  22921563.839    -5694025.415 6  -4338095.67521        15.750           0.969
  20449266.792     -983523.724 7   -744052.75722        21.500           1.906
  22458234.472    -8420209.838 6  -6432586.68721        15.750           1.281
  23436764.909    -3636077.644 5  -2661516.67921        10.500           0.313
  23858623.526    -1932139.144 5  -1340817.48321         7.750           0.219
 91  5 30 17 55 59.9990000  0  6G18G11G19G 2G16G 6
  21085994.042     3683501.228 7   2508737.67323        24.500           2.500
  22916586.183    -5720195.872 6  -4358488.24021        16.500           0.875
  20448814.823     -985876.981 7   -745886.46222        21.000           1.781
  22449110.120    -8468171.381 6  -6469959.24421        16.250           1.219
  23432404.386    -3658992.681 5  -2679372.55021        10.500           0.344
  23850690.940    -1973813.096 5  -1373290.64221         7.750           0.219
 91  5 30 17 56 14.9990000  0  6G18G11G19G 2G16G 6
  21091316.776     3711465.576 7   2530528.04523        24.250           2.500
  22911629.784    -5746238.425 6  -4378781.11721        16.750           0.719
  20448379.472     -988183.262 7   -747683.56922        21.500           1.813
  22439992.909    -8516074.329 6  -6507286.15621        16.000           1.188
  23428068.097    -3681779.425 5  -2697128.44921        10.250           0.438
  23842759.597    -2015474.837 5  -1405754.28621         8.000           0.156
 91  5 30 17 56 29.9990000  0  6G18G11G19G 2G16G 6
  21096657.081     3739526.371 7   2552393.56323        24.750           2.500
  22906697.315    -5772149.047 6  -4398971.21821        16.500           0.781
  20447948.925     -990438.825 7   -749441.15622        20.750           1.813
  22430888.831    -8563914.794 6  -6544564.38121        16.000           1.219
  23423755.237    -3704434.600 5  -2714781.82321        10.250           0.281
  23834837.300    -2057120.778 5  -1438205.61321         7.500           0.281
 91  5 30 17 56 44.9990000  0  6G18G11G19G 2G16G 6
  21102012.245     3767681.273 7   2574332.40523        24.250           2.563
  22901791.667    -5797929.811 6  -4419060.09921        16.250           0.844
  20447527.862     -992645.984 7   -751161.02822        20.750           1.719
  22421796.589    -8611694.989 6  -6581795.65021        17.000           1.125
  23419468.550    -3726960.352 5  -2732334.36921        10.500           0.313
  23826915.417    -2098753.163 5  -1470646.41521         7.750           0.375
 91  5 30 17 56 59.9990000  0  6G18G11G19G 2G16G 6
  21107390.237     3795930.970 7   2596345.11523        23.750           2.563
  22896914.120    -5823579.378 6  -4439046.76221        17.250           0.875
  20447117.269     -994803.567 7   -752842.25922        21.250           1.844
  22412715.081    -8659413.739 6  -6618979.03221        17.000           1.219
  23415205.690    -3749355.646 5  -2749785.23421        10.250           0.281
  23818998.995    -2140370.906 5  -1503075.76221         8.000           0.250
 91  5 30 17 57 14.9990000  0  6G18G11G19G 2G16G 6
  21112783.230     3824276.533 7   2618432.52622        24.250           2.469
  22892053.433    -5849096.354 6  -4458930.12221        16.500           0.813
  20446715.659     -996910.616 7   -754484.11222        20.250           1.875
  22403649.292    -8707069.849 6  -6656113.61321        17.750           1.250
  23410965.245    -3771619.023 5  -2767133.33621        10.000           0.281
  23811077.089    -2181972.979 5  -1535492.90321         7.750           0.219
 91  5 30 17 57 29.9990000  0  6G18G11G19G 2G16G 6
  21118192.222     3852715.492 7   2640592.72522        23.000           2.469
  22887228.464    -5874482.887 6  -4478711.81621        17.000           0.875
  20446325.058     -998969.366 7   -756088.33822        21.250           1.844
  22394588.269    -8754665.415 6  -6693201.01421        16.750           1.250
  23406755.128    -3793752.594 5  -2784380.27021        10.250           0.313
  23803165.237    -2223561.816 5  -1567899.71121         7.750           0.219
 91  5 30 17 57 44.9990000  0  6G18G11G19G 2G16G 6
  21123625.237     3881249.734 7   2662827.15823        24.000           2.531
  22882421.167    -5899736.584 6  -4498390.01521        16.250           0.844
  20445941.831    -1000977.582 7   -757653.18122        20.750           1.813
  22385545.401    -8802198.160 6  -6730239.45821        17.250           1.156
  23402569.800    -3815754.242 5  -2801524.38621         9.500           0.500
  23795254.198    -2265135.330 5  -1600294.59621         7.750           0.250
 91  5 30 17 57 59.9990000  0  6G18G11G19G 2G16G 6
  21129073.706     3909875.723 7   2685133.08022        23.750           2.344
  22877638.683    -5924860.803 6  -4517967.31421        16.500           0.813
  20445568.245    -1002938.867 7   -759181.46322        21.000           1.813
  22376510.776    -8849671.659 6  -6767231.74921        16.750           1.250
  23398406.050    -3837627.286 5  -2818568.31821         9.500           0.344
  23787346.386    -2306696.976 5  -1632680.26121         8.000           0.250
 91  5 30 17 58 14.9990000  0  6G18G11G19G 2G16G 6
  21134535.519     3938594.554 7   2707511.34922        22.750           2.313
  22872880.737    -5949853.964 6  -4537442.50121        16.750           0.844
  20445206.558    -1004851.908 7   -760672.15122        21.500           1.875
  22367486.597    -8897084.518 6  -6804176.77921        16.750           1.250
  23394267.589    -3859370.406 5  -2835510.99721         9.500           0.406
  23779438.776    -2348245.524 5  -1665055.72921         8.500           0.281
 91  5 30 17 58 29.9990000  0  6G18G11G19G 2G16G 6
  21140018.644     3967405.794 7   2729961.62322        23.250           2.281
  22868151.331    -5974715.902 6  -4556815.43021        17.000           0.875
  20444853.269    -1006716.803 7   -762125.31922        20.000           1.969
  22358477.761    -8944436.709 6  -6841074.54121        16.750           1.219
  23390161.237    -3880983.888 5  -2852352.66721        10.250           0.438
  23771534.370    -2389781.200 5  -1697421.13721         8.250           0.219
 91  5 30 17 58 44.9990000  0  6G18G11G19G 2G16G 6
  21145521.097     3996311.941 7   2752485.85722        23.500           2.156
  22863446.120    -5999443.560 6  -4576083.72421        17.250           0.969
  20444504.917    -1008530.670 7   -763538.73222        20.500           1.906
  22349480.058    -8991725.090 6  -6877922.57421        17.250           1.156
  23386073.222    -3902464.549 5  -2869090.84521         9.750           0.344
  23763633.167    -2431301.172 5  -1729774.27221         8.000           0.250
 91  5 30 17 58 59.9990000  0  6G18G11G19G 2G16G 6
  21151039.698     4025315.793 7   2775086.21722        23.750           2.156
  22858766.050    -6024034.156 6  -4595245.22221        16.500           0.844
  20444170.190    -1010290.959 6   -764910.38622        19.500           2.031
  22340494.831    -9038947.165 6  -6914718.95321        17.500           1.250
  23382009.823    -3923809.955 5  -2885723.61721        11.500           0.344
  23755735.886    -2472802.913 5  -1762113.23921         8.000           0.125
 91  5 30 17 59 14.9990000  0  6G18G11G19G 2G16G 6
  21156575.831     4054414.845 7   2797760.76722        24.000           2.094
  22854112.433    -6048489.490 6  -4614301.30821        16.000           0.938
  20443845.526    -1011999.815 7   -766241.97022        20.500           1.844
  22331516.222    -9086104.771 6  -6951465.09521        16.250           1.344
  23377967.917    -3945022.286 5  -2902252.69021        10.250           0.313
  23747841.315    -2514288.457 5  -1794439.60121         7.750           0.313
 91  5 30 17 59 29.9990000  0  6G18G11G19G 2G16G 6
  21162131.167     4083608.256 7   2820508.84022        23.750           2.188
  22849485.190    -6072810.244 6  -4633252.53921        16.500           0.813
  20443528.159    -1013658.127 7   -767534.15922        20.500           1.813
  22322557.980    -9133198.857 6  -6988161.72721        16.500           1.313
  23373956.886    -3966102.165 5  -2918678.55821        10.250           0.156
  23739947.753    -2555758.964 5  -1826754.21721         8.000           0.281
 91  5 30 17 59 44.9990000  0  6G18G11G19G 2G16G 6
  21167706.081     4112895.587 7   2843330.09822        24.500           2.031
  22844881.503    -6096996.220 6  -4652098.74121        16.500           0.906
  20443224.417    -1015265.732 7   -768786.85022        20.750           1.844
  22313605.136    -9180229.239 6  -7024808.72421        16.000           1.219
  23369970.042    -3987049.365 5  -2935001.08721         9.500           0.313
  23732061.323    -2597214.295 5  -1859056.99821         7.750           0.281
 91  5 30 17 59 59.9990000  0  6G18G11G19G 2G16G 6
  21173296.136     4142273.003 7   2866221.55022        24.250           2.063
  22840305.503    -6121050.956 6  -4670842.68021        16.500           0.906
  20442925.276    -1016826.470 7   -770003.00822        20.750           1.813
  22304669.276    -9227199.371 6  -7061408.78021        16.750           1.281
  23366010.698    -4007867.785 5  -2951223.21521         9.500           0.344
  23724172.722    -2638658.299 5  -1891350.99221         7.500           0.281
 91  5 30 18  0 14.9990000  0  6G18G11G19G 2G16G 6
  21178902.480     4171748.007 7   2889189.04322        24.000           2.156
  22835754.394    -6144966.684 6  -4689478.30021        16.000           0.750
  20442636.933    -1018332.908 7   -771176.86922        21.500           1.813
  22295745.972    -9274101.785 6  -7097956.07421        17.250           1.313
  23362081.808    -4028549.745 5  -2967339.01421        11.000           0.406
  23716293.698    -2680083.517 5  -1923630.32521         7.500           0.344
 91  5 30 18  0 29.9990000  0  6G18G11G19G 2G16G 6
  21184532.253     4201314.289 7   2912227.66922        24.000           2.031
  22831227.011    -6168749.036 6  -4708009.98821        16.000           1.031
  20442361.175    -1019790.828 7   -772312.91122        21.000           1.844
  22286833.331    -9320942.100 6  -7134454.96321        17.250           1.344
  23358170.698    -4049100.672 5  -2983352.72921        10.250           0.344
  23708411.433    -2721495.755 5  -1955899.56621         8.000           0.313
 91  5 30 18  0 44.9990000  0  6G18G11G19G 2G16G 6
  21190175.323     4230972.752 7   2935338.12122        24.500           2.156
  22826727.792    -6192396.658 6  -4726436.68521        16.250           0.813
  20442092.651    -1021198.997 7   -773410.19322        21.250           1.906
  22277929.136    -9367719.238 6  -7170904.64121        16.750           1.125
  23354280.120    -4069519.815 5  -2999263.72821        10.250           0.406
  23700532.831    -2762893.887 4  -1988157.82121         7.250           0.219
 91  5 30 18  0 59.9990000  0  6G18G11G19G 2G16G 6
  21195836.394     4260720.711 7   2958518.30422        24.000           2.094
  22822252.448    -6215912.137 6  -4744760.42421        17.250           0.938
  20441833.589    -1022560.386 7   -774471.02422        20.250           1.844
  22269039.808    -9414435.882 6  -7207307.18621        17.250           1.156
  23350418.034    -4089810.040 5  -3015074.28921         9.750           0.531
  23692660.769    -2804280.984 5  -2020407.41421         7.750           0.438
 91  5 30 18  1 14.9990000  0  6G18G11G19G 2G16G 6
  21201514.565     4290561.845 7   2981771.09722        23.500           2.156
  22817806.917    -6239291.195 6  -4762977.84921        16.750           0.938
  20441584.784    -1023870.812 7   -775492.13222        21.750           1.813
  22260164.159    -9461087.712 6  -7243659.22221        17.250           1.281
  23346577.776    -4109967.026 5  -3030781.04121         9.000           0.344
  23684786.644    -2845652.771 5  -2052645.10521         8.000           0.313
 91  5 30 18  1 29.9990000  0  6G18G11G19G 2G16G 6
  21207211.034     4320496.819 7   3005097.01122        23.500           2.156
  22813379.370    -6262532.922 6  -4781088.27521        15.750           0.813
  20441344.745    -1025129.474 7   -776472.91622        20.250           1.875
  22251296.128    -9507674.042 6  -7279960.21021        17.500           1.313
  23342772.589    -4129989.958 5  -3046383.35021        10.250           0.313
  23676911.784    -2887008.755 5  -2084870.49921         8.250           0.375
 91  5 30 18  1 44.9990000  0  6G18G11G19G 2G16G 6
  21212922.417     4350520.646 7   3028492.15722        22.750           2.125
  22808983.245    -6285641.936 6  -4799095.28921        16.000           0.875
  20441113.183    -1026341.087 7   -777417.03022        21.500           1.969
  22242444.159    -9554199.446 6  -7316213.72421        17.750           1.375
  23338984.276    -4149883.815 5  -3061885.05421         9.250           0.375
  23669047.175    -2928353.653 5  -2117087.25421         8.500           0.406
 91  5 30 18  1 59.9990000  0  6G18G11G19G 2G16G 6
  21218656.667     4380635.347 7   3051958.12122        23.500           2.188
  22804615.425    -6308615.618 6  -4816996.83521        17.500           0.813
  20440893.355    -1027503.341 7   -778322.69322        20.250           1.844
  22233602.401    -9600661.586 6  -7352417.93121        17.250           1.313
  23335228.472    -4169646.161 5  -3077284.29721        10.250           0.375
  23661183.362    -2969685.175 5  -2149293.57721         7.750           0.469
 91  5 30 18  2 14.9990000  0  6G18G11G19G 2G16G 6
  21224403.433     4410843.535 7   3075496.92422        23.000           2.125
  22800265.370    -6331451.103 6  -4834790.70821        17.250           0.844
  20440678.487    -1028613.658 7   -779187.88322        20.750           1.875
  22224774.683    -9647057.662 6  -7388570.68221        17.500           1.250
  23331491.644    -4189274.080 5  -3092578.78021        10.000           0.313
  23653316.151    -3011000.766 5  -2181487.47621         7.500           0.438
 91  5 30 18  2 29.9990000  0  6G18G11G19G 2G16G 6
  21230168.315     4441142.732 7   3099106.64022        23.000           2.156
  22795946.870    -6354150.496 6  -4852478.52721        16.500           0.781
  20440479.917    -1029674.432 7   -780014.46422        20.250           1.875
  22215956.714    -9693389.902 6  -7424673.68121        17.500           1.281
  23327777.683    -4208769.909 5  -3107770.32221         9.750           0.344
  23645459.042    -3052302.806 5  -2213670.82321         8.500           0.250
 91  5 30 18  2 44.9990000  0  6G18G11G19G 2G16G 6
  21235952.409     4471532.007 7   3122786.55322        22.750           2.188
  22791655.151    -6376714.098 6  -4870060.53821        17.000           0.875
  20440285.472    -1030686.181 7   -780802.85422        21.000           1.844
  22207151.964    -9739658.752 6  -7460727.27621        17.500           1.375
  23324097.831    -4228134.055 5  -3122859.26521        10.500           0.344
  23637601.073    -3093591.872 5  -2245844.09021         7.750           0.250
 91  5 30 18  2 59.9990000  0  6G18G11G19G 2G16G 6
  21241752.019     4502018.850 7   3146542.49422        22.250           2.156
  22787388.550    -6399134.301 6  -4887530.81621        17.000           0.875
  20440105.425    -1031641.409 7   -781547.18822        20.250           1.875
  22198360.753    -9785856.467 6  -7496725.45421        17.750           1.313
  23320440.175    -4247358.920 5  -3137839.70221        10.250           0.531
  23629749.565    -3134860.509 5  -2278001.40221         7.500           0.313
 91  5 30 18  3 14.9990000  0  6G18G11G19G 2G16G 6
  21247572.386     4532596.036 7   3170368.82922        22.500           2.125
  22783147.769    -6421417.828 6  -4904894.58521        16.750           0.938
  20439932.323    -1032547.013 7   -782252.85822        20.500           1.781
  22189581.761    -9831989.967 6  -7532673.58021        18.000           1.344
  23316805.503    -4266451.741 5  -3152717.22021        10.250           0.406
  23621899.339    -3176115.636 5  -2310148.20521         8.500           0.281
 91  5 30 18  3 29.9990000  0  6G18G11G19G 2G16G 6
  21253408.761     4563265.982 7   3194267.44522        22.250           2.094
  22778932.589    -6443561.925 6  -4922149.70821        16.750           0.813
  20439776.534    -1033400.411 6   -782917.85122        19.000           1.844
  22180813.987    -9878056.617 6  -7568569.62621        18.000           1.438
  23313201.409    -4285409.403 5  -3167489.44621        10.500           0.406
  23614051.440    -3217354.811 5  -2342282.57721         8.500           0.406
 91  5 30 18  3 44.9990000  0  6G18G11G19G 2G16G 6
  21259262.081     4594027.602 7   3218237.49022        22.500           2.031
  22774746.112    -6465567.169 6  -4939296.63821        16.500           0.781
  20439616.440    -1034202.395 7   -783542.78322        20.750           1.938
  22172059.261    -9924057.145 6  -7604414.14121        17.500           1.313
  23309616.628    -4304232.978 5  -3182157.16621        10.250           0.406
  23606205.683    -3258578.819 5  -2374405.10921         8.000           0.438
 91  5 30 18  3 59.9990000  0  6G18G11G19G 2G16G 6
  21265133.214     4624881.387 7   3242279.35222        22.250           2.063
  22770581.894    -6487432.734 6  -4956334.72321        15.750           0.875
  20439477.120    -1034952.117 7   -784126.98622        20.750           1.844
  22163322.323    -9969990.952 6  -7640206.67221        19.000           1.313
  23306060.128    -4322922.054 5  -3196720.08121        10.250           0.313
  23598362.112    -3299787.139 5  -2406515.43921         7.500           0.469
 91  5 30 18  4 14.9990000  0  6G18G11G19G 2G16G 6
  21271022.417     4655829.523 7   3266394.75222        22.000           2.031
  22766448.581    -6509156.123 6  -4973262.01921        16.250           0.875
  20439341.026    -1035647.474 7   -784668.82622        21.250           1.875
  22154592.659   -10015855.470 6  -7675945.21521        18.750           1.250
  23302525.698    -4341474.267 5  -3211176.35421         9.750           0.375
  23590524.081    -3340977.483 5  -2438611.76221         8.500           0.469
 91  5 30 18  4 29.9990000  0  6G18G11G19G 2G16G 6
  21276928.964     4686871.158 7   3290582.98322        22.250           2.125
  22762338.605    -6530737.849 6  -4990078.93521        15.750           0.938
  20439221.745    -1036289.043 7   -785168.75322        20.500           1.906
  22145878.620   -10061651.341 6  -7711630.26721        18.500           1.250
  23299026.636    -4359890.309 5  -3225526.52421        10.750           0.281
  23582689.597    -3382150.521 5  -2470694.59621         8.500           0.250
 91  5 30 18  4 44.9990000  0  6G18G11G19G 2G16G 6
  21282852.628     4717998.431 7   3314837.95422        21.500           2.000
  22758263.636    -6552185.312 6  -5006791.23621        16.750           0.938
  20439105.573    -1036884.550 7   -785632.79122        20.500           1.781
  22137175.784   -10107385.891 6  -7747267.53521        19.000           1.281
  23295545.792    -4378177.363 5  -3239776.17521        11.000           0.344
  23574857.394    -3423313.929 5  -2502769.90821         8.250           0.344
 91  5 30 18  4 59.9990000  0  6G18G11G19G 2G16G 6
  21288793.933     4749219.603 7   3339166.08522        22.250           1.906
  22754209.206    -6573489.990 6  -5023392.26721        17.000           0.875
  20439007.151    -1037425.606 6   -786054.40122        19.250           1.844
  22128482.792   -10153050.747 6  -7782850.49921        18.000           1.281
  23292093.620    -4396326.802 5  -3253918.62221        10.500           0.406
  23567025.151    -3464459.421 5  -2534831.27221         8.000           0.281
 91  5 30 18  5 14.9990000  0  6G18G11G19G 2G16G 6
  21294751.839     4780529.570 7   3363563.42422        22.000           1.938
  22750178.815    -6594656.260 6  -5039885.44821        16.250           0.813
  20438908.542    -1037916.631 7   -786437.02422        20.750           1.875
  22119809.519   -10198650.430 6  -7818382.66821        18.500           1.375
  23288662.511    -4414343.527 5  -3267957.62721         9.750           0.375
  23559199.378    -3505591.508 5  -2566882.20121         8.000           0.281
 91  5 30 18  5 29.9990000  0  6G18G11G19G 2G16G 6
  21300726.433     4811931.333 7   3388032.27822        22.000           1.938
  22746178.089    -6615680.916 6  -5056268.27321        16.750           0.844
  20438829.128    -1038354.640 6   -786778.33622        19.500           1.750
  22111142.105   -10244181.770 6  -7853861.59121        17.750           1.344
  23285260.284    -4432224.609 5  -3281890.95621        10.750           0.406
  23551372.878    -3546707.280 5  -2598920.41021         8.000           0.344
 91  5 30 18  5 44.9990000  0  6G18G11G19G 2G16G 6
  21306720.503     4843421.063 7   3412569.68622        21.750           2.000
  22742203.995    -6636567.347 6  -5072543.41021        17.250           0.906
  20438753.659    -1038743.221 7   -787081.13522        20.500           1.875
  22102493.901   -10289648.403 6  -7889290.08621        19.500           1.313
  23281883.612    -4449973.585 5  -3295721.33321        10.000           0.344
  23543557.925    -3587810.486 5  -2630948.85821         8.750           0.313
 91  5 30 18  5 59.9990000  0  6G18G11G19G 2G16G 6
  21312729.636     4875002.518 7   3437178.56222        21.250           2.125
  22738255.323    -6657311.410 6  -5088707.58121        17.000           0.813
  20438690.058    -1039078.392 7   -787342.32222        20.250           1.938
  22093853.909   -10335046.168 6  -7924664.93121        19.000           1.313
  23278527.589    -4467586.699 5  -3309445.85621         9.250           0.281
  23535740.058    -3628897.043 5  -2662964.31121         8.750           0.313
 91  5 30 18  6 14.9990000  0  6G18G11G19G 2G16G 6
  21318756.198     4906674.485 7   3461857.97322        21.250           2.031
  22734334.792    -6677913.919 6  -5104761.46521        16.500           0.844
  20438634.542    -1039361.370 7   -787562.82522        21.000           1.938
  22085227.144   -10380376.063 6  -7959986.87721        18.750           1.375
  23275204.730    -4485064.685 5  -3323065.07621         9.500           0.344
  23527919.956    -3669968.145 5  -2694967.70921         8.250           0.438
 91  5 30 18  6 29.9990000  0  6G18G11G19G 2G16G 6
  21324801.362     4938433.644 7   3486605.31622        22.250           1.969
  22730438.737    -6698378.088 6  -5120707.56021        16.250           0.875
  20438594.940    -1039595.387 6   -787745.18422        19.250           1.781
  22076610.644   -10425641.282 6  -7995258.43021        18.750           1.406
  23271903.550    -4502410.823 5  -3336581.55621        10.000           0.281
  23520104.698    -3711027.269 5  -2726961.76821         8.500           0.344
 91  5 30 18  6 44.9990000  0  6G18G11G19G 2G16G 6
  21330862.245     4970283.803 7   3511423.57522        22.250           2.094
  22726573.206    -6718699.539 6  -5136542.43121        16.500           0.844
  20438556.550    -1039776.332 7   -787886.18022        20.750           1.938
  22068012.823   -10470837.570 6  -8030476.27122        19.000           1.500
  23268631.698    -4519620.777 5  -3349991.92021        10.750           0.406
  23512297.909    -3752070.085 5  -2758943.12721         8.750           0.281
 91  5 30 18  6 59.9990000  0  6G18G11G19G 2G16G 6
  21336938.058     5002221.784 7   3536310.26722        22.250           2.000
  22722735.409    -6738881.075 6  -5152268.28821        17.250           0.813
  20438536.300    -1039907.065 7                        20.250
  22059424.370   -10515967.730 6  -8065642.59722        18.000           1.500
  23265377.589    -4536697.738 5  -3363298.63521        10.250           0.375
  23504490.519    -3793099.622 5  -2790914.14321         8.750           0.406
 91  5 30 18  7 14.9990000  0  6G18G11G19G 2G16G 6
  21343035.409     5034247.809 7   3561265.56622        22.250           2.063
  22718920.003    -6758922.063 6  -5167884.62521        17.000           0.844
  20438515.917    -1039987.087 7                        20.250
  22050849.675   -10561031.253 6  -8100756.98321        18.500           1.469
  23262155.722    -4553641.014 5  -3376501.18821        10.250           0.344
  23496683.300    -3834115.444 5  -2822874.49721         8.750           0.313
 91  5 30 18  7 29.9990000  0  6G18G11G19G 2G16G 6
  21349145.081     5066364.249 7   3586291.31522        22.000           2.063
  22715133.894    -6778819.698 6  -5183389.25921        17.000           0.781
  20438510.878    -1040013.728 6                        19.500
  22042289.206   -10606025.421 6  -8135817.32322        19.000           1.500
  23258957.081    -4570448.183 5  -3389597.68921         9.750           0.344
  23488880.487    -3875115.034 5  -2854822.17521         9.000           0.344
 91  5 30 18  7 44.9990000  0  6G18G11G19G 2G16G 6
  21355275.933     5098571.422 7   3611387.77322        22.500           1.969
  22711377.917    -6798573.140 6  -5198781.53621        17.750           0.781
  20438515.198    -1039986.525 7                        20.250
  22033736.269   -10650949.537 6  -8170823.08722        17.500           1.531
  23255780.737    -4587118.737 5  -3402587.74021         9.750           0.344
  23481085.378    -3916097.914 5  -2886756.83321         9.750           0.281
 91  5 30 18  7 59.9990000  0  6G18G11G19G 2G16G 6
  21361420.605     5130865.197 7   3636551.70522        22.750           2.063
  22707643.308    -6818186.294 6  -5214064.50021        17.750           0.969
  20438535.698    -1039909.484 6                        19.500
  22025201.144   -10695807.579 6  -8205777.36522        17.750           1.563
  23252634.612    -4603656.543 5  -3415474.32921        10.000           0.438
  23473288.761    -3957068.105 5  -2918681.61321         9.250           0.344
 91  5 30 18  8 14.9990000  0  6G18G11G19G 2G16G 6
  21367584.058     5163249.472 7   3661786.16122        23.000           2.094
  22703941.065    -6837655.013 6  -5229234.90521        17.750           0.875
  20438555.964    -1039778.469 7                        20.000
  22016679.089   -10740595.397 6  -8240676.91521        18.500           1.469
  23249515.440    -4620057.491 5  -3428254.29121        10.250           0.406
  23465494.558    -3998021.559 5  -2950593.37321         8.250           0.313
 91  5 30 18  8 29.9990000  0  6G18G11G19G 2G16G 6
  21373762.284     5195721.343 7   3687088.87322        23.250           2.063
  22700260.839    -6856981.766 6  -5244294.69621        17.000           0.938
  20438591.620    -1039596.255 6                        19.000
  22008168.995   -10785315.623 6  -8275523.81422        18.000           1.563
  23246420.456    -4636324.237 5  -3440929.68421        11.000           0.375
  23457705.940    -4038961.130 5  -2982494.29921         9.250           0.313
 91  5 30 18  8 44.9990000  0  6G18G11G19G 2G16G 6
  21379955.183     5228280.115 7   3712459.30522        22.000           2.094
  22696613.378    -6876166.872 6  -5259244.12421        17.250           0.969
  20438634.581    -1039363.236 7                        20.000
  21999673.097   -10829968.589 6  -8310318.29221        18.750           1.438
  23243352.558    -4652457.366 5  -3453500.96521        10.250           0.313
  23449915.714    -4079887.136 5  -3014384.64921         9.750           0.406
 91  5 30 18  8 59.9990000  0  6G18G11G19G 2G16G 6
  21386171.300     5260927.976 7   3737899.14222        22.750           2.125
  22692985.776    -6895208.094 6  -5274081.41321        17.250           0.969
  20438694.815    -1039077.213 6   -787341.45722        19.250           1.969
  21991188.339   -10874552.179 6  -8345058.71421        18.000           1.469
  23240311.011    -4668454.627 5  -3465966.37521        10.250           0.375
  23442129.105    -4120797.656 5  -3046262.91921         9.000           0.250
 91  5 30 18  9 14.9990000  0  6G18G11G19G 2G16G 6
  21392399.253     5293665.287 7   3763408.68922        22.250           2.000
  22689395.503    -6914104.260 6  -5288805.68121        17.750           0.969
  20438754.573    -1038737.101 7   -787076.43722        20.250           1.875
  21982715.261   -10919065.267 6  -8379744.19322        18.250           1.531
  23237290.394    -4684314.854 5  -3478324.98421        10.000           0.313
  23434350.151    -4161691.589 5  -3078128.26621         8.750           0.281
 91  5 30 18  9 29.9990000  0  6G18G11G19G 2G16G 6
  21398645.409     5326490.356 7   3788986.62122        23.250           2.063
  22685820.620    -6932856.753 6  -5303417.98421        16.500           0.906
  20438831.448    -1038344.581 6   -786770.58322        19.500           1.938
  21974258.355   -10963509.195 6  -8414375.78922        18.500           1.531
  23234293.690    -4700039.882 5  -3490578.24821         9.750           0.469
  23426572.050    -4202570.553 5  -3109981.98321         8.750           0.281
 91  5 30 18  9 44.9990000  0  6G18G11G19G 2G16G 6
  21404909.019     5359403.476 7   3814633.16222        22.250           1.938
  22682278.331    -6951464.967 6  -5317917.87521        16.250           0.875
  20438912.878    -1037899.276 7   -786423.59822        20.250           1.875
  21965817.894   -11007883.431 6  -8448953.07822        19.250           1.531
  23231332.065    -4715629.348 5  -3502725.88621        10.750           0.438
  23418793.776    -4243434.332 5  -3141823.83321         9.000           0.344
 91  5 30 18  9 59.9990000  0  6G18G11G19G 2G16G 6
  21411190.511     5392402.439 7   3840346.59422        22.750           1.781
  22678768.034    -6969930.580 6  -5332306.65121        17.250           0.844
  20439010.355    -1037402.937 6   -786036.84322        19.000           1.813
  21957385.269   -11052189.959 6  -8483477.60521        19.250           1.469
  23228388.175    -4731084.857 5  -3514769.14121        10.500           0.469
  23411021.503    -4284284.627 5  -3173655.17921         9.250           0.438
 91  5 30 18 10 14.9990000  0  6G18G11G19G 2G16G 6
  21417486.378     5425492.085 7   3866130.69422        22.750           1.938
  22675282.222    -6988248.638 6  -5346580.44021        17.250           0.781
  20439112.151    -1036850.719 6   -785606.55322        19.750           1.969
  21948968.433   -11096423.750 6  -8517945.46522        19.000           1.500
  23225475.144    -4746401.863 5  -3526704.46921        11.250           0.406
  23403248.222    -4325116.759 5  -3205472.34521         8.750           0.313
 91  5 30 18 10 29.9990000  0  6G18G11G19G 2G16G 6
  21423797.534     5458666.698 7   3891981.00022        22.250           1.938
  22671823.690    -7006424.575 6  -5360743.48821        17.250           0.875
  20439230.011    -1036248.147 6   -785137.01822        19.250           1.875
  21940561.870   -11140590.233 6  -8552360.86322        19.000           1.500
  23222584.730    -4761585.813 5  -3538536.10721        10.750           0.344
  23395479.870    -4365936.330 5  -3237279.75621         8.250           0.313
 91  5 30 18 10 44.9990000  0  6G18G11G19G 2G16G 6
  21430128.480     5491927.643 7   3917898.56522        22.500           1.938
  22668390.128    -7024456.493 6  -5374794.32021        17.000           0.875
  20439353.144    -1035593.507 7   -784626.91922        20.000           1.875
  21932169.933   -11184687.629 6  -8586722.43022        18.250           1.594
  23219722.370    -4776635.002 5  -3550262.76121        10.000           0.375
  23387719.917    -4406741.602 5  -3269076.06221         9.000           0.344
 91  5 30 18 10 59.9990000  0  6G18G11G19G 2G16G 6
  21436476.042     5525274.336 7   3943882.95422        23.250           1.906
  22664986.440    -7042344.258 6  -5388732.83021        17.500           0.844
  20439492.589    -1034886.959 6   -784076.36822        18.750           1.813
  21923795.472   -11228715.957 6  -8621030.17822        18.750           1.563
  23216887.440    -4791549.466 5  -3561884.42321        10.000           0.500
  23379952.487    -4447532.719 5  -3300861.30021         8.000           0.344
 91  5 30 18 11 14.9990000  0  6G18G11G19G 2G16G 6
  21442835.675     5558707.720 7   3969934.90422        22.000           1.938
  22661612.136    -7060086.995 6  -5402558.30021        18.000           0.781
  20439631.464    -1034127.622 7   -783484.68522        20.250           1.938
  21915428.214   -11272674.376 6  -8655283.45322        18.750           1.688
  23214070.831    -4806328.522 5  -3573400.59521         9.750           0.406
  23372196.190    -4488308.910 5  -3332634.87421         8.500           0.344
 91  5 30 18 11 29.9990000  0  6G18G11G19G 2G16G 6
  21449212.706     5592226.623 7   3996053.47722        22.000           1.906
  22658264.214    -7077685.382 6  -5416271.31121        18.250           0.938
  20439790.136    -1033316.205 6   -782852.41222        18.750           1.813
  21907074.644   -11316563.659 6  -8689482.84322        18.500           1.750
  23211283.386    -4820972.793 5  -3584811.75121         9.750           0.406
  23364438.440    -4529070.995 5  -3364397.49321         8.750           0.281
 91  5 30 18 11 44.9990000  0  6G18G11G19G 2G16G 6
  21455608.597     5625833.100 7   4022240.30722        21.250           1.906
  22654938.120    -7095137.022 6  -5429869.97021        17.250           0.969
  20439950.433    -1032450.514 7   -782177.84622        20.750           1.938
  21898736.839   -11360381.428 6  -8723626.52122        18.750           1.594
  23208527.120    -4835480.209 5  -3596116.21121        10.500           0.469
  23356689.237    -4569816.993 5  -3396147.57621         9.750           0.344
 91  5 30 18 11 59.9990000  0  6G18G11G19G 2G16G 6
  21462020.503     5659522.360 7   4048491.62222        21.750           1.813
  22651648.175    -7112446.228 6  -5443357.64921        17.250           0.969
  20440127.776    -1031535.094 6   -781464.53822        19.750           1.969
  21890410.370   -11404132.084 6  -8757717.90922        19.000           1.563
  23205784.151    -4849855.375 5  -3607317.64321        10.250           0.438
  23348933.183    -4610551.245 5  -3427888.51121         8.000           0.281
 91  5 30 18 12 14.9990000  0  6G18G11G19G 2G16G 6
  21468447.847     5693296.577 7   4074809.14822        21.500           1.781
  22648381.558    -7129610.675 6  -5456732.52621        17.750           0.938
  20440309.003    -1030567.935 7   -780710.91822        20.750           1.906
  21882099.386   -11447813.449 6  -8791755.30022        18.750           1.656
  23203075.612    -4864096.031 5  -3618414.27321        10.500           0.344
  23341187.440    -4651271.600 5  -3459618.60221         9.250           0.406
 91  5 30 18 12 29.9990000  0  6G18G11G19G 2G16G 6
  21474890.136     5727155.940 7   4101193.02222        21.500           1.750
  22645142.573    -7146629.871 6  -5469994.20921        16.750           1.000
  20440502.753    -1029548.536 6   -779916.59522        19.500           1.906
  21873801.097   -11491425.030 6  -8825738.30422        19.500           1.594
  23200386.269    -4878201.700 5  -3629405.69921         9.750           0.313
  23333437.472    -4691977.924 5  -3491337.80121         8.750           0.406
 91  5 30 18 12 44.9990000  0  6G18G11G19G 2G16G 6
  21481351.269     5761102.650 7   4127644.95522        20.750           1.688
  22641929.597    -7163501.094 6  -5483140.60721        16.750           1.000
  20440708.519    -1028474.144 7   -779079.41222        20.500           1.844
  21865516.972   -11534963.960 6  -8859664.70222        19.500           1.750
  23197737.706    -4892169.637 5  -3640289.80821        10.750           0.438
  23325695.815    -4732667.475 5  -3523043.88121         9.500           0.438
 91  5 30 18 12 59.9990000  0  6G18G11G19G 2G16G 6
  21487826.980     5795131.735 7   4154161.07822        21.500           1.781
  22638748.433    -7180229.015 6  -5496175.33921        16.750           1.063
  20440922.706    -1027349.694 6   -778203.23222        19.750           1.969
  21857242.112   -11578435.133 6  -8893538.29822        19.000           1.781
  23195105.034    -4906005.043 5  -3651070.65321        11.000           0.469
  23317951.456    -4773345.123 5  -3554740.70021         8.500           0.375
 91  5 30 18 13 14.9990000  0  6G18G11G19G 2G16G 6
  21494317.698     5829246.388 7   4180743.87322        21.500           1.813
  22635592.190    -7196809.765 6  -5509095.38721        17.250           0.906
  20441143.776    -1026171.344 7   -777285.04122        20.500           1.938
  21848984.456   -11621834.733 6  -8927356.13122        19.000           1.719
  23192493.769    -4919704.128 5  -3661745.28021         9.750           0.500
  23310218.839    -4814007.194 5  -3586425.38821         9.000           0.344
 91  5 30 18 13 29.9990000  0  6G18G11G19G 2G16G 6
  21500826.105     5863445.814 7   4207392.73022        21.000           1.875
  22632469.034    -7213244.061 6  -5521901.30821        17.750           0.969
  20441382.550    -1024939.781 6   -776325.38522        19.750           1.938
  21840738.425   -11665163.578 6  -8961118.82622        19.250           1.719
  23189918.690    -4933267.708 5  -3672314.34021        10.500           0.438
  23302482.948    -4854654.590 5  -3618098.60721         8.250           0.406
 91  5 30 18 13 44.9990000  0  6G18G11G19G 2G16G 6
  21507350.058     5897727.506 7   4234105.68622        21.500           1.688
  22629366.980    -7229534.290 6  -5534594.97021        18.000           0.969
  20441623.206    -1023657.626 7   -775326.30722        20.250           1.938
  21832505.276   -11708424.027 6  -8994828.23322        18.750           1.625
  23187359.667    -4946698.278 5  -3682779.70321        10.500           0.438
  23294752.269    -4895289.756 5  -3649762.33321         9.250           0.406
 91  5 30 18 13 59.9990000  0  6G18G11G19G 2G16G 6
  21513890.456     5932097.790 7   4260887.68222        21.500           1.813
  22626294.769    -7245673.646 6  -5547171.08221        17.250           1.031
  20441879.550    -1022318.257 6   -774282.65022        19.500           1.969
  21824288.581   -11751609.334 6  -9028479.07422        19.000           1.688
  23184832.761    -4959989.109 5  -3693136.19621        10.500           0.563
  23287020.011    -4935906.138 5  -3681411.41921         8.750           0.344
 91  5 30 18 14 14.9990000  0  6G18G11G19G 2G16G 6
  21520447.753     5966550.969 7   4287734.26022        21.750           1.875
  22623249.175    -7261667.333 6  -5559633.68021        16.500           1.063
  20442143.417    -1020926.919 7   -773198.49722        20.750           1.906
  21816086.050   -11794724.827 6  -9062075.52222        19.750           1.750
  23182325.034    -4973145.886 5  -3703388.26621        10.500           0.563
  23279290.839    -4976509.035 5  -3713050.00921         8.500           0.406
 91  5 30 18 14 29.9990000  0  6G18G11G19G 2G16G 6
  21527017.542     6001088.339 7   4314646.44722        20.500           1.781
  22620238.355    -7277513.636 6  -5571981.41821        17.750           1.031
  20442422.573    -1019481.994 7   -772072.58622        20.000           1.906
  21807893.222   -11837768.886 6  -9095616.30922        19.250           1.719
  23179846.558    -4986166.922 5  -3713534.54521         9.250           0.469
  23271570.495    -5017097.087 5  -3744677.02721        10.250           0.469
 91  5 30 18 14 44.9980000  0  6G18G11G19G 2G16G 6
  21533605.686     6035707.547 7   4341622.40522        20.500           1.750
  22617249.670    -7293211.119 6  -5584213.20321        17.250           1.063
  20442703.170    -1017983.400 7   -770904.86222        20.500           1.844
  21799714.678   -11880738.150 6  -9129098.81022        18.750           1.688
  23177400.772    -4999050.934 5  -3723574.04721        10.250           0.438
  23263852.029    -5057667.301 5  -3776290.14021         9.750           0.438
 91  5 30 18 14 59.9980000  0  6G18G11G19G 2G16G 6
  21540211.256     6070414.850 7   4368667.00322        20.750           1.656
  22614289.943    -7308760.394 6  -5596329.50221        17.000           0.938
  20443003.725    -1016429.320 7   -769693.88722        20.000           1.906
  21791553.264   -11923636.777 6  -9162526.27222        19.250           1.688
  23174970.389    -5011798.138 5  -3733506.94921         9.750           0.406
  23256132.037    -5098223.649 5  -3807892.43421        10.500           0.281
 91  5 30 18 15 14.9980000  0  6G18G11G19G 2G16G 6
  21546830.264     6105201.931 7   4395773.77622        20.500           1.781
  22611355.990    -7324165.776 6  -5608333.67921        16.500           0.938
  20443304.568    -1014825.650 7   -768444.27722        20.750           1.938
  21783402.178   -11966467.509 6  -9195900.82422        19.750           1.781
  23172569.107    -5024413.520 5  -3743337.13221        11.000           0.406
  23248418.342    -5138769.033 5  -3839486.20521         9.500           0.313
 91  5 30 18 15 29.9980000  0  6G18G11G19G 2G16G 6
  21553466.248     6140075.081 7   4422947.59722        20.500           1.688
  22608457.772    -7339420.742 6  -5620220.65721        17.500           1.031
  20443620.576    -1013165.890 7   -767150.95822        20.000           1.938
  21775266.459   -12009223.951 6  -9229217.49722        19.250           1.719
  23170194.412    -5036890.616 5  -3753059.53721        10.000           0.469
  23240701.170    -5179297.165 5  -3871066.53421         9.500           0.469
 91  5 30 18 15 44.9980000  0  6G18G11G19G 2G16G 6
  21560119.178     6175029.817 7   4450185.00022        20.000           1.656
  22605583.045    -7354529.103 6  -5631993.38321        17.750           0.938
  20443947.490    -1011453.919 7   -765816.95822        21.000           1.875
  21767143.178   -12051909.924 6  -9262479.24822        19.500           1.781
  23167849.545    -5049233.560 5  -3762677.46021        11.000           0.313
  23232990.678    -5219811.971 5  -3902636.48721         9.250           0.500
 91  5 30 18 15 59.9980000  0  6G18G11G19G 2G16G 6
  21566786.209     6210069.181 7   4477488.35522        20.250           1.719
  22602733.311    -7369487.351 6  -5643649.14621        17.250           1.000
  20444287.912    -1009686.393 6   -764439.67722        18.500           1.969
  21759035.100   -12094521.861 7  -9295683.32122        20.750           1.813
  23165526.303    -5061438.985 5  -3772188.17521         9.750           0.375
  23225284.607    -5260310.017 5  -3934193.38321         9.250           0.500
 91  5 30 18 16 14.9980000  0  6G18G11G19G 2G16G 6
  21573468.303     6245191.988 6   4504856.71922        19.750           1.719
  22599917.600    -7384296.641 6  -5655188.83821        17.750           0.906
  20444629.818    -1007864.486 7   -763020.01122        20.500           1.938
  21750939.881   -12137060.943 6  -9328830.62522        19.750           1.938
  23163230.451    -5073507.954 5  -3781592.58221        10.750           0.438
  23217584.529    -5300792.608 5  -3965738.20221        10.250           0.469
 91  5 30 18 16 29.9980000  0  6G18G11G19G 2G16G 6
  21580172.107     6280397.713 7   4532289.70122        20.500           1.688
  22597124.943    -7398957.305 6  -5666612.72421        17.250           0.969
  20444988.686    -1005988.428 6   -761558.15522        19.750           1.938
  21742859.014   -12179527.567 6  -9361921.44922        19.500           1.750
  23160956.732    -5085441.064 5  -3790891.09821        10.750           0.406
  23209884.568    -5341260.243 5  -3997271.38321        10.500           0.563
 91  5 30 18 16 44.9980000  0  6G18G11G19G 2G16G 6
  21586884.576     6315683.804 6   4559785.29722        19.750           1.875
  22594365.506    -7413471.239 6  -5677922.26221        18.250           0.969
  20445354.576    -1004060.574 7   -760055.93822        21.000           1.906
  21734787.576   -12221923.749 6  -9394957.39622        18.250           1.813
  23158713.951    -5097240.796 5  -3800085.72721        11.000           0.438
  23202184.623    -5381714.991 5  -4028794.52921         9.500           0.438
 91  5 30 18 16 59.9980000  0  6G18G11G19G 2G16G 6
  21593615.287     6351052.836 7   4587345.51822        20.000           1.781
  22591629.334    -7427835.861 6  -5689115.45621        18.000           1.031
  20445731.748    -1002078.210 6   -758511.24422        19.750           1.906
  21726736.459   -12264246.804 6  -9427936.35822        19.750           1.750
  23156494.232    -5108904.189 5  -3809174.10821        10.250           0.438
  23194491.826    -5422154.446 5  -4060305.75621        10.250           0.375
 91  5 30 18 17 14.9980000  0  6G18G11G19G 2G16G 6
  21600359.686     6386502.312 6   4614968.43822        19.250           1.750
  22588926.217    -7442053.290 6  -5700193.95121        18.000           1.063
  20446115.686    -1000043.719 7   -756925.93022        20.750           1.875
  21718697.951   -12306499.076 6  -9460860.17522        19.250           1.719
  23154302.053    -5120433.614 5  -3818158.09121         9.750           0.500
  23186793.037    -5462580.782 5  -4091806.75821        10.250           0.375
 91  5 30 18 17 29.9980000  0  6G18G11G19G 2G16G 6
  21607123.756     6422034.774 7   4642656.01922        20.000           1.750
  22586249.342    -7456120.459 6  -5711155.37421        18.000           0.906
  20446521.209     -997954.127 7   -755297.67822        20.000           1.906
  21710673.061   -12348677.695 7  -9493726.57822        20.250           1.781
  23152125.459    -5131826.123 5  -3827035.38521         8.500           0.438
  23179104.795    -5502991.226 5  -4123295.36321        10.000           0.406
 91  5 30 18 17 44.9980000  0  6G18G11G19G 2G16G 6
  21613900.295     6457647.596 6   4670406.21422        19.750           1.656
  22583600.662    -7470039.484 6  -5722001.34221        18.000           1.031
  20446922.717     -995811.530 7   -753628.12822        20.250           1.969
  21702657.654   -12390784.645 7  -9526537.15922        20.000           1.875
  23149984.514    -5143083.995 5  -3835807.75821         8.750           0.438
  23171414.686    -5543387.926 5  -4154773.28821        10.250           0.344
 91  5 30 18 17 59.9980000  0  6G18G11G19G 2G16G 6
  21620690.623     6493340.248 6   4698218.60422        19.750           1.844
  22580978.256    -7483810.750 6  -5732732.18721        18.000           1.000
  20447343.373     -993616.310 7   -751917.57122        20.000           1.969
  21694657.107   -12432820.166 6  -9559292.07422        19.250           1.750
  23147869.365    -5154207.822 5  -3844475.72521         9.750           0.438
  23163737.397    -5583771.381 5  -4186240.87421        11.000           0.500
 91  5 30 18 18 14.9980000  0  6G18G11G19G 2G16G 6
  21627496.818     6529112.021 6   4726092.66822        19.750           1.781
  22578387.006    -7497434.621 6  -5743348.17821        17.500           1.000
  20447769.514     -991368.985 7   -750166.40822        20.750           1.875
  21686672.811   -12474784.786 6  -9591991.73822        19.250           1.688
  23145782.186    -5165198.166 5  -3853039.64121        10.500           0.344
  23156051.209    -5624142.070 5  -4217698.51421         9.750           0.438
 91  5 30 18 18 29.9980000  0  6G18G11G19G 2G16G 6
  21634321.225     6564963.488 6   4754028.81922        19.750           1.688
  22575820.068    -7510910.289 6  -5753848.68021        16.750           1.063
  20448208.115     -989068.825 7   -748374.07022        20.250           1.875
  21678699.029   -12516677.601 7  -9624635.45322        20.000           1.844
  23143716.154    -5176054.155 5  -3861498.85021        10.750           0.469
  23148372.779    -5664499.308 5  -4249145.67521        10.250           0.500
 91  5 30 18 18 44.9980000  0  6G18G11G19G 2G16G 6
  21641158.287     6600895.577 7   4782027.78522        20.000           1.625
  22573287.982    -7524236.503 6  -5764232.72921        17.500           1.125
  20448653.889     -986714.673 7   -746539.67322        20.750           1.938
  21670742.662   -12558497.437 6  -9657222.30822        19.750           1.656
  23141676.209    -5186774.762 5  -3869852.59621        10.500           0.375
  23140696.779    -5704842.082 5  -4280581.59121        10.000           0.469
 91  5 30 18 18 59.9980000  0  6G18G11G19G 2G16G 6
  21648012.178     6636909.155 7   4810090.25122        20.250           1.656
  22570779.107    -7537412.088 6  -5774499.39321        17.750           1.063
  20449116.568     -984305.437 6   -744662.34222        19.250           1.906
  21662798.115   -12600243.130 6  -9689751.37222        19.750           1.750
  23139659.686    -5197359.103 5  -3878100.14421        10.750           0.375
  23133017.147    -5745169.257 5  -4312005.30921        10.000           0.469
 91  5 30 18 19 14.9980000  0  6G18G11G19G 2G16G 6
  21654878.490     6673001.074 6   4838213.75822        19.500           1.625
  22568297.748    -7550439.756 6  -5784650.81721        17.750           1.063
  20449579.834     -981843.870 6   -742744.24522        19.750           1.938
  21654867.225   -12641917.556 6  -9722224.92422        19.750           1.875
  23137674.373    -5207810.176 5  -3886243.84521        10.750           0.469
  23125349.998    -5785483.725 5  -4343419.13821        11.500           0.313
 91  5 30 18 19 29.9980000  0  6G18G11G19G 2G16G 6
  21661761.850     6709174.561 6   4866400.83522        19.250           1.719
  22565850.686    -7563315.998 6  -5794684.22821        18.000           1.000
  20450061.912     -979326.502 6   -740782.66322        19.750           2.031
  21646951.115   -12683517.102 7  -9754640.12222        20.000           1.813
  23135707.615    -5218124.348 5  -3894280.88921        10.000           0.438
  23117683.928    -5825781.965 5  -4374820.34321        11.000           0.406
 91  5 30 18 19 44.9980000  0  6G18G11G19G 2G16G 6
  21668662.357     6745429.164 7   4894651.11022        20.000           1.563
  22563431.311    -7576040.927 6  -5804599.75321        17.500           1.125
  20450548.881     -976753.542 7   -738777.77122        20.500           2.000
  21639047.920   -12725041.865 6  -9786997.04922        19.500           1.875
  23133776.772    -5228302.082 5  -3902211.60521        10.000           0.438
  23110015.943    -5866064.319 5  -4406209.17321        10.250           0.313
 91  5 30 18 19 59.9980000  0  6G18G11G19G 2G16G 6
  21675577.912     6781764.557 6   4922964.34222        19.750           1.531
  22561036.482    -7588614.621 6  -5814397.41821        18.000           1.125
  20451053.936     -974125.202 6   -736729.71922        19.250           1.969
  21631161.256   -12766491.986 6  -9819295.80022        19.500           1.938
  23131858.029    -5238343.197 5  -3910035.87021         9.250           0.406
  23102359.053    -5906331.009 5  -4437585.75221        11.250           0.438
 91  5 30 18 20 14.9980000  0  6G18G11G19G 2G16G 6
  21682507.795     6818179.490 7   4951339.55422        20.000           1.531
  22558673.420    -7601037.956 6  -5824077.93421        18.250           1.094
  20451560.701     -971442.324 7   -734639.17522        21.000           1.969
  21623285.537   -12807868.454 6  -9851537.16622        18.750           1.938
  23129975.154    -5248248.943 5  -3917754.63621         9.750           0.469
  23094691.326    -5946582.976 5  -4468950.89621        10.000           0.406
 91  5 30 18 20 29.9980000  0  6G18G11G19G 2G16G 6
  21689452.240     6854674.264 6   4979776.98021        19.750           1.438
  22556330.365    -7613310.406 6  -5833640.86521        17.250           1.031
  20452084.607     -968704.559 7   -732505.85322        20.000           2.031
  21615427.936   -12849170.737 6  -9883720.73022        19.500           1.844
  23128115.420    -5258018.878 5  -3925367.60121        10.250           0.375
  23087031.139    -5986819.838 5  -4500304.24521        10.250           0.469
 91  5 30 18 20 44.9980000  0  6G18G11G19G 2G16G 6
  21696412.287     6891248.069 6   5008275.99122        19.750           1.531
  22554030.232    -7625432.444 6  -5843086.60321        17.250           0.969
  20452612.428     -965912.288 7   -730330.06922        20.750           2.000
  21607582.811   -12890399.292 7  -9915846.85322        20.000           2.000
  23126277.420    -5267653.999 5  -3932875.49721         9.000           0.438
  23079385.022    -6027042.129 5  -4531646.26621        11.000           0.375
 91  5 30 18 20 59.9980000  0  6G18G11G19G 2G16G 6
  21703384.545     6927896.496 6   5036833.15021        19.000           1.469
  22551748.717    -7637407.849 6  -5852418.08221        16.750           0.906
  20453154.522     -963069.516 7   -728114.93122        20.000           1.938
  21599751.545   -12931557.911 7  -9947918.47422        20.250           1.875
  23124477.967    -5277158.002 5  -3940281.24221        10.500           0.406
  23071729.084    -6067253.826 5  -4562980.02421        10.750           0.500
 91  5 30 18 21 14.9980000  0  6G18G11G19G 2G16G 6
  21710375.623     6964626.423 6   5065453.80922        19.000           1.531
  22549500.615    -7649229.450 6  -5861629.71321        17.500           0.906
  20453705.795     -960169.100 7   -725854.87122        20.750           2.000
  21591933.178   -12972639.534 7  -9979930.09622        20.250           1.906
  23122692.678    -5286523.887 5  -3947579.35421        10.250           0.344
  23064079.178    -6107447.934 5  -4594300.06621        10.000           0.375
 91  5 30 18 21 29.9980000  0  6G18G11G19G 2G16G 6
  21717377.014     7001436.537 6   5094136.94621        18.750           1.438
  22547279.647    -7660898.570 6  -5870722.52121        17.750           0.938
  20454272.850     -957212.404 6   -723550.96222        19.750           1.938
  21584129.420   -13013645.401 6 -10011882.69322        19.750           1.875
  23120940.615    -5295753.384 6  -3954771.17421        12.000           0.375
  23056441.084    -6147625.743 5  -4625607.43321         9.750           0.375
 91  5 30 18 21 44.9980000  0  6G18G11G19G 2G16G 6
  21724399.326     7038322.154 6   5122878.93421        19.250           1.438
  22545086.928    -7672419.469 6  -5879699.82921        17.500           0.969
  20454841.115     -954203.887 7   -721206.66722        20.000           2.000
  21576341.475   -13054579.981 7 -10043779.73622        20.500           1.875
  23119207.529    -5304850.572 5  -3961859.88421        11.250           0.438
  23048792.607    -6187791.802 5  -4656905.61321        10.000           0.313
 91  5 30 18 21 59.9980000  0  6G18G11G19G 2G16G 6
  21731431.389     7075287.516 6   5151683.06121        18.250           1.344
  22542925.553    -7683787.611 6  -5888558.12121        17.500           1.125
  20455424.842     -951138.863 6   -718818.34122        19.000           2.000
  21568567.537   -13095438.613 7 -10075617.59522        21.000           1.938
  23117503.006    -5313810.564 5  -3968841.73521        11.000           0.375
  23041153.209    -6227941.521 5  -4688191.07121        10.500           0.375
 91  5 30 18 22 14.9980000  0  6G18G11G19G 2G16G 6
  21738480.342     7112329.222 6   5180546.67021        18.250           1.438
  22540792.022    -7695005.911 6  -5897299.64721        18.000           1.000
  20456017.404     -948020.382 7   -716388.36622        20.250           1.969
  21560804.272   -13136224.203 7 -10107398.54422        20.750           1.906
  23115824.756    -5322637.153 5  -3975719.60421        10.500           0.406
  23033513.029    -6268077.851 5  -4719466.10521        10.000           0.313
 91  5 30 18 22 29.9980000  0  6G18G11G19G 2G16G 6
  21745546.084     7149445.817 6   5209468.63721        18.750           1.469
  22538683.381    -7706075.444 6  -5905925.24521        18.250           1.000
  20456620.654     -944849.445 6   -713917.50922        19.500           2.031
  21553054.084   -13176937.986 7 -10139123.55022        20.000           1.781
  23114165.607    -5331331.383 5  -3982494.34321        10.000           0.438
  23025877.897    -6308202.096 5  -4750731.69421         9.750           0.469
 91  5 30 18 22 44.9980000  0  6G18G11G19G 2G16G 6
  21752622.803     7186640.960 6   5238451.79821        18.000           1.438
  22536606.193    -7716992.392 6  -5914431.94721        17.500           1.063
  20457236.217     -941622.514 7   -711403.02322        21.250           1.969
  21545323.365   -13217576.004 7 -10170789.50622        20.750           1.844
  23112538.279    -5339889.597 5  -3989163.09021         9.500           0.406
  23018249.482    -6348310.607 5  -4781985.04721        10.250           0.344
 91  5 30 18 22 59.9980000  0  6G18G11G19G 2G16G 6
  21759715.201     7223913.828 6   5267495.52921        18.500           1.438
  22534559.350    -7727757.256 6  -5922820.14221        17.750           1.063
  20457861.240     -938340.029 7   -708845.25222        20.000           2.094
  21537603.654   -13258138.666 7 -10202396.74722        21.000           1.781
  23110935.420    -5348312.634 5  -3995726.53621         9.750           0.406
  23010617.217    -6388403.826 5  -4813226.48521        10.000           0.375
 91  5 30 18 23 14.9980000  0  6G18G11G19G 2G16G 6
  21766825.256     7261262.162 6   5296598.07521        18.250           1.375
  22532539.147    -7738371.990 6  -5931091.35821        18.250           1.031
  20458494.334     -935004.072 7   -706245.81122        21.000           2.031
  21529898.881   -13298628.056 7 -10233946.89722        20.500           1.969
  23109360.936    -5356602.361 5  -4002186.07521        10.500           0.500
  23002991.029    -6428483.879 5  -4844457.66521        10.250           0.406
 91  5 30 18 23 29.9980000  0  6G18G11G19G 2G16G 6
  21773943.717     7298686.589 6   5325759.89921        17.750           1.281
  22530545.326    -7748835.816 6  -5939244.98321        18.500           1.000
  20459143.623     -931613.819 6   -703604.06622        19.250           1.969
  21522210.420   -13339043.378 7 -10265439.32222        20.750           2.125
  23107806.693    -5364758.071 5  -4008541.20521        10.500           0.500
  22995370.006    -6468550.059 5  -4875678.00921        10.250           0.469
 91  5 30 18 23 44.9980000  0  6G18G11G19G 2G16G 6
  21781078.482     7336187.778 6   5354981.54321        18.000           1.250
  22528583.631    -7759147.500 6  -5947280.04421        18.000           1.031
  20459796.967     -928168.085 7   -700919.08822        21.000           2.156
  21514533.123   -13379383.446 7 -10296873.11122        20.750           1.969
  23106279.420    -5372778.872 5  -4014791.19321         9.750           0.469
  22987746.139    -6508601.194 5  -4906886.65421         9.500           0.375
 91  5 30 18 23 59.9980000  0  6G18G11G19G 2G16G 6
  21788229.357     7373762.213 6   5384260.26621        17.750           1.250
  22526648.061    -7769310.202 6  -5955199.02821        17.250           1.063
  20460465.217     -924669.925 6   -698193.26022        19.500           2.031
  21506868.982   -13419651.399 7 -10328250.70722        20.750           2.094
  23104775.834    -5380668.137 5  -4020938.66821         9.000           0.438
  22980129.631    -6548640.633 5  -4938086.19421        11.000           0.344
 91  5 30 18 24 14.9980000  0  6G18G11G19G 2G16G 6
  21795398.061     7411412.730 6   5413598.26921        18.000           1.219
  22524744.537    -7779320.847 6  -5962999.53421        17.250           1.063
  20461137.787     -921116.476 7   -695424.34422        20.750           2.000
  21499221.725   -13459844.171 7 -10359569.72122        21.000           2.031
  23103304.811    -5388422.789 5  -4026981.25621        10.250           0.375
  22972509.701    -6588665.461 5  -4969274.32921        10.000           0.313
 91  5 30 18 24 29.9980000  0  6G18G11G19G 2G16G 6
  21802574.990     7449139.400 6   5442995.61421        18.250           1.250
  22522867.225    -7789179.271 6  -5970681.41921        17.250           1.156
  20461827.264     -917507.571 7   -692612.22122        20.000           1.969
  21491588.764   -13499961.662 7                        21.000
  23101851.897    -5396042.647 5  -4032918.84821         9.750           0.531
  22964893.670    -6628675.410 5                        10.500
 91  5 30 18 24 44.9980000  0  6G18G11G19G 2G16G 6
  21809769.443     7486943.590 6   5472453.35821        18.500           1.250
  22521020.350    -7798883.805 6  -5978243.38421        17.750           1.063
  20462521.389     -913841.424 7   -689755.48822        20.000           1.969
  21483969.100   -13540002.111 7                        20.500
  23100425.779    -5403526.341 5  -4038750.33121         9.750           0.469
  22957287.295    -6668668.869 5                        11.000
 91  5 30 18 24 59.9980000  0  6G18G11G19G 2G16G 6
  21816977.850     7524820.392 6   5501967.69121        19.000           1.313
  22519202.147    -7808438.925 6  -5985688.92421        17.250           0.969
  20463230.576     -910122.633 6   -686857.74222        19.500           2.094
  21476361.201   -13579970.131 7                        20.500
  23099025.482    -5410878.558 5  -4044479.32321         8.750           0.500
  22949677.600    -6708650.463 5                        11.000
 91  5 30 18 25 14.9980000  0  6G18G11G19G 2G16G 6
  21824199.998     7562774.680 6   5531542.39421        18.000           1.344
  22517410.568    -7817839.459 6  -5993014.00721        17.250           1.063
  20463948.865     -906346.091 7   -683914.99722        20.750           2.031
  21468771.482   -13619860.541 7 -10484257.69022        20.750           2.000
  23097655.529    -5418094.085 5  -4050101.84121         9.500           0.500
  22942070.553    -6748615.109 5  -5093910.25021        10.250           0.469
 91  5 30 18 25 29.9980000  0  6G18G11G19G 2G16G 6
  21831436.193     7600805.458 6   5561176.69921        17.750           1.250
  22515655.803    -7827086.030 6  -6000219.12421        18.000           1.188
  20464678.889     -902512.671 7   -680927.92722        20.000           1.875
  21461194.959   -13659673.937 7 -10515281.08022        21.250           2.000
  23096311.115    -5425173.801 5  -4055618.48821         9.750           0.500
  22934469.404    -6788563.686 5  -5125038.95421        10.250           0.406
 91  5 30 18 25 44.9980000  0  6G18G11G19G 2G16G 6
  21838687.404     7638908.094 6   5590867.00021        17.500           1.250
  22513928.873    -7836182.833 6  -6007307.54021        18.500           1.063
  20465414.467     -898626.314 7   -677899.60422        20.250           1.844
  21453631.201   -13699414.452 7 -10546247.68522        20.750           1.906
  23094986.561    -5432121.839 5  -4061032.57821        10.500           0.438
  22926867.123    -6828500.250 5  -5156158.35621        10.750           0.406
 91  5 30 18 25 59.9980000  0  6G18G11G19G 2G16G 6
  21845955.162     7677087.323 6   5620616.97421        17.750           1.406
  22512219.412    -7845125.094 6  -6014275.52321        17.000           1.063
  20466169.186     -894682.266 6   -674826.32622        19.750           1.938
  21446084.584   -13739077.290 7 -10577153.76722        21.500           1.844
  23093690.818    -5438933.703 5  -4066340.54221        10.500           0.469
  22919275.248    -6868420.129 5  -5187264.71621        11.500           0.375
 91  5 30 18 26 14.9980000  0  6G18G11G19G 2G16G 6
  21853229.623     7715339.269 6   5650423.61721        17.250           1.344
  22510548.803    -7853916.480 6  -6021125.95321        17.000           1.094
  20466927.381     -890684.444 7   -671711.14822        20.750           2.063
  21438553.131   -13778666.065 7 -10608002.13222        21.500           1.875
  23092418.982    -5445613.481 5  -4071545.60421        10.500           0.406
  22911672.545    -6908327.081 5  -5218360.99821        10.250           0.438
 91  5 30 18 26 29.9980000  0  6G18G11G19G 2G16G 6
  21860522.467     7753663.871 6   5680286.88721        17.250           1.313
  22508906.975    -7862556.650 6  -6027858.54721        17.250           1.000
  20467700.240     -886632.320 6   -668553.67022        19.500           1.969
  21431032.475   -13818180.557 7 -10638792.61522        21.500           1.813
  23091172.818    -5452160.662 5  -4076647.30221        10.750           0.500
  22904087.100    -6948220.710 5  -5249446.90521        10.750           0.469
 91  5 30 18 26 44.9980000  0  6G18G11G19G 2G16G 6
  21867833.326     7792064.924 6   5710209.71121        17.500           1.281
  22507290.803    -7871041.459 6  -6034470.09221        17.250           0.938
  20468481.772     -882521.797 7   -665350.67522        20.500           2.063
  21423526.772   -13857616.530 7 -10669521.93322        21.000           1.781
  23089949.553    -5458571.544 5  -4081642.80121        10.000           0.469
  22896504.147    -6988097.020 6  -5280519.30521        12.000           0.469
 91  5 30 18 26 59.9980000  0  6G18G11G19G 2G16G 6
  21875154.600     7830540.322 6   5740190.47821        17.500           1.281
  22505707.818    -7879372.843 6  -6040962.08021        17.750           1.063
  20469276.865     -878354.900 6   -662103.76122        19.500           2.031
  21416038.217   -13896975.948 7 -10700191.58022        21.250           1.813
  23088756.834    -5464847.830 5  -4086533.41721        10.250           0.469
  22888909.865    -7027958.084 5  -5311579.87521        10.750           0.438
 91  5 30 18 27 14.9980000  0  6G18G11G19G 2G16G 6
  21882489.147     7869087.685 6   5770227.30921        17.750           1.250
  22504150.326    -7887552.772 6  -6047336.04921        17.500           1.125
  20470078.068     -874133.489 7   -658814.36522        20.250           1.969
  21408562.178   -13936260.740 7 -10730803.07722        21.500           1.906
  23087588.748    -5470991.957 5  -4091321.06321        10.000           0.500
  22881330.514    -7067805.864 5  -5342630.05421        11.500           0.375
 91  5 30 18 27 29.9980000  0  6G18G11G19G 2G16G 6
  21889839.357     7907705.878 6   5800319.34421        17.250           1.250
  22502623.154    -7895582.348 6  -6053592.86521        18.500           1.031
  20470893.381     -869858.667 6   -655483.35822        19.250           1.938
  21401100.475   -13975471.924 7 -10761357.21122        21.500           1.906
  23086449.326    -5477004.990 5  -4096006.56921        10.250           0.375
  22873752.897    -7107641.522 6  -5373670.77321        12.000           0.469
 91  5 30 18 27 44.9980000  0  6G18G11G19G 2G16G 6
  21897199.607     7946397.768 6   5830468.79321        17.250           1.313
  22501121.014    -7903458.261 6  -6059729.94421        18.250           0.969
  20471715.303     -865527.283 7   -652108.26222        20.250           1.938
  21393653.232   -14014606.353 7 -10791851.55022        20.750           1.969
  23085329.311    -5482883.761 5  -4100587.45121        10.000           0.406
  22866172.342    -7147461.905 5  -5404699.60721        11.500           0.500
 91  5 30 18 27 59.9980000  0  6G18G11G19G 2G16G 6
  21904578.178     7985160.981 6   5860673.82921        17.500           1.281
  22499653.045    -7911182.302 6  -6065748.68421        18.000           1.031
  20472552.248     -861141.189 7   -648690.54322        20.250           1.938
  21386220.076   -14053665.782 7 -10822287.44022        21.250           2.031
  23084233.537    -5488630.283 5  -4105065.27621        10.000           0.281
  22858597.709    -7187268.836 5  -5435717.95821        11.500           0.500
 91  5 30 18 28 14.9980000  0  6G18G11G19G 2G16G 6
  21911965.498     8023997.017 6   5890935.60521        17.000           1.313
  22498211.475    -7918753.014 6  -6071647.94421        18.500           0.969
  20473395.904     -856699.041 7   -645229.14022        20.750           2.063
  21378801.764   -14092648.610 7 -10852663.63922        21.000           1.938
  23083162.490    -5494243.173 5  -4109438.96621         9.750           0.313
  22851022.443    -7227060.954 5  -5466724.77721        10.750           0.594
 91  5 30 18 28 29.9980000  0  6G18G11G19G 2G16G 6
  21919373.264     8062906.149 6   5921254.33321        17.750           1.188
  22496800.522    -7926169.610 6  -6077427.10921        18.000           1.000
  20474257.561     -852199.835 6   -641723.27322        19.000           2.063
  21371395.904   -14131553.967 7 -10882979.46422        20.750           1.969
  23082127.615    -5499721.503 5  -4113707.82821        10.000           0.375
  22843456.623    -7266837.402 5  -5497719.39421        10.750           0.438
 91  5 30 18 28 44.9980000  0  6G18G11G19G 2G16G 6
  21926789.568     8101890.217 6   5951631.45921        17.500           1.094
  22495420.842    -7933429.939 6  -6083084.51921        18.000           1.125
  20475117.951     -847641.452 7   -638171.29922        20.250           2.000
  21364010.990   -14170379.801 7 -10913233.33422        21.000           1.875
  23081105.678    -5505063.542 5  -4117870.46521         9.250           0.438
  22835889.662    -7306596.198 5  -5528700.22321        11.750           0.438
 91  5 30 18 28 59.9980000  0  6G18G11G19G 2G16G 6
  21934224.115     8140943.167 6   5982062.25421        17.500           1.125
  22494067.686    -7940539.846 6  -6088624.69921        17.750           1.031
  20475998.014     -843029.594 6   -634577.65622        19.750           2.000
  21356635.990   -14209132.034 7 -10943429.86622        21.250           1.844
  23080117.475    -5510275.497 5  -4121931.73921         9.500           0.469
  22828327.772    -7346343.123 5  -5559671.84021        11.500           0.563
 91  5 30 18 29 14.9980000  0  6G18G11G19G 2G16G 6
  21941665.326     8180064.147 6   6012546.06221        17.250           1.219
  22492741.756    -7947499.866 6  -6094048.09221        17.750           1.031
  20476884.857     -838365.053 7   -630942.96722        20.500           2.000
  21349273.412   -14247811.196 7 -10973569.44322        21.250           1.938
  23079146.576    -5515358.044 5  -4125892.19121         9.500           0.344
  22820765.857    -7386078.899 5  -5590634.73921        11.250           0.469
 91  5 30 18 29 29.9980000  0  6G18G11G19G 2G16G 6
  21949123.725     8219258.183 6   6043086.79921        17.500           1.125
  22491445.764    -7954304.741 6  -6099350.60021        17.500           0.969
  20477785.217     -833642.484 7   -627263.05422        20.250           1.906
  21341929.045   -14286412.018 7 -11003647.97322        20.750           2.000
  23078211.139    -5520305.804 5  -4129747.63421        10.250           0.375
  22813207.459    -7425798.258 5  -5621584.86421        10.750           0.438
 91  5 30 18 29 44.9980000  0  6G18G11G19G 2G16G 6
  21956596.693     8258525.481 6   6073684.61421        17.500           1.219
  22490180.975    -7960954.158 6  -6104531.96421        17.750           1.000
  20478693.053     -828861.525 7   -623537.64922        20.500           1.938
  21334598.209   -14324934.136 7 -11033665.18722        20.500           1.938
  23077289.553    -5525118.662 5  -4133497.94921         9.500           0.500
  22805649.467    -7465500.819 5  -5652521.89021        11.500           0.500
 91  5 30 18 29 59.9980000  0  6G18G11G19G 2G16G 6
  21964085.420     8297864.823 6   6104338.56921        17.500           1.125
  22488945.092    -7967448.889 6  -6109592.79421        17.500           1.125
  20479616.998     -824022.878 6   -619767.28722        19.000           1.844
  21327284.154   -14363378.296 7 -11063621.63922        21.500           1.875
  23076400.037    -5529797.782 5  -4137144.02221         9.750           0.406
  22798101.529    -7505187.526 6  -5683446.55021        12.500           0.563
 91  5 30 18 30 14.9980000  0  6G18G11G19G 2G16G 6
  21971583.943     8337279.489 6   6135051.21821        17.500           1.094
  22487740.725    -7973785.376 6  -6114530.32121        17.250           1.094
  20480546.162     -819123.172 7   -615949.35122        20.250           1.969
  21319985.584   -14401740.942 7 -11093514.58722        22.250           2.000
  23075532.717    -5534339.717 5  -4140683.21221         9.750           0.281
  22790554.811    -7544854.862 5  -5714356.15221        11.250           0.531
 91  5 30 18 30 29.9980000  0  6G18G11G19G 2G16G 6
  21979101.850     8376766.262 6   6165820.06221        18.000           1.094
  22486564.178    -7979966.640 6  -6119346.90321        17.250           1.000
  20481490.693     -814165.172 6   -612085.98222        19.250           1.875
  21312700.256   -14440025.046 7 -11123346.33022        22.000           1.875
  23074694.272    -5538747.512 5  -4144117.87521         9.750           0.375
  22783011.592    -7584505.711 5  -5745252.87721        11.750           0.594
 91  5 30 18 30 44.9980000  0  6G18G11G19G 2G16G 6
  21986625.522     8416321.635 6   6196642.34721        17.500           1.156
  22485415.623    -7985996.020 6  -6124045.13021        17.500           1.031
  20482444.967     -809152.239 7   -608179.82022        21.000           2.000
  21305428.217   -14478233.709 7 -11153119.29322        21.250           1.938
  23073885.506    -5543024.535 5  -4147450.64121         9.250           0.344
  22775465.436    -7624143.475 5  -5776139.40521        11.000           0.469
 91  5 30 18 30 59.9980000  0  6G18G11G19G 2G16G 6
  21994166.943     8455944.291 6   6227517.06821        18.000           1.094
  22484299.467    -7991874.540 6  -6128625.79421        18.000           1.188
  20483409.397     -804085.604 7   -604231.80222        20.250           2.031
  21298169.607   -14516368.251 7 -11182834.49022        21.000           2.000
  23073094.186    -5547171.783 5  -4150682.28221        10.250           0.344
  22767920.217    -7663769.257 5  -5807016.63421        10.250           0.500
 91  5 30 18 31 14.9980000  0  6G18G11G19G 2G16G 6
  22001719.600     8495637.776 6   6258446.98221        17.750           1.156
  22483206.475    -7997598.143 6  -6133085.74621        17.250           1.156
  20484382.147     -798961.198 7   -600238.77122        20.250           1.969
  21290929.443   -14554424.518 7 -11212488.70122        21.500           2.125
  23072332.459    -5551185.390 5  -4153809.78421        10.750           0.438
  22760388.490    -7703379.206 5  -5837881.47521        11.750           0.500
 91  5 30 18 31 29.9980000  0  6G18G11G19G 2G16G 6
  22009286.865     8535402.310 6   6289432.25221        17.000           1.219
  22482148.717    -8003166.449 6  -6137424.69721        17.750           1.094
  20485374.811     -793778.552 6   -596200.35422        19.500           2.000
  21283702.834   -14592401.943 7 -11242081.46722        22.500           2.063
  23071593.451    -5555065.497 5  -4156833.29121        10.750           0.344
  22752848.436    -7742972.818 5  -5868733.62121        10.250           0.500
 91  5 30 18 31 44.9980000  0  6G18G11G19G 2G16G 6
  22016867.717     8575236.443 6   6320471.75321        17.250           1.156
  22481119.217    -8008580.556 6  -6141643.48821        18.250           1.063
  20486365.162     -788538.693 7   -592117.35822        20.250           1.906
  21276488.982   -14630301.515 7 -11271613.57622        21.250           2.063
  23070875.045    -5558812.919 5  -4159753.36021         9.250           0.500
  22745315.272    -7782551.172 5  -5899573.86521        11.000           0.500
 91  5 30 18 31 59.9980000  0  6G18G11G19G 2G16G 6
  22024456.811     8615137.630 6   6351563.50821        16.250           1.094
  22480117.607    -8013842.843 6  -6145743.98121        18.250           1.063
  20487375.889     -783243.947 7   -587991.59522        20.000           1.906
  21269292.037   -14668125.646 7 -11301086.89422        21.750           2.188
  23070192.272    -5562430.391 5  -4162572.19621        10.000           0.406
  22737792.256    -7822116.795 6  -5930404.17721        12.000           0.563
 91  5 30 18 32 14.9980000  0  6G18G11G19G 2G16G 6
  22032065.717     8655107.597 6   6382708.85421        16.750           1.094
  22479143.209    -8018951.417 6  -6149724.68821        18.000           1.094
  20488390.420     -777892.424 7   -583821.59522        20.000           1.938
  21262110.139   -14705872.340 7 -11330499.89422        22.250           2.063
  23069525.381    -5565916.026 5  -4165288.27921        10.000           0.469
  22730264.225    -7861667.665 5  -5961223.01521        11.250           0.563
 91  5 30 18 32 29.9980000  0  6G18G11G19G 2G16G 6
  22039682.209     8695144.380 6   6413906.25121        16.750           1.188
  22478206.006    -8023908.060 6  -6153587.01021        19.000           1.031
  20489422.865     -772485.895 6   -579608.72722        18.500           2.000
  21254940.701   -14743543.359 7 -11359853.90822        22.000           1.969
  23068889.600    -5569271.727 5  -4167903.14921        11.500           0.438
  22722738.709    -7901205.599 5  -5992031.75921        11.750           0.594
 91  5 30 18 32 44.9980000  0  6G18G11G19G 2G16G 6
  22047316.498     8735252.596 6   6445159.32421        17.250           1.125
  22477288.662    -8028707.653 6  -6157326.96021        17.750           1.031
  20490461.584     -767019.189 6   -575348.97322        19.750           1.844
  21247785.506   -14781133.704 7 -11389145.06222        21.750           1.969
  23068275.131    -5572492.840 5  -4170413.12021        10.500           0.531
  22715219.201    -7940725.541 5  -6022826.47521        11.250           0.625
 91  5 30 18 32 59.9980000  0  6G18G11G19G 2G16G 6
  22054962.217     8775432.078 6   6476467.92221        16.750           1.156
  22476407.459    -8033350.170 6  -6160944.51021        18.750           1.094
  20491517.365     -761492.185 6   -571042.23822        19.750           1.969
  21240648.889   -14818643.397 7 -11418373.36622        21.500           2.094
  23067687.826    -5575578.899 5  -4172817.86621        10.250           0.438
  22707702.795    -7980227.469 5  -6053607.19421        11.250           0.594
 91  5 30 18 33 14.9980000  0  6G18G11G19G 2G16G 6
  22062619.709     8815679.269 6   6507829.28221        16.500           1.156
  22475548.576    -8037838.906 6  -6164442.23321        18.250           1.031
  20492575.545     -755908.296 7   -566691.17022        20.500           1.844
  21233525.420   -14856075.623 7 -11447541.31122        21.500           2.219
  23067125.857    -5578533.623 5  -4175120.25921         9.500           0.438
  22700185.607    -8019714.790 5  -6084376.48921        11.500           0.563
 91  5 30 18 33 29.9980000  0  6G18G11G19G 2G16G 6
  22070291.662     8855992.602 6   6539242.19121        15.500           1.094
  22474728.248    -8042175.218 6  -6167821.17421        18.500           1.031
  20493649.514     -750268.869 6   -562296.83422        19.500           1.781
  21226418.123   -14893431.754 7 -11476649.95622        22.250           2.094
  23066589.084    -5581358.620 5  -4177321.57721        10.750           0.406
  22692675.193    -8059188.900 5  -6115135.51321        11.500           0.531
 91  5 30 18 33 44.9980000  0  6G18G11G19G 2G16G 6
  22077973.654     8896373.022 6   6570707.35321        15.000           1.125
  22473930.014    -8046357.926 6  -6171080.44021        18.000           1.094
  20494733.068     -744572.806 7   -557858.34922        20.750           1.844
  21219322.264   -14930710.709 7 -11505698.47222        21.750           2.000
  23066071.529    -5584053.215 5  -4179421.28821         9.750           0.469
  22685168.443    -8098648.534 6  -6145883.25321        12.500           0.531
 91  5 30 18 33 59.9980000  0  6G18G11G19G 2G16G 6
  22085678.834     8936820.410 6   6602224.71421        16.750           1.156
  22473165.248    -8050386.737 6  -6174219.78321        18.000           1.000
  20495831.623     -738819.481 6   -553375.25822        19.250           1.688
  21212244.467   -14967911.880 7 -11534686.37222        22.250           2.000
  23065586.553    -5586616.976 5  -4181419.04321        10.250           0.438
  22677657.865    -8138093.342 5  -6176619.43421        11.750           0.531
 91  5 30 18 34 14.9980000  0  6G18G11G19G 2G16G 6
  22093383.857     8977336.501 6   6633795.60821        16.000           1.094
  22472424.662    -8054259.908 6  -6177237.84121        17.750           1.094
  20496934.193     -733007.061 7   -548846.11522        20.500           1.781
  21205181.014   -15005033.192 7 -11563612.04322        22.000           2.063
  23065127.436    -5589047.816 5  -4183313.21921        10.750           0.406
  22670159.881    -8177521.568 6  -6207342.71021        12.250           0.531
 91  5 30 18 34 29.9980000  0  6G18G11G19G 2G16G 6
  22101105.600     9017918.713 6   6665418.01221        16.000           0.969
  22471720.061    -8057979.629 6  -6180136.32321        18.250           1.000
  20498053.920     -727137.855 6   -544272.72322        19.750           1.906
  21198133.326   -15042076.969 7 -11592477.30022        22.250           2.094
  23064689.272    -5591348.523 5  -4185106.00121         9.500           0.406
  22662662.022    -8216935.470 6  -6238054.79021        12.500           0.531
 91  5 30 18 34 44.9980000  0  6G18G11G19G 2G16G 6
  22108840.256     9058565.212 6   6697090.53321        15.750           1.000
  22471039.076    -8061547.436 6  -6182916.43421        17.750           0.969
  20499177.365     -721213.434 7   -539656.30722        20.500           1.906
  21191096.490   -15079044.749 7 -11621283.34122        22.000           2.250
  23064270.678    -5593520.422 5  -4186798.39021         8.500           0.281
  22655161.928    -8256336.481 6  -6268756.86021        12.500           0.469
 91  5 30 18 34 59.9980000  0  6G18G11G19G 2G16G 6
  22116587.100     9099274.360 6   6728811.85021        15.750           1.063
  22470388.389    -8064964.785 6  -6185579.31121        18.500           1.125
  20500318.826     -715235.039 7   -534997.82822        20.250           1.969
  21184076.943   -15115938.040 7 -11650031.33322        22.000           2.313
  23063885.522    -5595565.304 5  -4188391.84021         9.500           0.344
  22647664.272    -8295726.074 5  -6299450.02521        11.250           0.500
 91  5 30 18 35 14.9980000  0  6G18G11G19G 2G16G 6
  22124350.959     9140055.122 6   6760588.97621        16.500           1.063
  22469766.967    -8068222.487 6  -6188117.79421        17.500           1.000
  20501464.201     -709193.446 7   -530290.11122        20.250           2.031
  21177073.365   -15152747.629 7 -11678714.10322        22.500           2.219
  23063521.561    -5597474.222 5  -4189879.33821         9.250           0.313
  22640169.600    -8335095.244 5  -6330127.26921        11.750           0.469
 91  5 30 18 35 29.9980000  0  6G18G11G19G 2G16G 6
  22132121.857     9180901.530 6   6792417.24821        15.750           1.063
  22469178.061    -8071326.321 6  -6190536.37621        19.000           0.969
  20502627.842     -703094.582 6   -525537.76122        19.500           1.938
  21170082.756   -15189479.325 7 -11707336.18022        22.250           2.281
  23063186.404    -5599252.944 5  -4191265.40121        10.250           0.313
  22632681.279    -8374449.621 5  -6360792.99821        11.000           0.500
 91  5 30 18 35 44.9980000  0  6G18G11G19G 2G16G 6
  22139905.139     9221810.879 6   6824294.56521        16.000           1.094
  22468617.092    -8074278.607 6  -6192836.85921        18.000           1.000
  20503794.256     -696940.668 6   -520742.52422        19.750           2.000
  21163107.248   -15226135.226 7 -11735899.19822        22.750           2.250
  23062868.842    -5600903.944 5  -4192551.89421         9.750           0.344
  22625205.178    -8413791.509 6  -6391448.97721        12.500           0.531
 91  5 30 18 35 59.9980000  0  6G18G11G19G 2G16G 6
  22147700.428     9262785.424 6   6856222.69721        16.000           1.094
  22468084.186    -8077076.662 6  -6195017.16621        18.250           1.000
  20504985.678     -690728.846 6   -515902.16122        18.750           1.969
  21156146.428   -15262712.653 7 -11764401.07222        22.250           2.156
  23062583.615    -5602424.824 5  -4193737.01921        10.000           0.375
  22617717.717    -8453118.257 6  -6422093.18821        12.250           0.531
 91  5 30 18 36 14.9980000  0  6G18G11G19G 2G16G 6
  22155512.693     9303824.367 6   6888201.00021        16.000           1.156
  22467579.631    -8079721.276 6  -6197077.90721        18.750           1.094
  20506171.092     -684459.905 7   -511017.29422        20.000           1.969
  21149198.818   -15299212.301 7 -11792842.33122        21.750           2.156
  23062315.529    -5603816.256 5  -4194821.24721         9.250           0.406
  22610234.522    -8492430.596 6  -6452726.14521        12.500           0.594
 91  5 30 18 36 29.9980000  0  6G18G11G19G 2G16G 6
  22163336.209     9344925.952 6   6920228.10021        17.000           1.125
  22467106.201    -8082214.129 6  -6199020.40921        18.750           1.063
  20507378.803     -678135.350 6   -506089.09022        18.500           1.906
  21142269.404   -15335635.697 7 -11821224.16722        22.250           2.219
  23062075.553    -5605080.081 5  -4195806.08521         9.250           0.344
  22602753.467    -8531730.206 5  -6483349.17321        11.750           0.500
 91  5 30 18 36 44.9980000  0  6G18G11G19G 2G16G 6
  22171170.529     9386092.016 6   6952305.46421        16.250           1.031
  22466658.467    -8084553.059 6  -6200842.94921        18.250           1.156
  20508590.795     -671753.137 7   -501115.95222        20.250           1.813
  21135353.881   -15371980.607 7 -11849544.85022        22.250           2.125
  23061859.217    -5606214.344 5  -4196689.96321         9.500           0.344
  22595276.045    -8571014.853 6  -6513960.58221        12.000           0.500
 91  5 30 18 36 59.9980000  0  6G18G11G19G 2G16G 6
  22179012.162     9427321.427 6   6984432.17121        15.250           1.063
  22466244.709    -8086738.758 6  -6202546.09721        17.750           1.094
  20509816.670     -665313.920 6   -496098.39422        19.500           1.938
  21128451.982   -15408247.855 7 -11877805.03122        23.750           2.281
  23061663.647    -5607220.025 5  -4197473.66021         9.000           0.406
  22587802.764    -8610285.393 6  -6544560.97421        12.000           0.500
 91  5 30 18 37 14.9980000  0  6G18G11G19G 2G16G 6
  22186871.600     9468614.070 6   7016608.15421        15.750           0.969
  22465856.842    -8088770.973 6  -6204129.64721        17.750           1.156
  20511050.326     -658817.385 7   -491036.17322        20.500           1.781
  21121564.436   -15444437.253 7 -11906004.54622        22.750           2.219
  23061503.225    -5608097.008 5  -4198157.05521         8.250           0.375
  22580334.334    -8649541.549 6  -6575150.15221        12.500           0.594
 91  5 30 18 37 29.9980000  0  6G18G11G19G 2G16G 6
  22194741.889     9509972.474 6   7048835.38621        16.250           1.000
  22465504.061    -8090647.194 6  -6205591.64321        18.500           1.125
  20512299.834     -652261.015 6   -485927.32622        19.500           1.813
  21114691.850   -15480546.219 7 -11934141.38122        22.000           2.156
  23061356.100    -5608842.779 5  -4198738.19221         8.500           0.344
  22572863.553    -8688780.700 6  -6605726.10021        12.000           0.594
 91  5 30 18 37 44.9980000  0  6G18G11G19G 2G16G 6
  22202627.139     9551395.155 6   7081112.70621        16.750           0.906
  22465175.139    -8092368.567 6  -6206932.98121        18.500           1.125
  20513556.787     -645645.785 6   -480772.62122        19.750           1.719
  21107836.397   -15516575.702 7 -11962216.29122        22.250           2.250
  23061235.287    -5609458.532 5  -4199217.99621        10.250           0.406
  22565399.834    -8728004.001 6  -6636289.68321        12.250           0.563
 91  5 30 18 37 59.9980000  0  6G18G11G19G 2G16G 6
  22210521.686     9592877.891 6   7113436.80921        17.250           0.938
  22464873.889    -8093939.101 6  -6208156.77721        17.000           1.031
  20514828.818     -638975.698 6   -475575.16822        19.250           1.875
  21100994.834   -15552529.745 7 -11990232.41022        22.250           2.313
  23061147.990    -5609948.525 5  -4199599.84921        10.000           0.375
  22557942.381    -8767215.362 6  -6666843.95321        12.500           0.469
 91  5 30 18 38 14.9980000  0  6G18G11G19G 2G16G 6
  22218425.053     9634425.009 6   7145811.08121        16.250           0.969
  22464606.787    -8095354.360 6  -6209259.58221        17.750           1.031
  20516106.514     -632246.195 6   -470331.41522        19.500           1.906
  21094167.131   -15588403.683 7 -12018186.10622        22.750           2.281
  23061082.272    -5610308.188 5  -4199880.13021         9.500           0.219
  22550485.404    -8806410.289 6  -6697385.42321        12.500           0.625
 91  5 30 18 38 29.9980000  0  6G18G11G19G 2G16G 6
  22226344.193     9676031.704 6   7178231.77921        16.500           0.875
  22464365.506    -8096618.958 6  -6210244.99721        18.000           1.031
  20517402.584     -625461.840 6   -465044.92922        19.500           1.969
  21087354.662   -15624202.042 7 -12046080.90622        22.250           2.344
  23061038.326    -5610542.554 5  -4200062.75721         9.250           0.344
  22543031.545    -8845593.403 6  -6727917.70121        12.750           0.656
 91  5 30 18 38 44.9980000  0  6G18G11G19G 2G16G 6
  22234271.053     9717697.866 6   7210698.81121        16.000           0.906
  22464154.998    -8097732.726 6  -6211112.87121        18.750           1.063
  20518698.084     -618622.371 6   -459715.48822        19.250           2.031
  21080558.818   -15659924.622 7 -12073916.67122        22.250           2.344
  23061013.100    -5610651.494 5                         9.500
  22535576.139    -8884764.523 6  -6758440.61621        13.000           0.688
 91  5 30 18 38 59.9980000  0  6G18G11G19G 2G16G 6
  22242211.193     9759427.080 6   7243214.97221        15.750           0.938
  22463969.826    -8098691.914 6  -6211860.30121        18.250           1.063
  20520015.342     -611723.960 6   -454340.12422        19.750           2.063
  21073775.076   -15695567.621 7 -12101690.41922        22.000           2.313
  23061018.053    -5610631.228 5                         9.750
  22528122.498    -8923919.829 6  -6788951.22521        12.500           0.563
 91  5 30 18 39 14.9980000  0  6G18G11G19G 2G16G 6
  22250164.256     9801215.853 6   7275777.53721        15.750           0.750
  22463817.147    -8099499.872 6  -6212489.88821        17.750           1.000
  20521337.811     -604769.992 7   -448921.46322        20.250           1.969
  21067007.592   -15731134.170 7 -12129404.59122        22.500           2.375
  23061045.311    -5610485.503 5                         9.250
  22520676.584    -8963062.610 6  -6819452.05921        12.500           0.531
 91  5 30 18 39 29.9980000  0  6G18G11G19G 2G16G 6
  22258128.326     9843067.619 6   7308389.20321        15.000           0.875
  22463693.701    -8100152.702 6  -6212998.58721        18.250           1.063
  20522673.389     -597756.441 6   -443456.37922        19.000           2.063
  21060255.537   -15766620.650 7 -12157056.37022        23.250           2.250
  23061100.600    -5610210.537 5                         9.000
  22513231.451    -9002188.940 6  -6849940.09921        12.500           0.625
 91  5 30 18 39 44.9980000  0  6G18G11G19G 2G16G 6
  22266103.756     9884978.729 6   7341047.10921        15.000           0.750
  22463596.561    -8100653.887 6  -6213389.12821        18.000           1.000
  20524016.006     -590686.599 7   -437947.43322        20.000           1.938
  21053516.959   -15802030.293 7 -12184648.28022        23.000           2.219
  23061176.428    -5609809.862 5  -4199491.95921         9.250           0.375
  22505781.701    -9041302.287 5  -6880417.99921        11.500           0.594
 91  5 30 18 39 59.9980000  0  6G18G11G19G 2G16G 6
  22274092.311     9926951.013 6   7373752.67521        15.250           0.719
  22463531.201    -8101001.336 6  -6213659.85921        17.750           0.969
  20525377.623     -583558.361 6   -432392.98622        19.750           2.031
  21046792.967   -15837360.840 7 -12212178.56322        22.750           2.156
  23061273.154    -5609281.280 5  -4199080.09521         9.250           0.469
  22498344.397    -9080400.517 5  -6910884.11721        11.750           0.531
 91  5 30 18 40 14.9980000  0  6G18G11G19G 2G16G 6
  22282090.506     9968986.139 6   7406507.20621        15.500           0.813
  22463495.014    -8101193.328 6                        17.750
  20526740.256     -576370.054 7   -426791.73122        20.250           1.938
  21040084.967   -15872610.603 7 -12239645.89022        21.750           2.219
  23061403.475    -5608623.430 5  -4198567.54221         9.250           0.469
  22490908.256    -9119481.799 6  -6941337.04421        12.000           0.625
 91  5 30 18 40 29.9980000  0  6G18G11G19G 2G16G 6
  22290099.209    10011081.107 6   7439308.38021        15.000           0.844
  22463489.670    -8101232.459 6                        18.000
  20528121.420     -569124.076 7   -421145.53322        20.000           1.906
  21033395.654   -15907782.170 7 -12267052.28522        23.750           2.156
  23061551.248    -5607838.982 5  -4197956.29221         9.000           0.344
  22483477.498    -9158548.860 5  -6971778.89621        11.750           0.563
 91  5 30 18 40 44.9980000  0  6G18G11G19G 2G16G 6
  22298123.365    10053235.308 6   7472155.69521        15.250           0.719
  22463508.350    -8101119.047 6                        17.750
  20529508.084     -561820.637 7   -415454.56722        20.250           1.875
  21026715.576   -15942875.813 7 -12294397.95922        23.000           2.344
  23061725.264    -5606928.325 5  -4197246.70021         9.250           0.406
  22476039.725    -9197601.751 6  -7002209.69021        12.250           0.656
 91  5 30 18 40 59.9980000  0  6G18G11G19G 2G16G 6
  22306155.006    10095451.455 6   7505051.28121        15.000           0.750
  22463561.803    -8100850.105 6                        18.000
  20530916.912     -554456.772 6   -409716.50822        18.500           1.875
  21020051.686   -15977888.273 7 -12321680.37922        22.500           2.250
  23061918.584    -5605888.809 5  -4196436.71221         9.500           0.250
  22468614.162    -9236637.591 6  -7032627.20421        12.500           0.625
 91  5 30 18 41 14.9980000  0  6G18G11G19G 2G16G 6
  22314202.264    10137727.162 6   7537993.27321        15.000           0.719
  22463639.389    -8100427.838 6                        17.500
  20532321.764     -547034.509 7   -403932.95022        20.250           1.906
  21013402.272   -16012821.795 7 -12348901.28722        22.500           2.344
  23062145.256    -5604722.471 5  -4195527.89121        10.000           0.250
  22461189.295    -9275658.416 6  -7063033.03921        12.500           0.531
 91  5 30 18 41 29.9980000  0  6G18G11G19G 2G16G 6
  22322255.928    10180061.305 6   7570980.79021        15.000           0.781
  22463748.647    -8099853.496 6  -6212765.48421        17.500           1.063
  20533749.568     -539554.975 7   -398104.76922        20.250           1.906
  21006771.975   -16047677.479 7 -12376061.53722        22.250           2.375
  23062385.373    -5603430.977 5  -4194521.54721         9.250           0.375
  22453766.506    -9314665.391 6  -7093428.04121        12.750           0.531
 91  5 30 18 41 44.9980000  0  6G18G11G19G 2G16G 6
  22330323.107    10222454.723 6   7604014.51521        14.500           0.750
  22463890.623    -8099126.016 6  -6212198.61821        18.000           1.063
  20535180.607     -532016.933 7   -392230.99422        20.250           1.844
  21000154.467   -16082454.003 7 -12403160.10422        23.000           2.281
  23062662.178    -5602013.118 5  -4193416.74421         9.750           0.344
  22446346.287    -9353657.320 6  -7123811.34521        13.000           0.625
 91  5 30 18 41 59.9980000  0  6G18G11G19G 2G16G 6
  22338400.029    10264905.759 6   7637093.12021        15.000           0.750
  22464054.857    -8098246.568 6  -6211513.33621        17.500           1.063
  20536628.998     -524421.556 7   -386312.54122        20.000           1.969
  20993550.147   -16117152.724 7 -12430198.05422        22.750           2.313
  23062952.568    -5600470.445 5  -4192214.67821         9.500           0.344
  22438930.201    -9392635.519 6  -7154183.94221        12.750           0.688
 91  5 30 18 42 14.9980000  0  6G18G11G19G 2G16G 6
  22346494.412    10307416.081 6   7670217.94421        15.000           0.781
  22464250.623    -8097213.709 6  -6210708.51421        18.000           1.250
  20538082.561     -516767.208 7   -380348.14422        20.000           1.969
  20986964.272   -16151772.271 7 -12457174.31122        23.000           2.281
  23063269.967    -5598801.537 5  -4190914.27021         9.250           0.313
  22431517.561    -9431598.328 6  -7184544.55321        12.750           0.656
 91  5 30 18 42 29.9980000  0  6G18G11G19G 2G16G 6
  22354592.350    10349984.094 6   7703387.70121        14.500           0.781
  22464476.647    -8096028.365 6  -6209784.87921        18.000           1.094
  20539553.537     -509054.862 6   -374338.54922        19.000           2.094
  20980389.857   -16186313.193 7 -12484089.28722        23.000           2.406
  23063611.061    -5597007.529 5  -4189516.39321         9.250           0.313
  22424102.217    -9470546.692 6  -7214893.90721        12.250           0.563
 91  5 30 18 42 44.9980000  0  6G18G11G19G 2G16G 6
  22362705.115    10392609.902 6   7736602.49221        15.000           0.781
  22464735.342    -8094690.255 6  -6208742.21121        19.000           1.031
  20541027.490     -501284.204 7   -368283.51722        20.250           2.031
  20973831.490   -16220775.167 7 -12510942.75622        22.250           2.281
  23063978.787    -5595087.842 5  -4188020.53621         9.500           0.313
  22416693.404    -9509480.301 6  -7245231.75221        12.250           0.656
 91  5 30 18 42 59.9980000  0  6G18G11G19G 2G16G 6
  22370825.490    10435290.904 6   7769860.30721        14.750           0.719
  22465014.826    -8093201.857 6  -6207582.41621        18.750           1.031
  20542518.834     -493457.494 6   -362184.80422        19.750           2.031
  20967289.420   -16255160.491 7 -12537736.50122        23.250           2.313
  23064366.311    -5593045.552 5  -4186429.16421         9.000           0.375
  22409285.225    -9548401.485 6  -7275559.92021        12.000           0.563
 91  5 30 18 43 14.9980000  0  6G18G11G19G 2G16G 6
  22378962.748    10478029.572 6   7803163.03621        14.750           0.750
  22465328.123    -8091560.460 6  -6206303.41921        18.000           1.063
  20544019.826     -485571.957 7   -356040.25922        21.000           1.969
  20960762.373   -16289466.652 7 -12564468.56122        23.500           2.344
  23064774.670    -5590878.071 5  -4184740.23621         9.750           0.344
  22401879.389    -9587307.546 5  -7305876.30921        11.750           0.594
 91  5 30 18 43 29.9980000  0  6G18G11G19G 2G16G 6
  22387101.717    10520822.086 6   7836507.73121        14.000           0.719
  22465669.490    -8089769.674 6  -6204908.00621        18.000           1.000
  20545531.639     -477631.102 7   -349852.60722        20.000           2.000
  20954246.397   -16323697.077 7 -12591141.60522        22.750           2.375
  23065210.272    -5588588.881 5  -4182956.47521         9.750           0.344
  22394483.272    -9626202.014 6  -7336183.66221        13.000           0.688
 91  5 30 18 43 44.9980000  0  6G18G11G19G 2G16G 6
  22395253.631    10563675.323 6   7869899.74021        13.500           0.781
  22466039.951    -8087822.516 6  -6203390.74421        18.500           0.969
  20547053.709     -469627.840 7   -343616.32522        20.500           2.063
  20947748.803   -16357844.628 7 -12617750.07122        22.750           2.219
  23065678.451    -5586171.214 5  -4181072.61621        10.000           0.375
  22387085.553    -9665077.795 6  -7366476.44421        12.500           0.656
 91  5 30 18 43 59.9980000  0  6G18G11G19G 2G16G 6
  22403422.201    10606584.296 6   7903335.18521        14.000           0.750
  22466438.482    -8085723.926 6  -6201755.49821        18.750           0.938
  20548591.311     -461566.962 6   -337335.14922        18.750           2.000
  20941264.279   -16391914.159 7 -12644297.74022        22.500           2.156
  23066160.787    -5583630.137 5  -4179092.56121         9.500           0.219
  22379690.568    -9703939.694 6  -7396758.41221        12.500           0.656
 91  5 30 18 44 14.9980000  0  6G18G11G19G 2G16G 6
  22411596.857    10649552.327 6   7936816.63221        13.250           0.750
  22466865.959    -8083470.347 6  -6199999.46221        18.500           0.875
  20550133.811     -453444.579 7   -331006.04222        20.750           2.031
  20934797.178   -16425902.026 7 -12670781.77522        23.250           2.344
  23066663.584    -5580961.863 5  -4177013.41221         9.000           0.313
  22372298.670    -9742783.948 6  -7427026.64821        12.500           0.656
 91  5 30 18 44 29.9980000  0  6G18G11G19G 2G16G 6
  22419785.287    10692574.084 6   7970339.94321        14.000           0.781
  22467324.592    -8081066.810 6  -6198126.58721        18.250           1.094
  20551693.443     -445265.871 7   -324633.04222        20.250           1.969
  20928342.811   -16459813.191 7 -12697206.04022        22.500           2.375
  23067192.482    -5578171.820 5  -4174839.37821         9.500           0.375
  22364908.826    -9781615.625 6  -7457285.05621        12.750           0.688
 91  5 30 18 44 44.9980000  0  6G18G11G19G 2G16G 6
  22427982.459    10735649.299 6   8003904.93321        13.750           0.750
  22467810.420    -8078513.115 6  -6196136.70621        17.500           1.031
  20553257.725     -437030.615 7   -318215.98722        20.500           1.813
  20921907.951   -16493647.251 7 -12723570.22622        23.000           2.313
  23067749.904    -5575260.058 5  -4172570.52021         9.000           0.281
  22357521.803    -9820434.572 6  -7487533.56521        12.750           0.688
 91  5 30 18 44 59.9980000  0  6G18G11G19G 2G16G 6
  22436190.350    10778785.293 6   8037517.26321        13.500           0.750
  22468325.709    -8075802.258 6  -6194024.36421        17.500           1.094
  20554841.240     -428731.593 6   -311749.23122        19.250           1.813
  20915485.147   -16527397.195 7 -12749868.86422        23.000           2.344
  23068330.803    -5572219.625 5  -4170201.37421        10.000           0.406
  22350140.029    -9859233.643 6  -7517766.58021        13.250           0.719
 91  5 30 18 45 14.9980000  0  6G18G11G19G 2G16G 6
  22444408.334    10821973.930 6   8071170.60621        13.750           0.688
  22468871.147    -8072941.795 6  -6191795.45121        17.750           1.063
  20556427.623     -420376.343 7   -305238.67022        20.000           1.906
  20909077.522   -16561070.519 7 -12776107.79622        23.750           2.313
  23068929.147    -5569058.194 5  -4167737.94921         9.250           0.375
  22342761.490    -9898020.169 6  -7547989.81021        13.250           0.719
 91  5 30 18 45 29.9980000  0  6G18G11G19G 2G16G 6
  22452638.811    10865215.593 6   8104865.30421        13.750           0.625
  22469446.693    -8069931.296 6  -6189449.62321        17.750           1.125
  20558028.623     -411964.315 6   -298683.86722        19.500           1.906
  20902682.045   -16594666.542 7 -12802286.49622        23.000           2.469
  23069554.186    -5565775.391 5  -4165179.96521         8.750           0.344
  22335376.967    -9936793.762 6  -7578202.97221        13.250           0.688
 91  5 30 18 45 44.9980000  0  6G18G11G19G 2G16G 6
  22460879.811    10908510.769 6   8138601.66721        13.750           0.594
  22470043.826    -8066770.120 6  -6186986.38221        17.500           1.094
  20559637.709     -403494.764 7   -292084.24122        20.000           1.906
  20896304.850   -16628184.719 7 -12828404.54422        23.500           2.438
  23070205.248    -5562370.874 5  -4162527.11821         9.000           0.344
  22328004.092    -9975553.647 6  -7608405.45621        13.500           0.750
 91  5 30 18 45 59.9980000  0  6G18G11G19G 2G16G 6
  22469127.326    10951860.564 6   8172380.60521        13.250           0.656
  22470673.654    -8063456.762 6  -6184404.56221        17.000           0.969
  20561264.732     -394965.922 6   -285438.41722        19.750           1.969
  20889940.615   -16661623.325 7 -12854460.57522        23.000           2.469
  23070871.186    -5558842.986 5  -4159778.12721         9.750           0.313
  22320632.225   -10014298.186 6  -7638595.97421        13.250           0.750
 91  5 30 18 46 14.9980000  0  6G18G11G19G 2G16G 6
  22477385.607    10995261.192 6   8206199.15421        13.000           0.625
  22471333.881    -8059994.914 6  -6181707.03821        17.250           1.094
  20562893.607     -386381.395 7   -278749.19722        20.000           1.938
  20883594.162   -16694986.026 7 -12880457.46123        23.750           2.500
  23071570.740    -5555195.551 5  -4156935.98521        11.250           0.281
  22313261.178   -10053031.033 6  -7668777.37221        14.000           0.719
 91  5 30 18 46 29.9980000  0  6G18G11G19G 2G16G 6
  22485655.928    11038715.786 6   8240059.74521        13.250           0.625
  22472022.701    -8056381.303 6  -6178891.25621        17.750           1.000
  20564543.170     -377737.729 6   -272013.89322        19.250           2.031
  20877259.475   -16728269.289 7 -12906392.45023        23.500           2.563
  23072288.826    -5551425.419 5  -4153998.26221        10.750           0.344
  22305892.834   -10091748.820 6  -7698947.05921        13.500           0.719
 91  5 30 18 46 44.9980000  0  6G18G11G19G 2G16G 6
  22493935.514    11082224.593 6   8273962.56221        13.500           0.688
  22472738.256    -8052615.406 6  -6175956.79821        17.750           0.938
  20566196.795     -369034.326 7   -265232.04922        20.500           2.000
  20870940.334   -16761472.772 7 -12932265.28223        22.750           2.594
  23073030.967    -5547532.166 5  -4150964.58621         9.500           0.188
  22298528.178   -10130450.849 6  -7729104.46121        13.750           0.719
 91  5 30 18 46 59.9980000  0  6G18G11G19G 2G16G 6
  22502226.412    11125786.313 6   8307906.62521        13.750           0.594
  22473482.967    -8048698.514 6                        17.750
  20567864.678     -360272.494 6   -258404.66122        19.000           1.938
  20864637.545   -16794597.588 7 -12958076.80322        23.500           2.438
  23073788.881    -5543517.543 5                         8.500
  22291164.740   -10169138.390 6  -7759250.56121        13.500           0.688
 91  5 30 18 47 14.9980000  0  6G18G11G19G 2G16G 6
  22510522.084    11169400.136 6   8341891.29121        13.250           0.563
  22474258.592    -8044631.208 6                        18.250
  20569542.131     -351452.374 6   -251531.86022        19.500           1.906
  20858349.592   -16827644.241 7 -12983827.42723        23.250           2.531
  23074575.506    -5539382.099 5                         9.250
  22283806.248   -10207811.840 6  -7789385.69621        13.250           0.719
 91  5 30 18 47 29.9980000  0  6G18G11G19G 2G16G 6
  22518833.795    11213065.828 6   8375916.35421        13.000           0.531
  22475059.982    -8040413.507 6                        18.750
  20571235.365     -342574.182 6   -244613.80922        18.750           1.906
  20852075.537   -16860612.528 7 -13009516.98422        23.250           2.406
  23075384.662    -5535125.954 5                         9.250
  22276447.295   -10246471.097 6  -7819509.77221        13.000           0.719
 91  5 30 18 47 44.9980000  0  6G18G11G19G 2G16G 6
  22527151.607    11256781.432 6   8409980.31121        13.250           0.563
  22475891.147    -8036047.203 6                        18.000
  20572931.178     -333639.492 6   -237651.73422        19.750           2.031
  20845815.397   -16893504.092 7 -13035146.74423        23.000           2.594
  23076222.701    -5530750.981 5                        10.000
  22269095.053   -10285117.954 6  -7849624.17621        13.500           0.688
 91  5 30 18 47 59.9980000  0  6G18G11G19G 2G16G 6
  22535480.256    11300550.026 6   8444085.58721        13.250           0.625
  22476752.490    -8031529.155 6                        18.500
  20574644.693     -324644.937 6   -230643.01122        19.000           1.969
  20839570.897   -16926315.774 7 -13060714.27823        22.500           2.594
  23077080.201    -5526254.247 5                        10.500
  22261742.951   -10323749.011 6  -7879726.28421        13.250           0.625
 91  5 30 18 48 14.9980000  0  6G18G11G19G 2G16G 6
  22543818.998    11344369.357 6   8478230.39021        13.000           0.594
  22477640.998    -8026861.321 6                        18.250
  20576365.295     -315592.216 7   -223588.96022        20.000           1.844
  20833343.522   -16959049.469 7 -13086221.03623        23.250           2.625
  23077955.670    -5521637.667 5                         9.750
  22254395.756   -10362366.167 6  -7909817.54121        13.500           0.594
 91  5 30 18 48 29.9980000  0  6G18G11G19G 2G16G 6
  22552169.412    11388235.145 6   8512411.38221        13.250           0.406
  22478556.818    -8022047.645 6  -6152137.84021        17.750           0.938
  20578103.951     -306485.375 6   -216492.73622        18.000           1.844
  20827129.967   -16991708.807 7 -13111669.85123        24.500           2.563
  23078852.397    -5516905.069 5  -4127099.52121         9.500           0.344
  22247050.623   -10400973.246 6  -7939900.96521        14.000           0.688
 91  5 30 18 48 44.9980000  0  6G18G11G19G 2G16G 6
  22560526.381    11432151.800 6   8546631.99521        14.000           0.688
  22479502.459    -8017083.825 6  -6148269.93421        17.750           0.906
  20579842.467     -297319.796 6   -209350.74722        19.750           1.875
  20820926.686   -17024289.406 7 -13137057.32323        23.000           2.688
  23079775.787    -5512052.710 5  -4123318.47921         9.500           0.313
  22239706.561   -10439565.851 6  -7969973.11121        14.000           0.688
 91  5 30 18 48 59.9980000  0  6G18G11G19G 2G16G 6
  22568890.725    11476116.953 6   8580890.42021        12.750           0.531
  22480472.998    -8011971.986 6  -6144286.69621        17.500           0.938
  20581602.936     -288097.502 6   -202164.56722        17.750           1.875
  20814744.436   -17056793.124 7 -13162384.87223        24.750           2.656
  23080733.443    -5507082.740 5  -4119445.80021        10.750           0.406
  22232363.389   -10478145.883 6  -8000035.45521        14.250           0.688
 91  5 30 18 49 14.9980000  0  6G18G11G19G 2G16G 6
  22577268.818    11520134.186 6   8615189.40321        13.000           0.563
  22481474.365    -8006708.264 6  -6140185.11521        17.750           0.875
  20583364.615     -278814.714 6   -194931.24422        19.250           1.844
  20808573.537   -17089216.381 7 -13187649.72923        24.250           2.656
  23081695.350    -5501991.428 5  -4115478.59021         9.750           0.344
  22225024.740   -10516709.579 6  -8030085.06021        14.250           0.750
 91  5 30 18 49 29.9980000  0  6G18G11G19G 2G16G 6
  22585652.740    11564199.927 6   8649526.19921        13.250           0.563
  22482502.803    -8001296.127 6  -6135967.87221        18.000           0.969
  20585144.084     -269474.542 6   -187653.21522        18.750           1.875
  20802414.998   -17121562.261 7 -13212854.30723        23.250           2.656
  23082677.678    -5496782.006 5  -4111419.33021         9.250           0.406
  22217691.459   -10555260.068 6  -8060124.37221        15.000           0.750
 91  5 30 18 49 44.9980000  0  6G18G11G19G 2G16G 6
  22594045.748    11608310.859 6   8683898.20521        12.250           0.563
  22483563.561    -7995738.921 6  -6131637.59421        18.000           0.906
  20586929.334     -260080.220 6   -180332.99022        19.000           1.938
  20796278.068   -17153834.241 7 -13238001.27823        25.500           2.750
  23083699.006    -5491458.049 5  -4107270.84121        10.000           0.344
  22210354.186   -10593800.742 6  -8090156.04521        13.750           0.750
 91  5 30 18 49 59.9980000  0  6G18G11G19G 2G16G 6
  22602447.576    11652468.094 5   8718306.29221        11.750           0.531
  22484651.334    -7990035.233 6  -6127193.18621        18.750           0.906
  20588728.920     -250630.299 6   -172969.43622        18.250           1.969
  20790149.139   -17186030.545 7 -13263089.29623        23.750           2.688
  23084735.318    -5486018.346 5  -4103032.14821        10.500           0.281
  22203023.412   -10632329.888 6  -8120178.72221        14.750           0.719
 91  5 30 18 50 14.9980000  0  6G18G11G19G 2G16G 6
  22610864.162    11696675.844 6   8752753.73921        13.250           0.531
  22485762.311    -7984180.384 6  -6122630.98021        18.250           0.969
  20590535.717     -241119.921 6   -165558.77022        19.000           1.875
  20784035.904   -17218146.516 7 -13288114.72323        23.250           2.656
  23085789.053    -5480458.273 5  -4098699.63821        10.250           0.344
  22195693.678   -10670842.812 6  -8150188.77321        13.750           0.656
 91  5 30 18 50 29.9980000  0  6G18G11G19G 2G16G 6
  22619283.522    11740929.926 6   8787237.29621        12.500           0.531
  22486903.147    -7978178.641 6  -6117954.30621        17.250           1.000
  20592360.615     -231553.184 6   -158104.18322        19.000           1.969
  20777943.529   -17250186.260 7 -13313080.74223        24.500           2.813
  23086869.412    -5474782.366 5  -4094276.89521         9.750           0.313
  22188368.436   -10709343.591 6  -8180189.34821        15.000           0.719
 91  5 30 18 50 44.9980000  0  6G18G11G19G 2G16G 6
  22627716.318    11785231.057 6   8821757.49421        13.000           0.563
  22488073.897    -7972029.153 6  -6113162.51621        18.500           1.031
  20594189.514     -221928.879 6   -150604.74922        19.250           1.969
  20771857.998   -17282148.779 7 -13337986.58423        23.500           2.750
  23087973.490    -5468989.693 5  -4089763.14621         9.500           0.281
  22181043.514   -10747831.253 6  -8210179.71321        14.250           0.813
 91  5 30 18 50 59.9980000  0  6G18G11G19G 2G16G 6
  22636149.553    11829577.519 6   8856313.03221        12.000           0.531
  22489273.248    -7965733.623 6  -6108256.92421        18.000           1.031
  20596033.904     -212248.730 6   -143061.79122        19.000           1.938
  20765791.170   -17314035.742 7 -13362833.55323        24.750           2.531
  23089097.600    -5463082.150 5  -4085159.89421         9.500           0.281
  22173722.029   -10786307.274 6  -8240161.01721        14.250           0.656
 91  5 30 18 51 14.9980000  0  6G18G11G19G 2G16G 6
  22644598.928    11873969.870 5   8890904.34121        11.750           0.531
  22490500.053    -7959291.180 6  -6103236.85421        17.750           0.969
  20597882.357     -202511.767 6   -135474.57222        19.250           1.875
  20759738.943   -17345846.068 7 -13387620.80023        25.250           2.625
  23090243.365    -5457059.061 5  -4080466.62121         9.750           0.344
  22166401.506   -10824770.719 6  -8270132.51821        14.000           0.719
 91  5 30 18 51 29.9980000  0  6G18G11G19G 2G16G 6
  22653057.178    11918411.509 5   8925534.03221        11.750           0.500
  22491752.748    -7952698.146 6  -6098099.43621        17.750           1.063
  20599749.326     -192714.153 6   -127840.08722        18.750           1.969
  20753697.568   -17377575.908 7 -13412345.34923        23.750           2.563
  23091413.998    -5450916.991 5  -4075680.61521        10.000           0.344
  22159085.936   -10863217.866 6  -8300091.31321        14.750           0.781
 91  5 30 18 51 44.9980000  0  6G18G11G19G 2G16G 6
  22661525.764    11962896.428 6   8960197.43721        12.250           0.500
  22493036.397    -7945960.560 6  -6092849.37621        17.250           0.938
  20601622.303     -182861.643 6   -120162.83322        19.500           1.875
  20747676.678   -17409231.065 7 -13437011.68123        25.000           2.563
  23092604.154    -5444662.049 5  -4070806.67221         9.750           0.438
  22151771.381   -10901654.478 6  -8330041.88321        14.000           0.656
 91  5 30 18 51 59.9980000  0  6G18G11G19G 2G16G 6
  22670001.295    12007426.439 6   8994895.98621        13.000           0.500
  22494346.568    -7939076.443 6  -6087485.14921        17.750           0.969
  20603509.607     -172952.216 6   -112441.21422        18.000           2.000
  20741664.568   -17440809.626 7 -13461618.34623        24.250           2.656
  23093814.193    -5438291.981 5  -4065843.04221        10.000           0.313
  22144459.764   -10940078.440 6  -8359982.62321        15.000           0.719
 91  5 30 18 52 14.9980000  0  6G18G11G19G 2G16G 6
  22678483.811    12052007.510 6   9029634.33421        13.500           0.563
  22495684.951    -7932039.566 6  -6082001.88321        17.500           1.063
  20605406.490     -162979.403 6   -104670.21622        19.500           1.938
  20735672.506   -17472305.311 7 -13486160.42023        24.500           2.531
  23095050.029    -5431800.794 5  -4060785.01021         9.750           0.281
  22137153.982   -10978483.329 6  -8389908.48921        14.250           0.781
 91  5 30 18 52 29.9980000  0  6G18G11G19G 2G16G 6
  22686972.139    12096632.555 6   9064406.93221        12.750           0.438
  22497049.287    -7924856.879 6  -6076405.00721        17.500           1.000
  20607316.389     -152950.088 6    -96855.18822        18.250           1.938
  20729695.279   -17503724.695 7 -13510643.03523        25.000           2.563
  23096310.053    -5425195.745 5  -4055638.24721        11.000           0.313
  22129843.686   -11016876.038 6  -8419824.85121        14.250           0.656
 91  5 30 18 52 44.9980000  0  6G18G11G19G 2G16G 6
  22695470.951    12141299.864 6   9099212.49121        12.250           0.469
  22498442.850    -7917530.055 6  -6070695.80821        17.750           1.031
  20609238.170     -142865.792 7    -88997.32022        20.250           1.875
  20723728.420   -17535069.565 7 -13535067.60823        24.000           2.531
  23097586.545    -5418478.474 5  -4050404.05621         9.500           0.250
  22122545.537   -11055258.101 6  -8449732.94021        14.750           0.625
 91  5 30 18 52 59.9980000  0  6G18G11G19G 2G16G 6
  22703980.131    12186010.793 6   9134052.02121        12.000           0.500
  22499867.553    -7910057.297 6  -6064872.90021        17.750           0.875
  20611165.225     -132724.612 6    -81095.12822        18.750           1.969
  20717781.170   -17566338.048 7 -13559432.64923        24.500           2.594
  23098887.889    -5411647.177 5  -4045080.99921        10.500           0.281
  22115240.014   -11093627.564 6  -8479631.20121        14.250           0.781
 91  5 30 18 53 14.9980000  0  6G18G11G19G 2G16G 6
  22712499.631    12230765.115 6   9168925.36421        12.500           0.438
  22501321.732    -7902438.962 6  -6058936.55121        18.250           0.906
  20613102.264     -122526.464 6    -73148.53622        18.750           1.875
  20711845.373   -17597530.211 7 -13583738.21423        25.250           2.688
  23100205.811    -5404702.353 5  -4039669.47921        10.250           0.344
  22107941.350   -11131984.467 6  -8509519.67221        14.000           0.813
 91  5 30 18 53 29.9980000  0  6G18G11G19G 2G16G 6
  22721021.576    12275561.669 6   9203831.61521        12.000           0.438
  22502792.647    -7894675.956 6  -6052887.47121        18.000           0.906
  20615065.506     -112272.259 6    -65158.27122        17.750           1.969
  20705920.529   -17628646.944 7 -13607985.00823        24.250           2.563
  23101550.686    -5397645.071 5  -4034170.33321        10.000           0.250
  22100645.529   -11170329.763 6  -8539399.09621        14.500           0.750
 91  5 30 18 53 44.9980000  0  6G18G11G19G 2G16G 6
  22729554.412    12320403.269 5   9238772.96721        11.750           0.469
  22504299.717    -7886765.350 6  -6046723.38121        17.500           0.938
  20617019.006     -101958.790 6    -57121.81522        19.000           1.875
  20700018.045   -17659685.081 7 -13632170.55123        25.500           2.531
  23102915.959    -5390472.493 5  -4028581.34421        10.250           0.344
  22093348.928   -11208660.375 6  -8569267.09021        14.000           0.813
 91  5 30 18 53 59.9980000  0  6G18G11G19G 2G16G 6
  22738098.256    12365290.405 6   9273749.76821        12.000           0.531
  22505833.967    -7878706.248 6  -6040443.58121        18.000           1.031
  20618995.561      -91585.049 6    -49038.40122        18.500           1.906
  20694125.756   -17690643.460 7 -13656293.95423        24.750           2.531
  23104299.639    -5383183.980 5  -4022902.02221         9.500           0.406
  22086059.826   -11246975.122 6  -8599122.71621        14.250           0.781
 91  5 30 18 54 14.9980000  0  6G18G11G19G 2G16G 6
  22746648.623    12410223.240 6   9308762.20721        12.000           0.406
  22507395.084    -7870498.918 6  -6034048.27121        17.500           0.906
  20620978.459      -81151.042 6    -40908.03522        19.250           1.813
  20688249.561   -17721522.110 7 -13680355.23123        25.000           2.563
  23105704.803    -5375779.997 5  -4017132.73221         9.250           0.406
  22078773.022   -11285274.035 6  -8628966.00121        14.500           0.969
 91  5 30 18 54 29.9980000  0  6G18G11G19G 2G16G 6
  22755203.553    12455199.397 5   9343808.38721        11.250           0.531
  22508982.404    -7862145.277 6  -6027538.95821        17.000           1.000
  20622977.826      -70658.555 6    -32732.09122        18.750           1.875
  20682387.818   -17752322.915 7 -13704355.83623        25.750           2.625
  23107139.936    -5368261.988 5  -4011274.61121         9.250           0.469
  22071485.100   -11323558.926 6  -8658798.35821        14.000           0.719
 91  5 30 18 54 44.9980000  0  6G18G11G19G 2G16G 6
  22763775.334    12500221.090 5   9378890.04821        11.500           0.500
  22510603.139    -7853643.147 6  -6020913.93521        18.000           0.906
  20624984.123      -60105.420 6    -24508.89322        19.250           1.781
  20676539.764   -17783043.715 7 -13728294.11323        24.250           2.625
  23108594.951    -5360628.290 5  -4005326.30021         9.000           0.250
  22064206.225   -11361827.409 6  -8688617.93221        15.000           0.875
 91  5 30 18 54 59.9980000  0  6G18G11G19G 2G16G 6
  22772351.842    12545285.875 5   9414005.28321        11.500           0.469
  22512249.803    -7844994.622 6  -6014174.84321        17.500           1.000
  20627007.631      -49493.389 6    -16239.79522        18.500           1.906
  20670710.600   -17813686.502 7 -13752171.59322        24.500           2.406
  23110067.779    -5352881.017 5  -3999289.50321         9.250           0.344
  22056926.537   -11400081.557 6  -8718426.32721        14.750           0.781
 91  5 30 18 55 14.9980000  0  6G18G11G19G 2G16G 6
  22780934.584    12590390.421 5   9449151.53221        11.500           0.469
  22513918.498    -7836203.003 6  -6007324.23621        17.500           1.063
  20629032.225      -38825.629 6     -7927.28022        18.500           1.969
  20664895.107   -17844254.363 7 -13775990.68523        26.000           2.594
  23111567.147    -5345023.744 5  -3993166.98621        10.750           0.344
  22049645.787   -11438324.423 6  -8748225.94321        14.000           0.813
 91  5 30 18 55 29.9980000  0  6G18G11G19G 2G16G 6
  22789526.154    12635536.308 5   9484329.98821        11.500           0.469
  22515624.045    -7827266.461 6  -6000360.71921        18.250           1.063
  20631076.139      -28100.049 6       430.29022        18.500           1.906
  20659089.522   -17874745.394 7 -13799749.93523        24.500           2.594
  23113082.600    -5337054.685 5  -3986957.35621         9.500           0.469
  22042371.279   -11476553.970 6  -8778015.18321        14.500           0.781
 91  5 30 18 55 44.9980000  0  6G18G11G19G 2G16G 6
  22798122.404    12680719.721 5   9519537.68421        11.250           0.469
  22517351.639    -7818188.673 6  -5993287.13921        18.000           1.063
  20633127.342      -17320.152 6      8830.17922        18.750           1.938
  20653306.561   -17905162.940 7 -13823451.89523        26.000           2.625
  23114621.287    -5328977.403 5  -3980663.40721         9.000           0.438
  22035100.811   -11514773.696 6  -8807796.75921        15.250           0.719
 91  5 30 18 55 59.9980000  0  6G18G11G19G 2G16G 6
  22806729.943    12725946.410 6   9554779.10521        12.000           0.438
  22519103.553    -7808963.908 6  -5986099.01821        17.250           1.063
  20635191.209       -6480.102 6     17276.94922        19.000           1.906
  20647529.232   -17935501.193 7 -13847092.07323        24.000           2.594
  23116180.178    -5320786.280 5  -3974280.76921         9.750           0.469
  22027829.740   -11552977.763 6  -8837566.13621        14.750           0.781
 91  5 30 18 56 14.9980000  0  6G18G11G19G 2G16G 6
  22815341.412    12771214.844 5   9590053.06721        11.000           0.531
  22520890.232    -7799593.611 6  -5978797.51821        18.250           0.938
  20637262.639        4418.848 6     25769.61022        19.250           1.906
  20641770.936   -17965761.505 7 -13870671.53823        24.500           2.719
  23117751.561    -5312483.068 5  -3967810.75321         8.250           0.375
  22020561.475   -11591167.387 6  -8867324.26221        15.000           0.875
 91  5 30 18 56 29.9980000  0  6G18G11G19G 2G16G 6
  22823965.436    12816525.253 5   9625359.67221        11.500           0.688
  22522697.787    -7790077.402 6  -5971382.29221        17.000           0.906
  20639355.326       15377.187 6     34308.56122        18.250           1.844
  20636031.084   -17995943.305 7 -13894189.79923        26.000           2.719
  23119354.350    -5304067.757 5  -3961253.42921         8.500           0.438
  22013297.982   -11629341.874 6  -8897070.58721        15.000           0.875
 91  5 30 18 56 44.9980000  0  6G18G11G19G 2G16G 6
  22832598.006    12861876.673 5   9660698.29621        11.250           0.563
  22524533.928    -7780415.952 6  -5963853.91421        17.500           0.969
  20641445.764       26394.528 6     42893.48322        19.750           1.938
  20630296.436   -18026047.021 7 -13917647.24223        23.250           2.750
  23120980.537    -5295540.708 5  -3954608.98521         9.000           0.438
  22006034.818   -11667501.814 6  -8926805.57921        15.750           0.844
 91  5 30 18 56 59.9980000  0  6G18G11G19G 2G16G 6
  22841235.834    12907269.445 5   9696069.10121        11.250           0.438
  22526402.631    -7770608.955 6  -5956212.12021        16.750           0.875
  20643555.693       37471.334 6     51524.74022        19.500           1.875
  20624587.451   -18056072.247 7 -13941043.50523        24.750           2.625
  23122625.264    -5286901.600 5  -3947877.27421         9.500           0.375
  21998779.975   -11705646.744 6  -8956528.88121        15.750           0.844
 91  5 30 18 57 14.9980000  0  6G18G11G19G 2G16G 6
  22849883.107    12952699.293 6   9731468.80921        12.250           0.500
  22528300.131    -7760660.217 6  -5948459.87021        17.250           1.000
  20645667.709       48603.925 6     60199.46022        19.750           1.844
  20618889.357   -18086022.742 7 -13964381.53523        25.250           2.688
  23124286.959    -5278154.468 5  -3941061.37521         8.750           0.313
  21991520.568   -11743780.213 6  -8986243.25321        15.000           0.938
 91  5 30 18 57 29.9980000  0  6G18G11G19G 2G16G 6
  22858534.787    12998170.231 5   9766900.54921        11.750           0.469
  22530218.686    -7750565.729 6  -5940594.05421        17.500           1.031
  20647803.748       59796.365 6     68920.82322        18.750           1.938
  20613199.818   -18115894.479 7 -13987658.21123        24.000           2.656
  23125973.912    -5269295.705 5  -3934158.49121         8.250           0.375
  21984267.076   -11781898.253 6  -9015945.60621        14.750           0.813
 91  5 30 18 57 44.9980000  0  6G18G11G19G 2G16G 6
  22867186.428    13043676.833 5   9802360.08621        11.000           0.531
  22532165.654    -7740330.961 6  -5932618.93821        17.500           0.938
  20649941.045       71043.515 6     77684.81422        19.000           1.844
  20607533.443   -18145692.669 7 -14010877.56023        25.750           2.656
  23127684.131    -5260330.453 5  -3927172.61721         8.750           0.500
  21977015.709   -11820005.901 6  -9045639.86421        14.250           0.781
 91  5 30 18 57 59.9980000  0  6G18G11G19G 2G16G 6
  22875863.147    13089223.921 5   9837851.13421        11.750           0.469
  22534143.131    -7729950.998 6  -5924530.67421        18.000           0.938
  20652095.217       82350.648 6     86495.55022        18.250           1.906
  20601875.600   -18175412.152 7 -14034035.59323        23.500           2.625
  23129412.170    -5251253.884 5  -3920100.00921        10.250           0.250
  21969765.404   -11858098.043 6  -9075322.02621        14.750           0.781
 91  5 30 18 58 14.9980000  0  6G18G11G19G 2G16G 6
  22884537.693    13134809.716 6   9873372.33821        12.250           0.406
  22536142.201    -7719427.420 6  -5916330.51121        17.500           0.969
  20654254.998       93716.458 6     95352.00022        19.000           1.844
  20596234.420   -18205054.441 7 -14057133.47423        23.500           2.563
  23131160.404    -5242068.087 5  -3912942.28021         9.250           0.313
  21962520.740   -11896176.183 6  -9104993.28321        14.750           0.875
 91  5 30 18 58 29.9980000  0  6G18G11G19G 2G16G 6
  22893216.834    13180435.235 5   9908924.53521        11.250           0.406
  22538177.779    -7708759.212 6  -5908017.63921        17.500           0.969
  20656430.904      105142.065 6    104255.04122        18.250           1.844
  20590612.264   -18234618.245 7 -14080170.19223        25.500           2.781
  23132928.592    -5232772.069 5  -3905698.65721         8.750           0.344
  21955276.178   -11934239.046 6  -9134652.64321        14.500           1.000
 91  5 30 18 58 44.9980000  0  6G18G11G19G 2G16G 6
  22901905.436    13226095.747 5   9944503.98721        10.500           0.438
  22540226.193    -7697950.885 6  -5899595.59121        17.000           0.938
  20658615.225      116623.162 6    113201.32622        19.750           1.844
  20584998.225   -18264107.960 7 -14103149.18423        25.000           2.688
  23134712.397    -5223370.293 5  -3898372.64621         8.500           0.469
  21948038.256   -11972290.941 6  -9164303.45421        14.750           0.906
 91  5 30 18 58 59.9980000  0  6G18G11G19G 2G16G 6
  22910602.686    13271795.954 5   9980114.36821        10.750           0.313
  22542313.459    -7686997.404 6  -5891060.42821        17.250           0.875
  20660814.522      128164.895 6    122194.85722        18.250           1.781
  20579400.654   -18293518.389 7 -14126066.40023        24.500           2.781
  23136523.514    -5213857.669 5  -3890960.27721         8.750           0.344
  21940798.482   -12010326.633 6  -9193941.63621        15.250           0.906
 91  5 30 18 59 14.9980000  0  6G18G11G19G 2G16G 6
  22919304.193    13317535.676 5  10015755.53821        10.500           0.406
  22544428.897    -7675899.231 6  -5882412.51521        17.250           0.938
  20663017.936      139767.021 6    131235.45522        19.000           1.844
  20573821.732   -18322849.909 7 -14148922.10023        25.500           2.688
  23138348.295    -5204234.842 5  -3883462.02121         7.750           0.438
  21933561.272   -12048346.336 6  -9223567.35921        14.750           0.969
 91  5 30 18 59 29.9980000  0  6G18G11G19G 2G16G 6
  22928017.045    13363314.045 5  10051426.81121        10.750           0.406
  22546568.217    -7664657.006 6  -5873652.35421        17.750           0.938
  20665239.693      151429.052 6    140322.74022        18.250           1.875
  20568253.342   -18352102.929 7 -14171716.65823        24.500           2.750
  23140209.912    -5194502.323 5  -3875878.26521         8.750           0.438
  21926330.326   -12086350.359 6  -9253180.86521        15.250           0.813
 91  5 30 18 59 44.9980000  0  6G18G11G19G 2G16G 6
  22936734.756    13409126.107 5  10087124.34321        11.250           0.219
  22548732.951    -7653275.507 6  -5864783.67121        17.000           1.000
  20667467.967      163146.508 7    149453.20422        20.000           1.844
  20562699.756   -18381282.151 7 -14194453.70723        23.750           2.875
  23142077.732    -5184665.121 5  -3868212.97121         8.500           0.500
  21919100.826   -12124343.388 6  -9282785.80921        15.250           0.906
 91  5 30 18 59 59.9980000  0  6G18G11G19G 2G16G 6
  22945457.740    13454971.785 5  10122848.07721        10.250           0.406
  22550927.357    -7641754.823 6  -5855806.54521        17.000           0.844
  20669709.803      174919.465 6    158626.91422        19.500           1.938
  20557164.803   -18410387.388 7 -14217133.09223        25.250           2.844
  23143972.592    -5174723.641 5  -3860466.40921         8.750           0.406
  21911874.482   -12162325.383 6  -9312382.14421        15.750           0.844
 91  5 30 19  0 14.9980000  0  6G18G11G19G 2G16G 6
  22954190.826    13500851.863 5  10158598.59421        10.250           0.250
  22553142.107    -7630093.756 6  -5846720.01121        16.000           0.969
  20671958.420      186749.265 7    167844.91822        20.750           1.906
  20551636.475   -18439417.390 7 -14239753.86223        24.000           2.719
  23145879.811    -5164676.642 5  -3852637.61621         7.500           0.406
  21904649.092   -12200294.929 6  -9341968.79221        16.000           0.875
 91  5 30 19  0 29.9980000  0  6G18G11G19G 2G16G 6
  22962927.107    13546766.661 5  10194376.17721        10.500           0.344
  22555391.154    -7618292.016 6                        17.250
  20674222.037      198636.360 6                        19.000
  20546128.295   -18468371.743 7 -14262315.68323        24.250           2.719
  23147819.209    -5154524.131 5  -3844726.61821         8.250           0.375
  21897425.787   -12238251.546 6  -9371545.35221        16.500           0.813
 91  5 30 19  0 44.9980000  0  6G18G11G19G 2G16G 6
  22971675.717    13592717.920 5  10230182.17021        10.750           0.281
  22557662.928    -7606347.798 6                        16.250
  20676492.943      210582.872 6                        19.500
  20540635.686   -18497248.373 7 -14284816.93723        25.750           2.656
  23149764.615    -5144264.156 5  -3836731.88121         8.000           0.438
  21890208.529   -12276193.042 6  -9401110.13621        16.500           0.844
 91  5 30 19  0 59.9980000  0  6G18G11G19G 2G16G 6
  22980425.498    13638698.949 5  10266011.33221        11.750           0.375
  22559964.701    -7594267.764 6  -5818803.71021        17.750           0.906
  20678781.029      222582.439 6    195766.81922        18.250           1.906
  20535149.334   -18526053.679 7 -14307262.63823        23.250           2.656
  23151740.334    -5133903.477 5  -3828658.66421         8.000           0.406
  21882986.482   -12314125.961 6  -9430668.24021        16.250           0.844
 91  5 30 19  1 14.9980000  0  6G18G11G19G 2G16G 6
  22989182.170    13684715.421 5  10301868.14521        11.500           0.313
  22562285.607    -7582046.012 6  -5809280.29321        17.500           0.969
  20681072.279      234641.015 6    205163.08922        19.500           1.844
  20529681.904   -18554781.694 7 -14329648.08723        23.500           2.781
  23153729.272    -5123436.532 5  -3820502.62821         8.000           0.406
  21875769.826   -12352044.165 6  -9460214.87421        16.000           0.750
 91  5 30 19  1 29.9980000  0  6G18G11G19G 2G16G 6
  22997939.795    13730763.318 5  10337749.43521        10.500           0.344
  22564638.482    -7569686.546 6  -5799649.55621        17.500           0.938
  20683383.475      246754.939 6    214602.48322        17.750           1.875
  20524235.811   -18583436.323 7 -14351976.33923        26.500           2.625
  23155741.857    -5112867.089 5  -3812266.73921         8.250           0.438
  21868557.498   -12389951.439 6  -9489752.99321        15.750           0.938
 91  5 30 19  1 44.9980000  0  6G18G11G19G 2G16G 6
  23006713.076    13776842.301 5  10373654.94021        11.500           0.469
  22567015.232    -7557189.447 6  -5789911.57021        17.250           0.938
  20685694.982      258924.265 6    224085.05422        19.500           1.813
  20518791.522   -18612017.356 7 -14374247.27123        23.750           2.594
  23157768.873    -5102195.235 5  -3803951.06721         8.250           0.406
  21861345.584   -12427847.598 6  -9519282.45221        15.750           0.906
 91  5 30 19  1 59.9980000  0  6G18G11G19G 2G16G 6
  23015490.170    13822953.524 6  10409585.56021        12.750           0.375
  22569421.561    -7544553.603 6  -5780065.48721        17.000           0.813
  20688023.951      271150.292 6    233611.81122        18.500           1.781
  20513366.654   -18640523.559 7 -14396459.89923        24.250           2.750
  23159823.084    -5091420.330 5  -3795555.08721         8.250           0.438
  21854138.373   -12465731.399 6  -9548802.28021        16.000           0.938
 91  5 30 19  2 14.9980000  0  6G18G11G19G 2G16G 6
  23024268.107    13869096.820 5  10445541.21121        11.000           0.281
  22571851.068    -7531778.940 6  -5770111.22021        16.500           0.844
  20690356.428      283433.426 6    243183.06722        19.750           1.813
  20507962.545   -18668954.733 7 -14418614.03023        26.500           2.844
  23161891.607    -5080542.178 5  -3787078.65421         7.500           0.438
  21846927.951   -12503602.487 6  -9578312.21521        15.000           0.844
 91  5 30 19  2 29.9980000  0  6G18G11G19G 2G16G 6
  23033056.459    13915275.879 5  10481524.69321        11.250           0.406
  22574307.053    -7518861.905 6  -5760046.01821        17.000           0.875
  20692710.584      295777.275 6    252801.63122        19.000           1.750
  20502561.068   -18697307.145 7 -14440706.82623        23.750           2.844
  23163981.295    -5069557.582 4  -3778519.29621         6.750           0.375
  21839725.787   -12541456.996 6  -9607809.21821        16.000           0.875
 91  5 30 19  2 44.9980000  0  6G18G11G19G 2G16G 6
  23041848.092    13961486.780 5  10517532.98121        11.250           0.344
  22576794.123    -7505806.327 6  -5749872.85821        16.250           0.875
  20695066.201      308178.336 7    262464.77622        20.250           1.719
  20497181.498   -18725584.422 7 -14462741.05523        24.500           2.813
  23166096.678    -5058470.252 5  -3769879.86921         7.750           0.344
  21832525.857   -12579298.568 6  -9637296.14021        16.000           0.906
 91  5 30 19  2 59.9980000  0  6G18G11G19G 2G16G 6
  23050648.615    14007727.709 5  10553564.67821        11.000           0.406
  22579305.615    -7492613.848 6  -5739593.03221        16.750           0.844
  20697437.982      320635.233 6    272171.42822        18.750           1.813
  20491817.647   -18753788.041 7 -14484717.88523        26.000           2.875
  23168227.037    -5047281.727 5  -3761161.57521         8.250           0.313
  21825328.178   -12617128.649 6  -9666774.11621        15.500           0.781
 91  5 30 19  3 14.9980000  0  6G18G11G19G 2G16G 6
  23059455.584    14053999.569 5  10589620.48721        11.250           0.219
  22581841.818    -7479283.388 6  -5729205.67521        16.750           0.844
  20699818.475      333149.235 7    281922.58322        20.500           1.719
  20486460.107   -18781916.766 7 -14506636.37823        22.750           2.781
  23170376.209    -5035991.163 5  -3752363.76521         8.750           0.313
  21818132.240   -12654945.820 6  -9696242.01621        16.000           0.969
 91  5 30 19  3 29.9980000  0  6G18G11G19G 2G16G 6
  23068260.482    14100302.794 5  10625700.72821        10.250           0.344
  22584405.225    -7465814.385 6  -5718710.37321        16.500           0.844
  20702214.311      345721.102 6    291718.82422        19.000           1.813
  20481125.006   -18809969.826 7 -14528495.89323        25.250           2.906
  23172536.576    -5024598.173 5  -3743486.15721         8.500           0.375
  21810937.053   -12692749.347 6  -9725699.29021        16.000           0.875
 91  5 30 19  3 44.9980000  0  6G18G11G19G 2G16G 6
  23077078.178    14146634.276 5  10661802.97621         9.750           0.375
  22586993.709    -7452210.101 6  -5708109.65721        16.250           0.906
  20704613.147      358347.888 7    301557.86522        20.000           1.813
  20475802.561   -18837950.441 7 -14550298.94223        26.000           2.875
  23174728.154    -5013106.018 5  -3734531.29221         8.000           0.250
  21803746.342   -12730542.254 6  -9755148.29621        15.750           0.813
 91  5 30 19  3 59.9980000  0  6G18G11G19G 2G16G 6
  23085902.014    14192995.677 5  10697928.54121        10.250           0.313
  22589608.123    -7438468.624 6  -5697402.02421        17.000           0.875
  20707029.545      371031.681 6    311441.32422        19.000           1.750
  20470487.318   -18865856.414 7 -14572043.85523        24.000           2.875
  23176931.951    -5001513.108 5  -3725497.91021         8.000           0.438
  21796557.397   -12768322.409 6  -9784587.37221        16.000           0.906
 91  5 30 19  4 14.9980000  0  6G18G11G19G 2G16G 6
  23094737.186    14239389.719 5  10734079.54521        10.000           0.313
  22592248.443    -7424587.112 6  -5686585.28921        16.750           0.938
  20709455.279      383775.471 7    321371.53122        20.250           1.844
  20465192.529   -18893684.754 7 -14593728.26423        24.500           2.813
  23179165.334    -4989816.494 5  -3716383.70421         8.500           0.313
  21789367.639   -12806086.783 6  -9814014.13221        15.000           0.969
 91  5 30 19  4 29.9970000  0  6G18G11G19G 2G16G 6
  23103573.712    14285804.510 5  10770246.72721        10.750           0.406
  22594918.017    -7410575.023 6  -5675666.80121        16.750           0.844
  20711892.493      396570.124 6    331341.38222        19.000           1.875
  20459912.532   -18921441.860 7 -14615357.16023        26.250           2.875
  23181407.517    -4978025.808 5  -3707196.21621         8.250           0.250
  21782185.071   -12843841.008 6  -9843432.99421        15.250           0.813
 91  5 30 19  4 44.9970000  0  6G18G11G19G 2G16G 6
  23112406.431    14332249.993 5  10806437.81021         9.250           0.313
  22597608.899    -7396426.768 6  -5664642.21721        17.000           0.844
  20714333.962      409421.335 7    341355.29222        20.750           1.750
  20454640.673   -18949127.581 7 -14636930.45423        23.500           2.938
  23183666.345    -4966135.562 5  -3697931.15221         8.250           0.281
  21775003.571   -12881586.257 6  -9872844.86121        15.750           0.938
 91  5 30 19  4 59.9970000  0  6G18G11G19G 2G16G 6
  23121250.806    14378725.447 5  10842652.22521         9.250           0.344
  22600327.337    -7382141.288 6  -5653510.68721        16.750           0.938
  20716789.103      422330.498 6    351414.36722        18.250           1.750
  20449390.095   -18976737.727 7 -14658444.83623        25.750           2.875
  23185947.040    -4954144.384 5  -3688587.43121         8.750           0.281
  21767821.532   -12919317.565 6  -9902245.85921        15.500           0.875
 91  5 30 19  5 14.9970000  0  6G18G11G19G 2G16G 6
  23130097.649    14425228.220 5  10878887.97521         8.750           0.344
  22603074.165    -7367720.854 6  -5642274.01921        17.250           0.875
  20719255.438      435295.428 6    361516.88822        19.750           1.844
  20444149.462   -19004274.698 7 -14679902.19423        25.250           2.875
  23188239.759    -4942054.931 5  -3679167.12121         7.750           0.250
  21760646.181   -12957037.260 6  -9931637.82521        15.750           0.875
 91  5 30 19  5 29.9970000  0  6G18G11G19G 2G16G 6
  23138949.774    14471754.688 5  10915142.15421         9.250           0.375
  22605843.048    -7353168.864 6  -5630934.82621        17.750           0.906
  20721734.524      448313.042 6    371660.46622        19.500           1.781
  20438918.626   -19031741.533 7 -14701304.93423        23.500           2.813
  23190571.532    -4929870.641 5  -3669672.91921         9.250           0.281
  21753467.470   -12994748.245 6  -9961023.00121        16.250           1.031
 91  5 30 19  5 44.9970000  0  6G18G11G19G 2G16G 6
  23147810.204    14518308.016 5  10951417.27421         8.750           0.375
  22608632.845    -7338482.080 6  -5619490.61021        15.750           0.844
  20724220.392      461386.893 6    381847.86622        19.500           1.844
  20433709.634   -19059134.991 7 -14722650.46423        26.000           2.719
  23192904.087    -4917588.414 5  -3660102.40121         9.250           0.281
  21746295.188   -13032447.086 6  -9990398.69321        16.000           0.969
 91  5 30 19  5 59.9970000  0  6G18G11G19G 2G16G 6
  23156671.157    14564888.128 5  10987713.24921         8.500           0.344
  22611455.212    -7323660.489 6  -5607941.34721        16.250           0.938
  20726724.938      474517.162 6    392079.22722        17.750           1.781
  20428513.774   -19086454.786 7 -14743938.60023        26.750           2.719
  23195259.048    -4905208.298 5  -3650455.60121         8.500           0.250
  21739124.860   -13070133.543 6 -10019764.75221        15.750           1.063
 91  5 30 19  6 14.9970000  0  6G18G11G19G 2G16G 6
  23165543.751    14611495.078 5  11024030.14721         9.250           0.344
  22614302.204    -7308704.218 6  -5596287.14121        17.000           0.844
  20729228.704      487704.096 6    402354.73522        19.750           1.781
  20423320.517   -19113700.643 7 -14765169.14523        23.500           2.719
  23197637.571    -4892730.333 5  -3640732.56621         9.250           0.188
  21731952.954   -13107807.393 6 -10049120.98221        15.750           0.969
 91  5 30 19  6 29.9970000  0  6G18G11G19G 2G16G 6
  23174415.399    14658130.755 5  11060369.44621         8.500           0.438
  22617172.321    -7293610.915 6  -5584526.15521        16.250           0.938
  20731752.384      500950.255 6    412676.40122        19.250           1.719
  20418154.860   -19140870.105 7 -14786340.14123        25.500           2.813
  23200023.595    -4880152.351 5  -3630931.59321         8.500           0.281
  21724787.688   -13145465.983 6 -10078465.32421        16.000           1.125
 91  5 30 19  6 44.9970000  0  6G18G11G19G 2G16G 6
  23183294.774    14704791.466 5  11096728.22221         8.500           0.438
  22620069.118    -7278384.313 6  -5572661.29021        16.500           0.938
  20734282.493      514252.055 6    423041.41622        19.500           1.781
  20413004.524   -19167966.782 7 -14807454.41423        26.750           2.875
  23202439.587    -4867478.360 5  -3621055.79421         7.750           0.219
  21717624.517   -13183112.920 6 -10107800.58021        15.500           1.063
 91  5 30 19  6 59.9970000  0  6G18G11G19G 2G16G 6
  23192178.915    14751476.623 5  11133106.05721         9.250           0.313
  22622996.056    -7263025.262 6  -5560693.23821        17.250           0.844
  20736825.368      527608.850 6    433449.28922        19.250           1.750
  20407854.524   -19194991.337 7 -14828512.51123        24.000           2.906
  23204863.298    -4854709.070 5  -3611105.74221         8.250           0.188
  21710461.759   -13220748.702 6 -10137127.15121        16.000           1.000
 91  5 30 19  7 14.9970000  0  6G18G11G19G 2G16G 6
  23201070.399    14798188.739 5  11169504.90321         8.750           0.250
  22625942.165    -7247530.757 6  -5548619.62021        17.500           0.906
  20739376.681      541023.964 6    443902.60322        19.250           1.844
  20402726.642   -19221940.522 7 -14849511.86323        25.000           3.031
  23207315.774    -4841841.797 5  -3601079.32321         9.500           0.344
  21703303.954   -13258370.142 6 -10166442.54121        15.750           1.094
 91  5 30 19  7 29.9970000  0  6G18G11G19G 2G16G 6
  23209959.157    14844927.481 5  11205924.49921         8.750           0.344
  22628919.392    -7231901.279 6  -5536440.83421        17.250           0.844
  20741943.228      554497.072 6    454401.11222        18.000           1.813
  20397618.274   -19248814.915 7 -14870452.92123        27.500           2.969
  23209785.860    -4828876.919 5  -3590976.89021         8.500           0.344
  21696146.517   -13295977.386 6 -10195746.86521        15.750           1.063
 91  5 30 19  7 44.9970000  0  6G18G11G19G 2G16G 6
  23218866.790    14891693.448 5  11242365.30121         9.500           0.313
  22631916.118    -7216136.308 6  -5524156.46821        17.250           0.750
  20744516.282      568029.197 7    464945.60022        20.000           1.906
  20392511.782   -19275613.568 7 -14891334.99623        23.500           3.000
  23212272.603    -4815814.167 5  -3580798.20421         9.500           0.344
  21688992.220   -13333569.636 6 -10225039.51121        16.250           0.969
 91  5 30 19  7 59.9970000  0  6G18G11G19G 2G16G 6
  23227768.829    14938483.594 5  11278824.96221        10.000           0.281
  22634944.587    -7200238.624 6  -5511768.69021        18.000           0.875
  20747104.360      581617.638 6    475533.97522        18.500           1.719
  20387427.228   -19302338.933 7 -14912159.93923        24.750           3.000
  23214773.306    -4802656.265 5  -3570545.32721         8.500           0.250
  21681842.657   -13371149.426 6 -10254322.44621        16.750           1.031
 91  5 30 19  8 14.9970000  0  6G18G11G19G 2G16G 6
  23236676.767    14985296.434 5  11315302.32621         9.000           0.281
  22637991.548    -7184209.773 6  -5499278.70421        16.500           0.844
  20749697.360      595261.090 6    486165.20822        18.750           1.875
  20382363.392   -19328992.504 7 -14932928.93723        27.000           2.969
  23217298.103    -4789404.703 5  -3560219.48321         8.500           0.281
  21674692.978   -13408717.990 6 -10283596.61821        17.000           1.031
 91  5 30 19  8 29.9970000  0  6G18G11G19G 2G16G 6
  23245589.063    15032135.647 5  11351800.18621         8.500           0.313
  22641071.993    -7168045.918 6  -5486683.51521        16.500           0.781
  20752306.415      608963.668 6    496842.52822        19.000           1.844
  20377298.329   -19355570.192 7 -14953638.83023        24.250           2.938
  23219834.907    -4776055.640 5  -3549817.66821         8.750           0.313
  21667547.634   -13446271.213 6 -10312858.86321        17.250           1.094
 91  5 30 19  8 44.9970000  0  6G18G11G19G 2G16G 6
  23254505.735    15078999.958 5  11388317.60521         8.750           0.313
  22644168.931    -7151748.121 6  -5473983.97921        16.250           0.844
  20754921.704      622724.543 6    507565.26322        19.000           1.781
  20372250.188   -19382072.777 7 -14974290.19423        23.000           2.875
  23222397.876    -4762610.514 5  -3539341.04221         9.250           0.219
  21660403.306   -13483809.823 6 -10342109.70021        17.750           1.031
 91  5 30 19  8 59.9970000  0  6G18G11G19G 2G16G 6
  23263427.509    15125890.679 5  11424855.59221         7.750           0.281
  22647299.118    -7135315.341 6  -5461179.24021        15.750           0.844
  20757559.220      636545.115 6    518334.51522        17.750           1.813
  20367234.134   -19408499.201 7 -14994882.17323        27.750           2.813
  23224972.282    -4749068.057 5  -3528788.54621         9.250           0.219
  21653263.165   -13521332.523 6 -10371348.14121        16.750           1.094
 91  5 30 19  9 14.9970000  0  6G18G11G19G 2G16G 6
  23272364.407    15172808.516 5  11461414.70621         9.000           0.344
  22650453.618    -7118746.503 6  -5448268.49021        16.500           0.813
  20760194.423      650426.527 6    529151.17222        18.750           1.813
  20362213.587   -19434848.121 7 -15015413.79623        25.500           2.844
  23227569.782    -4735427.409 5  -3518159.51021         9.250           0.281
  21646125.603   -13558837.993 6 -10400573.16421        17.000           1.000
 91  5 30 19  9 29.9970000  0  6G18G11G19G 2G16G 6
  23281293.728    15219747.930 5  11497990.64521         8.500           0.344
  22653625.556    -7102047.382 6  -5435256.21521        16.000           0.719
  20762847.149      664363.492 6    540011.12322        18.750           1.750
  20357207.884   -19461125.076 7 -15035889.35823        23.500           2.938
  23230185.657    -4721694.558 5  -3507458.63721        10.000           0.156
  21638990.134   -13596331.609 6 -10429788.95621        17.750           1.063
 91  5 30 19  9 44.9970000  0  6G18G11G19G 2G16G 6
  23290230.532    15266713.157 5  11534586.69521         8.000           0.250
  22656828.243    -7085213.519 6  -5422138.94721        16.500           0.750
  20765510.774      678360.388 6    550917.77222        18.750           1.875
  20352228.196   -19487325.514 7 -15056305.25523        26.000           2.844
  23232811.884    -4707865.008 5  -3496682.44621         9.000           0.313
  21631860.024   -13633808.782 6 -10458991.91921        17.000           1.156
 91  5 30 19  9 59.9970000  0  6G18G11G19G 2G16G 6
  23299168.946    15313700.558 5  11571200.00021         8.750           0.188
  22660060.329    -7068248.373 6  -5408919.39221        16.500           0.875
  20768186.563      692414.157 6    561868.74222        17.500           1.844
  20347260.556   -19513452.758 8 -15076664.12923        28.000           2.688
  23235465.657    -4693942.373 5  -3485833.63821         8.750           0.219
  21624730.321   -13671272.719 6 -10488184.57421        16.500           0.969
 91  5 30 19 10 14.9970000  0  6G18G11G19G 2G16G 6
  23308117.228    15360710.601 5  11607831.00121         9.250           0.188
  22663311.618    -7051151.591 6  -5395597.25521        17.000           0.813
  20770869.454      706525.352 6                        18.750
  20342294.556   -19539506.076 7 -15096965.43223        24.750           2.750
  23238127.423    -4679926.210 5                         8.000
  21617604.415   -13708722.714 6 -10517366.36821        17.500           1.094
 91  5 30 19 10 29.9970000  0  6G18G11G19G 2G16G 6
  23317069.165    15407746.083 5  11644481.83121         9.250           0.281
  22666589.376    -7033920.223 6  -5382170.25221        17.000           0.875
  20773568.134      720697.178 6                        17.750
  20337354.485   -19565482.499 7 -15117206.78923        26.000           2.906
  23240818.040    -4665813.667 5                         8.000
  21610480.954   -13746155.530 6 -10546534.78321        17.250           1.094
 91  5 30 19 10 44.9970000  0  6G18G11G19G 2G16G 6
  23326020.306    15454806.750 5  11681152.27421         8.500           0.250
  22669897.063    -7016554.501 6  -5368638.55121        16.500           0.875
  20776274.946      734929.607 6                        18.500
  20332430.321   -19591382.095 7 -15137388.26423        27.750           2.750
  23243516.126    -4651605.293 5                         8.000
  21603361.306   -13783571.121 6 -10575689.77821        17.250           1.063
 91  5 30 19 10 59.9970000  0  6G18G11G19G 2G16G 6
  23334981.751    15501885.559 5  11717836.80521         9.000           0.250
  22673223.610    -6999061.109 6  -5355007.36721        17.000           0.781
  20778996.946      749216.296 6                        18.500
  20327506.485   -19617211.248 7 -15157514.88423        25.000           2.844
  23246240.876    -4637307.748 5                         8.250
  21596243.595   -13820975.883 6 -10604836.33221        17.500           1.156
 91  5 30 19 11 14.9970000  0  6G18G11G19G 2G16G 6
  23343947.048    15548988.777 5  11754540.43321         8.000           0.313
  22676578.829    -6981433.956 6  -5341271.94821        17.250           0.813
  20781724.548      763563.697 6                        18.250
  20322612.173   -19642963.511 7 -15177581.57223        27.250           2.750
  23248980.610    -4622915.268 5                         8.250
  21589126.251   -13858363.357 6 -10633969.40321        17.250           1.188
 91  5 30 19 11 29.9970000  0  6G18G11G19G 2G16G 6
  23352912.595    15596114.968 4  11791261.92921         7.250           0.250
  22679958.509    -6963674.733 6  -5327433.62621        16.750           0.938
  20784469.196      777970.362 6    628535.76022        16.750           1.813
  20317726.345   -19668640.415 7 -15197589.54223        27.500           2.844
  23251733.095    -4608429.177 5  -3419201.33721         8.000           0.375
  21582015.696   -13895734.943 6 -10663090.10321        17.500           1.125
 91  5 30 19 11 44.9970000  0  6G18G11G19G 2G16G 6
  23361880.923    15643262.635 4  11828000.09221         6.750           0.188
  22683364.353    -6945784.761 6  -5313493.40821        16.500           0.781
  20787217.907      792435.337 6    639807.14122        19.000           1.875
  20312847.813   -19694243.132 7 -15217539.71523        25.750           2.750
  23254510.188    -4593850.958 5  -3407841.74321         7.750           0.250
  21574907.181   -13933091.600 6 -10692199.17221        17.250           1.156
 91  5 30 19 11 59.9970000  0  6G18G11G19G 2G16G 6
  23370863.032    15690427.494 5  11864751.68321         7.750           0.281
  22686789.415    -6927768.117 6  -5299454.51321        15.750           0.875
  20789983.657      806954.835 6    651121.00922        17.750           1.844
  20307994.673   -19719775.433 7 -15237434.99623        27.500           2.844
  23257293.032    -4579184.729 5  -3396413.53821         7.750           0.156
  21567801.110   -13970437.072 6 -10721299.52321        17.250           1.063
 91  5 30 19 12 14.9970000  0  6G18G11G19G 2G16G 6
  23379838.532    15737616.457 5  11901522.08021         7.750           0.344
  22690244.032    -6909617.857 6  -5285311.47021        15.750           0.781
  20792758.774      821535.792 6    662482.76922        19.000           1.750
  20303151.595   -19745230.321 7 -15257269.95423        27.500           2.813
  23260111.829    -4564423.880 5  -3384911.66621         8.500           0.219
  21560698.134   -14007764.284 6 -10750385.63221        17.250           0.969
 91  5 30 19 12 29.9970000  0  6G18G11G19G 2G16G 6
  23388827.204    15784825.580 5  11938308.18821         8.500           0.375
  22693727.649    -6891337.665 6  -5271067.19021        16.250           0.813
  20795543.798      836174.820 6    673889.79122        17.750           1.750
  20298316.431   -19770611.225 7 -15277047.28423        25.000           2.813
  23262941.017    -4549571.947 5  -3373338.80221         8.750           0.125
  21553599.110   -14045076.538 6 -10779460.10221        18.250           1.000
 91  5 30 19 12 44.9970000  0  6G18G11G19G 2G16G 6
  23397817.681    15832059.851 5  11975113.85021         9.000           0.313
  22697227.142    -6872922.720 6  -5256717.92321        15.750           0.781
  20798339.462      850877.017 6    685346.00922        18.750           1.781
  20293504.946   -19795913.321 7 -15296763.19023        27.000           2.906
  23265782.970    -4534624.327 5  -3361691.32321         8.750           0.188
  21546498.415   -14082368.839 6 -10808519.03121        16.750           1.094
 91  5 30 19 12 59.9970000  0  6G18G11G19G 2G16G 6
  23406808.946    15879313.301 5  12011934.51321         8.500           0.250
  22700753.626    -6854379.192 6  -5242268.44121        15.250           0.875
  20801149.196      865636.659 6    696847.00322        17.500           1.781
  20288704.860   -19821142.348 7 -15316422.15823        27.500           2.938
  23268639.837    -4519587.226 5  -3349974.15821         8.000           0.156
  21539407.446   -14119646.822 6 -10837566.78521        17.500           1.031
 91  5 30 19 13 14.9970000  0  6G18G11G19G 2G16G 6
  23415807.673    15926585.736 5  12048769.93221         9.750           0.250
  22704309.368    -6835707.079 6  -5227718.77321        15.500           0.781
  20803968.790      880454.034 6    708392.98022        18.750           1.719
  20283915.548   -19846298.091 7 -15336024.02723        25.750           2.844
  23271517.462    -4504460.299 5  -3338186.97621         8.500           0.219
  21532313.446   -14156910.222 6 -10866603.19521        17.250           1.031
 91  5 30 19 13 29.9970000  0  6G18G11G19G 2G16G 6
  23424802.360    15973875.191 5  12085618.65621         8.500           0.250
  22707889.938    -6816908.110 6  -5213070.27021        15.750           0.813
  20806802.524      895327.595 6    719982.73922        17.250           1.750
  20279146.243   -19871381.972 7 -15355569.89323        27.500           2.719
  23274417.345    -4489245.568 4  -3326331.41321         7.250           0.281
  21525224.048   -14194160.530 6 -10895629.39821        16.750           1.094
 91  5 30 19 13 44.9970000  0  6G18G11G19G 2G16G 6
  23433803.493    16021183.872 5  12122482.34821         8.000           0.156
  22711490.267    -6797980.264 6  -5198321.33721        16.250           0.906
  20809639.704      910259.490 6    731617.95722        18.750           1.688
  20274385.454   -19896391.889 7 -15375058.13423        27.250           2.719
  23277330.501    -4473941.348 4  -3314406.12121         7.250           0.281
  21518141.634   -14231395.287 6 -10924643.47021        17.750           1.156
 91  5 30 19 13 59.9970000  0  6G18G11G19G 2G16G 6
  23442814.149    16068513.310 5  12159362.20921         8.000           0.188
  22715115.392    -6778922.142 6  -5183470.88421        16.000           0.875
  20812496.290      925251.531 6    743300.04122        17.000           1.656
  20269636.517   -19921326.288 7 -15394487.53623        26.000           2.781
  23280254.556    -4458546.290 4  -3302410.04221         7.250           0.188
  21511059.985   -14268612.860 6 -10953644.16421        18.250           1.125
 91  5 30 19 14 14.9970000  0  6G18G11G19G 2G16G 6
  23451819.134    16115865.703 4  12196259.93121         7.250           0.156
  22718768.563    -6759731.125 6  -5168516.89921        16.500           0.906
  20815357.462      940306.374 6    755031.05722        18.000           1.719
  20264910.642   -19946182.547 8 -15413856.03523        28.000           2.688
  23283204.446    -4443057.829 5  -3290341.16721         7.500           0.375
  21503979.938   -14305810.392 6 -10982629.24021        17.500           1.063
 91  5 30 19 14 29.9970000  0  6G18G11G19G 2G16G 6
  23460833.798    16163238.058 5  12233173.24021         7.750           0.281
  22722447.509    -6740410.128 6  -5153461.59521        16.250           0.813
  20818235.079      955421.533 6    766809.07422        17.000           1.688
  20260195.478   -19970963.091 8 -15433165.53423        28.500           2.719
  23286168.399    -4427478.875 5  -3278201.81921         7.750           0.344
  21496907.735   -14342990.368 6 -11011600.63821        18.000           1.125
 91  5 30 19 14 44.9970000  0  6G18G11G19G 2G16G 6
  23469852.407    16210629.670 5  12270101.51621         8.250           0.281
  22726144.157    -6720960.233 6  -5138305.87021        15.750           0.750
  20821120.774      970596.443 6    778633.64422        18.500           1.781
  20255491.259   -19995668.678 7 -15452416.64023        27.250           2.719
  23289150.313    -4411810.588 5  -3265992.81021         7.750           0.344
  21489833.142   -14380153.376 6 -11040558.80821        17.750           1.063
 91  5 30 19 14 59.9970000  0  6G18G11G19G 2G16G 6
  23478879.454    16258041.210 5  12307045.33221         9.500           0.438
  22729873.853    -6701380.368 6  -5123048.87721        16.250           0.844
  20824024.157      985832.175 6    790505.62322        17.500           1.688
  20250805.431   -20020298.082 7 -15471608.37223        27.250           2.688
  23292152.712    -4396051.878 5  -3253713.34921         7.750           0.219
  21482766.001   -14417298.318 6 -11069502.91221        17.750           1.188
 91  5 30 19 15 14.9970000  0  6G18G11G19G 2G16G 6
  23487902.048    16305467.981 5  12344001.04921        10.000           0.281
  22733624.321    -6681675.411 6  -5107694.38521        16.000           0.844
  20826931.313     1001124.230 6    802421.48622        17.750           1.813
  20246135.290   -20044856.057 8 -15490744.43723        28.750           2.781
  23295172.571    -4380207.647 4  -3241367.23021         7.000           0.281
  21475700.946   -14454429.650 6 -11098436.38921        17.500           1.156
 91  5 30 19 15 29.9970000  0  6G18G11G19G 2G16G 6
  23496933.235    16352916.329 5  12380973.54421        10.500           0.313
  22737396.493    -6661838.641 6  -5092237.20421        16.000           0.813
  20829854.712     1016479.360 6    814386.49822        17.250           1.750
  20241473.267   -20069335.636 7 -15509819.43423        26.500           2.750
  23298192.993    -4364271.509 4  -3228949.54021         6.250           0.219
  21468637.587   -14491540.511 6 -11127353.93221        18.000           1.219
 91  5 30 19 15 44.9970000  0  6G18G11G19G 2G16G 6
  23505963.845    16400382.732 5  12417960.11821         9.750           0.344
  22741199.407    -6641873.717 6  -5076680.15221        16.250           0.750
  20832787.782     1031894.319 6    826398.12122        18.500           1.813
  20236827.806   -20093740.294 7 -15528836.04623        26.500           2.781
  23301252.079    -4348246.866 4  -3216462.86521         6.750           0.313
  21461579.829   -14528633.998 6 -11156257.94621        17.750           1.156
 91  5 30 19 15 59.9970000  0  6G18G11G19G 2G16G 6
  23514998.931    16447864.440 5  12454958.61221         9.500           0.250
  22745021.048    -6621783.623 6  -5061025.55821        15.750           0.813
  20835732.626     1047366.568 6    838454.37722        17.500           1.875
  20232201.712   -20118072.848 7 -15547796.45823        27.750           2.750
  23304312.837    -4332136.781 4  -3203909.65721         6.750           0.281
  21454523.532   -14565712.757 6 -11185150.46221        17.250           1.219
 91  5 30 19 16 14.9970000  0  6G18G11G19G 2G16G 6
  23524037.087    16495366.828 5  12491973.21221         8.750           0.219
  22748871.360    -6601562.600 6  -5045268.95121        16.000           0.750
  20838683.868     1062902.170 6    850560.01722        18.250           1.875
  20227583.220   -20142327.182 7 -15566695.92923        26.750           2.781
  23307397.985    -4315935.813 4  -3191285.57521         6.750           0.375
  21447469.188   -14602770.820 6 -11214026.85521        17.250           1.125
 91  5 30 19 16 29.9970000  0  6G18G11G19G 2G16G 6
  23533078.345    16542884.890 5  12529000.03421         7.750           0.188
  22752741.821    -6581215.808 6  -5029414.33221        16.000           0.813
  20841655.087     1078496.049 6    862711.06622        17.750           1.750
  20222981.243   -20166508.242 7 -15585538.30823        26.500           2.781
  23310496.126    -4299649.041 4  -3178594.63821         6.750           0.281
  21440422.259   -14639812.908 6 -11242890.81421        17.750           1.125
 91  5 30 19 16 44.9970000  0  6G18G11G19G 2G16G 6
  23542121.571    16590419.023 4  12566039.38621         6.500           0.063
  22756635.392    -6560742.864 6  -5013461.43021        16.000           0.688
  20844634.368     1094148.984 6    874908.12722        18.750           1.875
  20218396.321   -20190615.476 7 -15604323.14623        27.500           2.813
  23313611.603    -4283276.204 4  -3165836.66621         6.250           0.344
  21433377.251   -14676838.261 6 -11271741.72021        17.750           1.156
 91  5 30 19 16 59.9970000  0  6G18G11G19G 2G16G 6
  23551173.313    16637969.621 4  12603091.58921         7.250           0.188
  22760553.728    -6540143.095 6  -4997409.69421        16.250           0.813
  20847626.032     1109861.902 6    887151.93222        18.250           1.781
  20213821.728   -20214647.937 7 -15623049.73623        26.500           2.813
  23316744.954    -4266816.622 4  -3153011.09221         7.250           0.344
  21426335.095   -14713845.891 6 -11300578.82321        17.750           1.156
 91  5 30 19 17 14.9970000  0  6G18G11G19G 2G16G 6
  23560227.345    16685536.871 5  12640156.75821         7.750           0.250
  22764497.993    -6519416.220 6  -4981258.91121        15.500           0.750
  20850625.806     1125635.485 6    899443.01122        19.000           1.781
  20209262.485   -20238605.218 7 -15641717.73523        26.500           2.844
  23319894.118    -4250270.009 4  -3140117.69321         7.000           0.219
  21419294.071   -14750835.186 6 -11329401.63921        17.750           1.125
 91  5 30 19 17 29.9970000  0  6G18G11G19G 2G16G 6
  23569283.048    16733122.465 5  12677236.19621         7.500           0.250
  22768468.829    -6498561.084 6  -4965008.19821        15.750           0.750
  20853639.040     1141471.126 6    911782.43422        17.250           1.875
  20204719.860   -20262485.922 7 -15660326.05923        27.250           2.969
  23323054.384    -4233635.431 4  -3127155.77421         6.750           0.406
  21412261.556   -14787804.619 6 -11358208.97921        17.750           1.219
 91  5 30 19 17 44.9970000  0  6G18G11G19G 2G16G 6
  23578346.306    16780727.703 5  12714330.87621         8.750           0.344
  22772462.181    -6477576.189 6  -4948656.35421        15.500           0.625
  20856661.845     1157370.553 6    924171.57222        18.000           1.906
  20200186.774   -20286288.271 7 -15678873.33523        26.750           2.844
  23326232.056    -4216911.471 3  -3114124.16021         5.750           0.344
  21405228.556   -14824752.407 6 -11386999.44921        17.750           1.156
 91  5 30 19 17 59.9970000  0  6G18G11G19G 2G16G 6
  23587410.149    16828345.120 5  12751435.15721        10.000           0.219
  22776474.938    -6456468.992 6  -4932209.23821        15.750           0.750
  20859702.821     1173326.538 6    936604.78522        17.750           1.750
  20195672.228   -20310019.631 7 -15697365.30223        27.250           2.844
  23329428.798    -4200105.605 3  -3101028.75721         6.000           0.375
  21398200.087   -14861685.633 6 -11415778.57021        17.500           1.156
 91  5 30 19 18 14.9970000  0  6G18G11G19G 2G16G 6
  23596467.118    16875978.388 5  12788551.75121         8.750           0.281
  22780518.024    -6435235.516 6  -4915663.70621        15.500           0.844
  20862749.321     1189343.372 6    949085.39622        18.000           1.719
  20191174.345   -20333675.626 7 -15715798.52623        27.500           2.813
  23332657.954    -4183214.055 4  -3087866.56621         7.250           0.219
  21391177.649   -14898599.915 6 -11444542.92821        18.250           1.156
 91  5 30 19 18 29.9970000  0  6G18G11G19G 2G16G 6
  23605531.509    16923629.481 5  12825682.20621         7.500           0.313
  22784580.853    -6413874.055 6  -4899018.43621        14.500           0.688
  20865814.259     1205423.200 6    961615.11222        16.750           1.750
  20186683.384   -20357254.239 7 -15734171.46323        27.000           2.875
  23335883.040    -4166234.786 5  -3074636.05821         7.500           0.469
  21384156.993   -14935493.200 6 -11473290.92021        18.500           1.188
 91  5 30 19 18 44.9970000  0  6G18G11G19G 2G16G 6
  23614605.798    16971296.035 4  12862824.65321         6.750           0.188
  22788674.462    -6392386.889 6  -4882275.24021        15.000           0.906
  20868879.509     1221564.077 6    974192.38622        18.250           1.781
  20182213.368   -20380757.497 7 -15752485.68623        27.500           2.750
  23339138.360    -4149170.315 5  -3061339.11321         8.000           0.500
  21377139.962   -14972367.392 6 -11502024.03821        18.750           1.094
 91  5 30 19 18 59.9970000  0  6G18G11G19G 2G16G 6
  23623677.376    17018976.000 4  12899977.64821         6.250           0.281
  22792783.368    -6370776.090 6  -4865435.68921        15.250           0.844
  20871962.438     1237764.148 6    986815.79322        17.250           1.688
  20177752.188   -20404187.277 7 -15770742.64823        27.250           2.781
  23342391.571    -4132022.692 4  -3047977.43321         7.000           0.500
  21370125.142   -15009224.217 6 -11530743.63321        18.500           1.125
 91  5 30 19 19 14.9970000  0  5G11G19G 2G16G 6
  22796924.517    -6349041.821 6  -4848499.94421        15.750           0.719
  20875056.321     1254023.459 6    999485.36422        18.750           1.688
  20173306.798   -20427543.484 7 -15788942.29523        26.250           2.688
  23345674.626    -4114792.372 4  -3034551.28421         7.000           0.438
  21363114.790   -15046063.634 6 -11559449.65821        18.750           1.125
 91  5 30 19 19 29.9970000  0  5G11G19G 2G16G 6
  22801080.868    -6327182.507 6  -4831466.74921        16.250           0.844
  20878162.243     1270344.003 6   1012202.63922        17.250           1.719
  20168881.290   -20450824.509 8 -15807083.34023        28.250           2.875
  23348970.954    -4097477.752 5  -3021059.44121         7.500           0.344
  21356108.720   -15082883.651 6 -11588140.56921        18.250           1.219
 91  5 30 19 19 44.9970000  0  5G11G19G 2G16G 6
  22805262.517    -6305197.798 6  -4814335.83721        15.500           0.906
  20881276.798     1286726.226 6   1024967.97922        18.000           1.563
  20164464.946   -20474029.817 7 -15825165.39123        27.750           2.875
  23352278.110    -4080078.468 5  -3007501.61621         7.500           0.500
  21349106.165   -15119683.600 6 -11616815.83721        18.250           1.250
 91  5 30 19 19 59.9970000  0  5G11G19G 2G16G 6
  22809468.032    -6283093.493 6  -4797111.74621        16.000           0.813
  20884414.251     1303164.541 6   1037777.03022        17.250           1.625
  20160061.196   -20497164.796 7 -15843192.64823        26.500           2.844
  23355603.181    -4062600.535 5  -2993882.54621         7.750           0.344
  21342106.306   -15156468.849 6 -11645479.65121        18.250           1.438
 91  5 30 19 20 14.9970000  0  5G11G19G 2G16G 6
  22813701.243    -6260863.303 6  -4779789.55621        16.000           0.625
  20887546.657     1319665.559 6   1050634.93922        18.500           1.656
  20155673.196   -20520223.091 7 -15861160.13623        27.250           2.875
  23358948.978    -4045037.620 5  -2980197.22921         7.750           0.438
  21335110.040   -15193232.941 6 -11674126.98021        17.500           1.344
 91  5 30 19 20 29.9970000  0  5G11G19G 2G16G 6
  22817955.353    -6238511.137 6  -4762372.30921        16.750           0.688
  20890703.267     1336225.732 6   1063538.94422        17.500           1.688
  20151298.032   -20543208.347 7 -15879070.72023        26.750           2.781
  23362308.860    -4027393.409 5  -2966448.57121         8.000           0.438
  21328116.345   -15229979.137 6 -11702760.37121        17.500           1.344
 91  5 30 19 20 44.9970000  0  5G11G19G 2G16G 6
  22822232.165    -6216036.947 6  -4744859.99721        15.750           0.719
  20893861.032     1352845.449 6   1076489.35122        18.750           1.688
  20146934.017   -20566120.185 7 -15896924.10523        25.250           2.938
  23365674.610    -4009668.285 5  -2952636.87121         8.000           0.313
  21321126.446   -15266707.153 6 -11731379.59821        17.750           1.406
 91  5 30 19 20 59.9970000  0  5G11G19G 2G16G 6
  22826533.829    -6193437.611 6  -4727250.16821        15.750           0.719
  20897036.642     1369528.230 6   1089488.88822        18.500           1.625
  20142593.235   -20588955.255 7 -15914717.65123        26.000           2.938
  23369071.220    -3991858.936 5  -2938759.51621         8.500           0.281
  21314143.813   -15303413.506 6 -11759981.93121        18.000           1.313
 91  5 30 19 21 14.9970000  0  5G11G19G 2G16G 6
  22830851.884    -6170714.365 6  -4709543.78121        15.250           0.719
  20900223.743     1386273.123 6   1102536.82922        18.750           1.719
  20138263.634   -20611714.452 7 -15932452.08223        27.000           2.906
  23372467.603    -3973966.875 5  -2924817.69521         7.750           0.344
  21307164.384   -15340098.872 6 -11788567.92021        18.000           1.344
 91  5 30 19 21 29.9970000  0  5G11G19G 2G16G 6
  22835201.790    -6147870.473 6  -4691743.38321        15.750           0.719
  20903425.251     1403077.132 6   1115630.83622        17.250           1.688
  20133947.845   -20634400.900 7 -15950129.83723        27.000           3.031
  23375893.837    -3955995.437 5  -2910814.05121         8.000           0.313
  21300184.048   -15376766.316 6 -11817139.93821        17.750           1.406
 91  5 30 19 21 44.9970000  0  5G11G19G 2G16G 6
  22839576.009    -6124904.669 6  -4673847.97621        15.750           0.625
  20906629.704     1419941.721 6   1128772.05022        17.750           1.719
  20129643.251   -20657013.094 7 -15967749.72123        26.500           3.031
  23379331.290    -3937943.348 5  -2896747.56321         9.250           0.313
  21293212.470   -15413414.146 6 -11845696.67721        18.000           1.281
 91  5 30 19 21 59.9970000  0  5G11G19G 2G16G 6
  22843964.681    -6101817.887 6  -4655858.32021        15.500           0.844
  20909851.063     1436866.291 6   1141960.00422        17.250           1.719
  20125354.063   -20679551.897 7 -15985312.41923        27.000           2.938
  23382777.978    -3919811.553 5  -2882618.96421         8.500           0.313
  21286241.345   -15450042.997 6 -11874238.63421        18.250           1.406
 91  5 30 19 22 14.9970000  0  5G11G19G 2G16G 6
  22848386.095    -6078607.691 6  -4637772.49221        16.000           0.656
  20913080.306     1453853.572 6   1155196.81722        18.500           1.688
  20121078.556   -20702014.475 7 -16002815.72423        26.500           3.000
  23386242.931    -3901597.493 5  -2868426.28721         7.750           0.281
  21279274.845   -15486649.912 6 -11902763.48022        18.750           1.500
 91  5 30 19 22 29.9970000  0  5G11G19G 2G16G 6
  22852822.181    -6055274.723 6  -4619590.99421        15.750           0.688
  20916333.392     1470903.202 6   1168482.21022        18.000           1.625
  20116817.228   -20724401.366 7 -16020260.05323        26.250           2.938
  23389718.696    -3883302.137 4  -2854170.22721         6.500           0.313
  21272313.142   -15523235.436 6 -11931271.67021        18.250           1.375
 91  5 30 19 22 44.9970000  0  5G11G19G 2G16G 6
  22857287.876    -6031820.533 6  -4601315.03121        15.500           0.688
  20919584.329     1488014.054 6   1181815.31622        18.750           1.656
  20112573.407   -20746713.798 7 -16037646.35723        27.000           2.938
  23393222.384    -3864927.198 4  -2839852.17921         7.250           0.313
  21265352.337   -15559800.529 6 -11959763.93021        17.250           1.406
 91  5 30 19 22 59.9970000  0  5G11G19G 2G16G 6
  22861772.665    -6008245.610 6  -4582945.01721        15.000           0.781
  20922852.298     1505185.916 6   1195195.96322        17.000           1.750
  20108344.438   -20768951.998 8 -16054974.82123        28.000           2.875
  23396737.017    -3846473.232 5  -2825472.52321         8.250           0.219
  21258399.087   -15596345.447 6 -11988240.48021        18.500           1.344
 91  5 30 19 23 14.9970000  0  5G11G19G 2G16G 6
  22866282.478    -5984549.204 6  -4564480.32821        16.000           0.688
  20926130.806     1522419.774 6   1208624.92222        18.500           1.594
  20104122.188   -20791114.930 7 -16072244.64423        25.750           2.938
  23400260.657    -3827939.325 5  -2811030.64621         7.750           0.281
  21251450.532   -15632868.974 6 -12016700.36921        18.500           1.313
 91  5 30 19 23 29.9970000  0  5G11G19G 2G16G 6
  22870815.837    -5960732.944 6  -4545922.23921        16.250           0.594
  20929422.845     1539714.346 6   1222101.17422        17.250           1.594
  20099917.282   -20813203.926 7 -16089456.84323        25.750           3.000
  23403802.017    -3809326.956 4  -2796527.55721         7.250           0.406
  21244504.048   -15669372.284 6 -12045144.47621        18.750           1.406
 91  5 30 19 23 44.9970000  0  5G11G19G 2G16G 6
  22875368.657    -5936796.330 6  -4527270.36221        15.250           0.719
  20932726.282     1557070.385 6   1235625.33422        18.250           1.656
  20095733.392   -20835218.380 7 -16106610.95523        27.750           2.906
  23407361.767    -3790635.991 5  -2781963.24621         7.500           0.313
  21237560.399   -15705854.644 6 -12073572.27322        18.250           1.500
 91  5 30 19 23 59.9970000  0  5G11G19G 2G16G 6
  22879945.048    -5912738.166 6  -4508523.77221        14.500           0.688
  20936045.149     1574489.412 6   1249198.57522        17.500           1.563
  20091556.243   -20857156.988 7 -16123705.97323        26.750           3.031
  23410936.806    -3771865.320 5  -2767336.83421         8.250           0.250
  21230623.392   -15742314.342 6 -12101982.41821        18.250           1.375
 91  5 30 19 24 14.9970000  0  5G11G19G 2G16G 6
  22884547.579    -5888557.034 6  -4489681.37121        15.250           0.625
  20939362.923     1591973.218 6   1262822.29522        17.500           1.531
  20087397.657   -20879018.061 7 -16140740.57823        27.250           2.938
  23414520.220    -3753013.344 5  -2752647.04721         7.750           0.375
  21223688.899   -15778749.567 6 -12130373.48522        17.500           1.500
 91  5 30 19 24 29.9970000  0  5G11G19G 2G16G 6
  22889175.282    -5864256.615 6  -4470746.02121        15.250           0.719
  20942710.017     1609518.368 6   1276493.81622        17.500           1.531
  20083252.556   -20900804.763 7 -16157717.22223        27.750           3.031
  23418124.657    -3734083.790 5  -2737896.82421         8.250           0.250
  21216760.196   -15815163.642 6 -12158748.07121        17.500           1.344
 91  5 30 19 24 44.9970000  0  4G11G19G 2G 6
  22893821.462    -5839839.132 6  -4451719.45921        15.000           0.750
  20946053.642     1627122.906 6   1290211.60422        17.750           1.531
  20079120.368   -20922519.223 7 -16174637.58123        27.250           2.906
  21209834.915   -15851558.413 6 -12187107.61521        18.500           1.438
 91  5 30 19 24 59.9970000  0  4G11G19G 2G 6
  22898488.556    -5815301.910 6  -4432599.57321        15.500           0.625
  20949420.806     1644789.940 6   1303978.10522        17.000           1.594
  20074999.009   -20944158.503 7 -16191499.35923        26.000           3.031
  21202913.548   -15887930.806 6 -12215449.73521        18.500           1.313
 91  5 30 19 25 14.9970000  0  4G11G19G 2G 6
  22903179.157    -5790644.826 6  -4413386.30221        15.500           0.719
  20952790.946     1662519.794 6   1317793.54121        17.500           1.406
  20070897.649   -20965722.217 7 -16208302.24423        27.000           2.875
  21195993.806   -15924280.418 6 -12243774.08321        17.500           1.469
 91  5 30 19 25 29.9970000  0  4G11G19G 2G 6
  22907893.634    -5765869.747 6  -4394081.08021        15.250           0.625
  20956180.696     1680310.977 6   1331656.77321        17.000           1.375
  20066809.017   -20987212.020 7 -16225047.54223        27.250           3.063
  21189082.446   -15960608.610 6 -12272081.74421        17.500           1.250
 91  5 30 19 25 44.9970000  0  4G11G19G 2G 6
  22912632.493    -5740977.074 6  -4374684.23121        15.000           0.594
  20959575.985     1698163.291 6   1345567.64421        18.500           1.406
  20062729.743   -21008628.071 7 -16241735.37523        26.250           3.031
  21182173.806   -15996915.360 6 -12300372.70221        18.000           1.406
 91  5 30 19 25 59.9970000  0  4G11G19G 2G 6
  22917392.478    -5715962.472 6  -4355192.34421        15.000           0.656
  20962984.024     1716081.386 6   1359529.76821        15.750           1.438
  20058672.110   -21029965.819 7 -16258362.18823        27.250           2.875
  21175269.962   -16033196.012 6 -12328643.31721        18.500           1.344
 91  5 30 19 26 14.9970000  0  4G11G19G 2G 6
  22922174.290    -5690826.512 6  -4335605.93221        14.500           0.719
  20966405.399     1734065.045 6   1373542.97922        17.000           1.500
  20054628.642   -21051225.564 8 -16274928.21223        28.000           2.969
  21168370.274   -16069450.767 6 -12356893.76721        18.500           1.313
 91  5 30 19 26 29.9970000  0  4G11G19G 2G 6
  22926981.290    -5665574.650 6  -4315929.19421        15.500           0.531
  20969844.907     1752109.054 6   1387603.21121        16.500           1.438
  20050594.774   -21072412.560 7 -16291437.56223        27.000           2.906
  21161475.774   -16105684.691 6 -12385127.97021        18.500           1.375
 91  5 30 19 26 44.9970000  0  4G11G19G 2G 6
  22931808.009    -5640207.606 6  -4296162.67921        15.250           0.594
  20973285.126     1770213.162 6   1401710.27821        17.500           1.469
  20046577.720   -21093527.315 7 -16307890.61223        27.250           2.969
  21154587.267   -16141897.924 6 -12413346.05921        19.250           1.219
 91  5 30 19 26 59.9970000  0  4G11G19G 2G 6
  22936660.110    -5614716.587 6  -4276299.58921        15.750           0.656
  20976746.423     1788386.389 6   1415871.20422        17.000           1.500
  20042576.126   -21114560.667 7 -16324280.22223        27.500           3.000
  21147699.806   -16178081.542 6 -12441541.06121        18.750           1.281
 91  5 30 19 27 14.9970000  0  4G11G19G 2G 6
  22941535.306    -5589112.263 6  -4256348.20621        15.250           0.594
  20980211.813     1806618.419 6   1430077.94422        17.500           1.594
  20038584.767   -21135522.900 7 -16340614.43723        26.750           3.031
  21140820.173   -16214245.578 6 -12469720.81921        19.500           1.219
 91  5 30 19 27 29.9970000  0  4G11G19G 2G 6
  22946427.173    -5563395.129 6  -4236308.92021        15.750           0.594
  20983696.228     1824909.171 6   1444330.44722        17.500           1.594
  20034607.798   -21156414.443 7 -16356893.55723        26.250           3.000
  21133938.407   -16250390.129 6 -12497885.38721        18.750           1.250
 91  5 30 19 27 44.9970000  0  4G11G19G 2G 6
  22951344.360    -5537562.068 6  -4216179.29921        15.000           0.656
  20987186.368     1843261.810 6   1458631.17121        18.000           1.469
  20030648.720   -21177231.789 7 -16373114.85323        27.250           3.031
  21127065.767   -16286511.807 6 -12526032.12021        18.500           1.375
 91  5 30 19 27 59.9970000  0  4G11G19G 2G 6
  22956275.290    -5511615.594 6  -4195961.30621        13.250           0.656
  20990690.079     1861674.271 6   1472978.51122        17.250           1.563
  20026701.892   -21197977.269 8 -16389280.16323        28.250           3.063
  21120196.157   -16322612.581 6 -12554162.58421        18.500           1.313
 91  5 30 19 28 14.9970000  0  4G11G19G 2G 6
  22961242.509    -5485553.556 6  -4175653.25821        14.750           0.625
  20994204.165     1880149.023 6   1487374.39022        17.500           1.625
  20022767.290   -21218648.596 7 -16405387.68523        27.750           3.094
  21113329.142   -16358689.960 6 -12582274.81121        18.500           1.281
 91  5 30 19 28 29.9970000  0  4G11G19G 2G 6
  22966218.720    -5459377.446 6  -4155256.33321        14.250           0.656
  20997733.134     1898684.841 6   1501817.85022        16.500           1.594
  20018847.540   -21239246.961 8 -16421438.35023        28.250           3.125
  21106470.220   -16394745.029 6 -12610369.65221        19.000           1.313
 91  5 30 19 28 44.9970000  0  4G11G19G 2G 6
  22971221.563    -5433087.244 6  -4134770.49121        14.250           0.656
  21001269.118     1917282.238 6   1516309.29822        17.750           1.594
  20014943.298   -21259771.986 8 -16437431.87123        28.500           3.094
  21099610.892   -16430777.209 6 -12638446.66122        17.750           1.500
 91  5 30 19 28 59.9970000  0  4G11G19G 2G 6
  22976250.735    -5406684.519 6  -4114196.97021        15.000           0.656
  21004826.087     1935939.879 6   1530847.68622        17.000           1.563
  20011049.134   -21280225.093 7 -16453369.35523        27.750           3.000
  21092759.790   -16466787.985 6 -12666506.97522        19.000           1.500
 91  5 30 19 29 14.9970000  0  4G11G19G 2G 6
  22981297.173    -5380167.731 6  -4093534.57521        15.250           0.719
  21008381.024     1954659.683 6   1545434.51122        17.000           1.531
  20007172.751   -21300604.429 8 -16469249.35323        28.000           3.063
  21085911.907   -16502774.978 6 -12694548.78922        18.500           1.500
 91  5 30 19 29 29.9970000  0  4G11G19G 2G 6
  22986361.462    -5353536.839 6  -4072783.27321        14.500           0.781
  21011960.423     1973441.753 6   1560069.85422        16.750           1.563
  20003308.524   -21320909.839 8 -16485071.73923        28.250           3.000
  21079070.618   -16538738.263 6 -12722572.10821        19.250           1.406
 91  5 30 19 29 44.9970000  0  4G11G19G 2G 6
  22991453.470    -5326792.584 6  -4051943.63621        15.000           0.656
  21015546.290     1992285.870 6   1574753.55022        17.500           1.594
  19999457.868   -21341141.704 7 -16500836.82823        27.500           3.000
  21072230.438   -16574677.794 7 -12750576.92921        20.000           1.406
 91  5 30 19 29 59.9970000  0  4G11G19G 2G 6
  22996561.134    -5299936.727 6  -4031017.03721        14.750           0.719
  21019143.837     2011190.531 6   1589484.41521        16.500           1.438
  19995620.595   -21361301.595 7 -16516545.82723        27.500           3.094
  21065394.048   -16610594.931 6 -12778564.29021        19.750           1.469
 91  5 30 19 30 14.9970000  0  4G11G19G 2G 6
  23001692.540    -5272969.601 6  -4010003.72221        14.000           0.594
  21022752.103     2030155.717 6   1604262.45522        17.500           1.500
  19991800.251   -21381389.607 7 -16532198.82223        27.750           2.938
  21058566.321   -16646489.605 7 -12806534.15522        20.750           1.531
 91  5 30 19 30 29.9970000  0  4G11G19G 2G 6
  23006850.571    -5245893.211 6  -3988905.26521        14.250           0.625
  21026373.360     2049179.707 6   1619086.30621        16.750           1.438
  19987990.282   -21401407.429 8 -16547797.11423        28.500           3.031
  21051738.032   -16682363.528 6 -12834487.84322        19.250           1.531
 91  5 30 19 30 44.9970000  0  4G11G19G 2G 6
  23012020.212    -5218706.773 6  -3967721.05821        13.750           0.656
  21030003.837     2068263.684 6   1633956.90221        17.500           1.469
  19984194.368   -21421353.781 7 -16563339.71123        27.750           3.000
  21044915.095   -16718215.416 6 -12862424.35821        19.000           1.469
 91  5 30 19 30 59.9970000  0  4G11G19G 2G 6
  23017211.728    -5191412.187 6  -3946452.57521        13.750           0.594
  21033651.071     2087406.003 6   1648872.95421        15.500           1.438
  19980410.376   -21441230.298 7 -16578827.91423        27.500           2.906
  21038094.681   -16754046.564 6 -12890344.72621        19.000           1.438
 91  5 30 19 31 14.9970000  0  4G11G19G 2G 6
  23022427.829    -5164006.356 6  -3925097.42421        14.250           0.656
  21037297.431     2106610.191 6   1663837.22221        17.000           1.469
  19976643.688   -21461033.976 7 -16594259.34323        27.750           2.969
  21031281.321   -16789853.625 6 -12918246.32422        19.000           1.531
 91  5 30 19 31 29.9970000  0  4G11G19G 2G 6
  23027664.954    -5136491.159 6  -3903657.04221        14.750           0.625
  21040965.618     2125874.543 6   1678848.36521        16.000           1.438
  19972888.610   -21480766.320 8 -16609635.19623        28.000           3.063
  21024472.813   -16825638.069 6 -12946130.28622        19.000           1.531
 91  5 30 19 31 44.9970000  0  4G11G19G 2G 6
  23032917.587    -5108866.392 6  -3882131.29721        14.500           0.625
  21044642.626     2145199.722 6   1693906.91021        17.250           1.406
  19969146.665   -21500426.894 8 -16624955.11423        28.250           2.969
  21017668.712   -16861399.149 6 -12973996.04722        18.750           1.594
 91  5 30 19 31 59.9970000  0  4G11G19G 2G 6
  23038197.923    -5081131.387 6  -3860519.64121        14.500           0.594
  21048335.056     2164586.760 6   1709013.64821        17.750           1.438
  19965419.813   -21520014.721 8 -16640218.35323        28.000           3.063
  21010868.173   -16897135.760 6 -13001842.73322        18.500           1.594
 91  5 30 19 32 14.9970000  0  4G11G19G 2G 6
  23043495.540    -5053291.068 6  -3838825.92221        14.500           0.500
  21052032.001     2184031.075 6   1724165.03121        17.250           1.406
  19961705.485   -21539534.469 8 -16655428.54123        28.250           3.031
  21004070.259   -16932852.411 6 -13029673.87622        19.000           1.531
 91  5 30 19 32 29.9970000  0  4G11G19G 2G 6
  23048816.485    -5025343.059 6  -3817048.27221        14.500           0.531
  21055749.681     2203535.371 6   1739363.14521        16.750           1.406
  19958003.204   -21558983.405 7 -16670583.55523        27.750           2.969
  20997279.454   -16968546.339 6 -13057487.31422        19.500           1.594
 91  5 30 19 32 44.9970000  0  4G11G19G 2G 6
  23054153.813    -4997289.782 6  -3795188.62721        13.750           0.594
  21059470.298     2223097.404 6   1754606.25521        18.750           1.406
  19954315.329   -21578363.830 7 -16685685.18223        27.500           2.938
  20990491.743   -17004219.608 6 -13085284.65322        19.500           1.719
 91  5 30 19 32 59.9970000  0  4G11G19G 2G 6
  23059510.056    -4969128.235 6  -3773244.61721        13.250           0.469
  21063202.634     2242720.402 6   1769896.86321        17.250           1.375
  19950640.360   -21597672.393 8 -16700730.81423        28.000           2.938
  20983705.595   -17039868.625 6 -13113063.09622        19.500           1.688
 91  5 30 19 33 14.9970000  0  4G11G19G 2G 6
  23064890.798    -4940861.238 6  -3751218.41921        13.500           0.563
  21066947.915     2262402.066 6   1785233.18421        17.750           1.469
  19946979.384   -21616911.704 8 -16715722.48423        28.500           2.938
  20976930.470   -17075495.699 7 -13140824.43422        20.000           1.656
 91  5 30 19 33 29.9970000  0  4G11G19G 2G 6
  23070289.415    -4912489.575 6  -3729110.67821        13.500           0.500
  21070705.267     2282141.908 6   1800614.84521        17.250           1.406
  19943331.868   -21636082.072 8 -16730660.43223        29.000           3.000
  20970151.110   -17111101.353 6 -13168569.08822        19.000           1.688
 91  5 30 19 33 44.9970000  0  4G11G19G 2G 6
  23075706.767    -4884009.861 6  -3706918.73021        14.000           0.594
  21074468.173     2301943.376 6   1816044.53221        17.000           1.406
  19939696.782   -21655180.174 8 -16745542.07323        28.500           3.031
  20963379.048   -17146681.888 6 -13196294.16322        19.250           1.781
 91  5 30 19 33 59.9970000  0  4G11G19G 2G 6
  23081148.188    -4855425.205 6  -3684645.01221        14.250           0.625
  21078254.438     2321803.860 6   1831520.19421        16.000           1.344
  19936077.938   -21674208.884 8 -16760369.62923        28.500           2.938
  20956617.251   -17182239.932 6 -13224001.71522        19.750           1.719
 91  5 30 19 34 14.9970000  0  4G11G19G 2G 6
  23086610.079    -4826729.586 6  -3662284.81921        14.000           0.500
  21082042.267     2341729.792 6   1847046.85621        17.250           1.469
  19932469.235   -21693161.647 8 -16775138.01723        28.750           3.000
  20949854.110   -17217768.793 6 -13251686.53022        18.750           1.750
 91  5 30 19 34 29.9970000  0  4G11G19G 2G 6
  23092089.485    -4797931.326 6  -3639844.64621        14.500           0.469
  21085845.399     2361713.189 6   1862618.30221        16.250           1.375
  19928876.415   -21712046.700 8 -16789853.64023        28.250           3.000
  20943098.368   -17253276.496 6 -13279354.85722        19.500           1.688
 91  5 30 19 34 44.9970000  0  4G11G19G 2G 6
  23097587.595    -4769032.976 6  -3617326.48021        14.000           0.594
  21089658.009     2381751.627 6   1878232.63821        17.000           1.313
  19925295.470   -21730866.319 8 -16804518.27523        28.250           2.938
  20936343.735   -17288765.234 6 -13307008.40222        19.250           1.750
 91  5 30 19 34 59.9970000  0  4G11G19G 2G 6
  23103104.462    -4740028.374 6  -3594725.53521        13.250           0.750
  21093484.165     2401851.790 6   1893895.07321        16.250           1.469
  19921727.056   -21749614.159 8 -16819126.98423        28.500           2.969
  20929592.220   -17324228.228 6 -13334641.89322        19.000           1.781
 91  5 30 19 35 14.9970000  0  4G11G19G 2G 6
  23108648.009    -4710923.151 6  -3572046.19221        14.000           0.625
  21097317.571     2422008.356 6   1909601.44821        17.250           1.438
  19918171.181   -21768295.395 7 -16833683.78523        27.500           3.000
  20922849.345   -17359670.689 6 -13362259.38222        19.500           1.781
 91  5 30 19 35 29.9970000  0  4G11G19G 2G 6
  23114207.704    -4681717.909 6  -3549288.90821        15.250           0.531
  21101169.118     2442221.006 6   1925351.52321        16.500           1.438
  19914630.142   -21786910.441 8 -16848189.01123        28.000           3.031
  20916110.923   -17395092.870 6 -13389861.06222        19.000           1.781
 91  5 30 19 35 44.9970000  0  4G11G19G 2G 6
  23119782.728    -4652408.307 6  -3526450.28921        14.250           0.688
  21105020.134     2462494.469 6   1941148.99121        16.250           1.469
  19911101.798   -21805454.717 8 -16862639.09023        28.250           2.938
  20909374.517   -17430489.939 7 -13417443.17722        20.250           1.688
 91  5 30 19 35 59.9970000  0  4G11G19G 2G 6
  23125374.110    -4622995.001 6  -3503530.88021        13.750           0.656
  21108896.181     2482828.370 6   1956993.55721        16.000           1.438
  19907586.485   -21823928.490 7 -16877034.23323        27.750           2.938
  20902644.329   -17465862.082 7 -13445005.86722        20.250           1.656
 91  5 30 19 36 14.9970000  0  4G11G19G 2G 6
  23130992.767    -4593483.883 6  -3480535.23321        13.250           0.656
  21112770.368     2503217.222 6   1972880.92622        16.500           1.500
  19904084.243   -21842337.307 8 -16891378.75723        28.500           3.031
  20895915.735   -17501214.641 7 -13472553.29922        20.000           1.813
 91  5 30 19 36 29.9970000  0  4G11G19G 2G 6
  23136626.376    -4563875.611 6  -3457463.89321        12.750           0.500
  21116666.642     2523660.564 6   1988810.77021        15.750           1.469
  19900591.360   -21860681.763 7 -16905673.13023        27.500           2.969
  20889190.728   -17536547.799 7 -13500085.61322        20.250           1.750
 91  5 30 19 36 44.9970000  0  4G11G19G 2G 6
  23142279.298    -4534163.839 6  -3434311.90521        12.500           0.406
  21120563.853     2544165.140 6   2004788.32121        16.750           1.469
  19897114.103   -21878955.122 7 -16919912.11123        27.750           3.031
  20882473.813   -17571854.938 7 -13527597.65122        20.750           1.813
 91  5 30 19 36 59.9970000  0  4G11G19G 2G 6
  23147956.040    -4504354.869 6  -3411084.18621        12.750           0.531
  21124477.532     2564725.082 6   2020809.01721        15.750           1.438
  19893650.423   -21897163.551 8 -16934100.48823        28.000           3.000
  20875756.837   -17607141.827 7 -13555093.91522        20.250           1.813
 91  5 30 19 37 14.9970000  0  4G11G19G 2G 6
  23153646.259    -4474447.287 6  -3387779.61621        13.500           0.500
  21128402.235     2585342.099 6   2036874.18721        16.500           1.438
  19890198.040   -21915305.150 8 -16948236.79523        28.250           3.031
  20869048.384   -17642406.515 6 -13582572.87722        19.750           1.813
 91  5 30 19 37 29.9970000  0  4G11G19G 2G 6
  23159351.938    -4444435.693 6  -3364393.98121        12.750           0.469
  21132338.649     2606021.942 6   2052988.31321        15.750           1.469
  19886760.337   -21933374.307 8 -16962316.65223        28.750           3.094
  20862341.587   -17677643.162 6 -13610029.97922        19.500           1.750
 91  5 30 19 37 44.9970000  0  4G11G19G 2G 6
  23165088.978    -4414323.732 6  -3340930.16021        13.000           0.406
  21136282.243     2626761.139 6   2069148.68421        16.250           1.406
  19883332.657   -21951374.520 8 -16976342.78523        28.250           3.000
  20855643.509   -17712855.021 7 -13637467.77622        20.250           1.813
 91  5 30 19 37 59.9970000  0  4G11G19G 2G 6
  23170836.118    -4384114.171 6  -3317390.29521        12.750           0.438
  21140242.181     2647557.306 6   2085353.45121        15.500           1.375
  19879922.087   -21969308.225 8 -16990317.09723        29.250           3.031
  20848944.337   -17748044.369 6 -13664888.02622        19.750           1.813
 91  5 30 19 38 14.9970000  0  4G11G19G 2G 6
  23176599.571    -4353805.283 5  -3293772.99721        11.750           0.469
  21144206.431     2668412.499 6   2101604.20921        16.750           1.406
  19876523.212   -21987173.372 8 -17004237.98823        28.750           3.063
  20842254.751   -17783208.862 7 -13692288.91322        20.250           1.844
 91  5 30 19 38 29.9970000  0  4G11G19G 2G 6
  23182391.517    -4323397.117 6  -3270078.38121        12.500           0.438
  21148196.657     2689327.065 6   2117901.24121        16.000           1.469
  19873134.470   -22004969.687 8 -17018105.24023        28.000           3.063
  20835566.181   -17818348.223 7 -13719670.21322        20.000           1.875
 91  5 30 19 38 44.9970000  0  4G11G19G 2G 6
  23188200.688    -4292887.853 6  -3246304.97021        13.500           0.531
  21152178.298     2710303.026 6   2134246.10221        16.500           1.469
  19869761.837   -22022695.242 8 -17031917.35723        28.750           3.063
  20828886.509   -17853460.248 7 -13747030.21922        20.000           1.875
 91  5 30 19 38 59.9970000  0  4G11G19G 2G 6
  23194017.743    -4262287.117 6  -3222460.28921        12.250           0.375
  21156185.579     2731331.267 6   2150631.71921        15.250           1.438
  19866399.829   -22040359.392 8 -17045681.62623        28.250           3.094
  20822206.478   -17888554.057 7 -13774376.02722        20.000           1.813
 91  5 30 19 39 14.9970000  0  4G11G19G 2G 6
  23199859.259    -4231592.737 6  -3198542.61621        13.000           0.469
  21160194.360     2752414.159 6   2167059.91721        17.250           1.375
  19863050.751   -22057959.679 7 -17059396.13023        27.500           3.031
  20815533.478   -17923627.065 7 -13801705.62722        20.750           1.875
 91  5 30 19 39 29.9970000  0  4G11G19G 2G 6
  23205721.704    -4200798.035 6  -3174546.78521        13.500           0.531
  21164215.353     2773558.712 6   2183536.14021        16.000           1.375
  19859715.157   -22075488.928 8 -17073055.27823        28.250           3.063
  20808865.149   -17958671.890 7 -13829013.25322        20.500           1.906
 91  5 30 19 39 44.9970000  0  4G11G19G 2G 6
  23211599.603    -4169906.268 6  -3150475.31521        12.250           0.531
  21168252.384     2794762.066 6   2200058.17621        17.000           1.313
  19856392.595   -22092950.299 8 -17086661.53623        28.250           3.125
  20802198.853   -17993691.520 7 -13856301.25922        20.250           1.938
 91  5 30 19 39 59.9970000  0  4G11G19G 2G 6
  23217495.165    -4138918.538 6  -3126329.07921        12.250           0.563
  21172301.321     2816023.488 6   2216625.51121        16.500           1.281
  19853082.868   -22110344.735 8 -17100215.63623        28.500           3.000
  20795542.579   -18028686.531 7 -13883570.07122        20.500           1.938
 91  5 30 19 40 14.9970000  0  4G11G19G 2G 6
  23223412.868    -4107834.144 6  -3102107.48521        13.000           0.500
  21176355.571     2837343.936 6   2233238.80321        16.750           1.219
  19849784.938   -22127671.199 8 -17113716.77223        28.250           3.000
  20788883.829   -18063655.764 7 -13910818.81322        20.000           2.000
 91  5 30 19 40 29.9970000  0  4G11G19G 2G 6
  23229341.103    -4076655.053 6  -3077812.13421        12.250           0.594
  21180425.235     2858721.701 6   2249896.75421        15.750           1.281
  19846501.087   -22144931.540 8 -17127166.38523        28.750           3.063
  20782235.845   -18098600.763 7 -13938048.65322        20.500           1.781
 91  5 30 19 40 44.9970000  0  4G11G19G 2G 6
  23235298.806    -4045377.653 6  -3053440.16421        12.750           0.594
  21184505.704     2880160.896 6   2266602.58721        16.500           1.375
  19843231.431   -22162121.573 8 -17140561.21423        28.500           3.031
  20775592.829   -18133517.350 7 -13965256.36822        21.000           1.813
 91  5 30 19 40 59.9970000  0  4G11G19G 2G 6
  23241266.313    -4014002.763 6  -3028992.25321        12.250           0.656
  21188595.743     2901660.870 6   2283355.76421        15.250           1.375
  19839973.017   -22179241.829 8 -17153901.66623        29.000           2.844
  20768953.603   -18168405.793 7 -13992442.15722        21.250           1.875
 91  5 30 19 41 14.9970000  0  4G11G19G 2G 6
  23247255.657    -3982536.486 6  -3004473.11721        12.250           0.531
  21192694.884     2923215.928 6   2300151.86921        15.500           1.406
  19836726.423   -22196298.158 8 -17167192.31223        29.000           2.969
  20762317.407   -18203271.874 7 -14019610.50622        20.750           1.906
 91  5 30 19 41 29.9970000  0  4G11G19G 2G 6
  23253266.665    -3950975.653 6  -2979880.31621        12.250           0.438
  21196811.095     2944829.740 6   2316993.73021        15.000           1.281
  19833494.079   -22213287.005 8 -17180430.37223        28.750           2.938
  20755691.345   -18238111.820 7 -14046758.49622        22.000           1.875
 91  5 30 19 41 44.9970000  0  4G11G19G 2G 6
  23259285.235    -3919318.443 6  -2955212.41421        12.000           0.438
  21200930.267     2966504.431 6   2333883.04721        16.000           1.406
  19830274.415   -22230206.412 8 -17193614.32023        28.750           2.906
  20749061.587   -18272923.436 7 -14073884.40522        20.750           1.781
 91  5 30 19 41 59.9970000  0  4G11G19G 2G 6
  23265324.618    -3887569.970 5  -2930473.39021        10.750           0.469
  21205072.813     2988235.006 6   2350815.94821        15.750           1.406
  19827066.774   -22247061.333 8 -17206748.02223        29.000           3.000
  20742445.806   -18307711.265 7 -14100991.79322        21.250           1.844
 91  5 30 19 42 14.9970000  0  4G11G19G 2G 6
  23271388.985    -3855726.329 6  -2905660.21121        12.500           0.313
  21209215.587     3010025.843 6   2367795.75421        16.000           1.344
  19823872.610   -22263847.600 8 -17219828.22523        28.250           3.125
  20735830.431   -18342471.032 7 -14128077.32422        21.000           1.719
 91  5 30 19 42 29.9970000  0  4G11G19G 2G 6
  23277465.899    -3823788.040 5  -2880773.26321        11.750           0.344
  21213373.860     3031876.738 6   2384822.39621        15.000           1.406
  19820692.931   -22280565.426 8 -17232855.09823        29.250           3.000
  20729218.853   -18377202.776 7 -14155140.99922        21.000           1.719
 91  5 30 19 42 44.9970000  0  4G11G19G 2G 6
  23283556.712    -3791757.068 5  -2855814.10321        10.750           0.406
  21217544.321     3053786.059 6   2401894.53721        16.750           1.375
  19817524.181   -22297216.420 8 -17245829.89323        29.000           2.938
  20722615.978   -18411907.844 7 -14182183.89022        21.000           1.844
 91  5 30 19 42 59.9970000  0  4G11G19G 2G 6
  23289676.040    -3759630.222 6  -2830780.24021        13.000           0.469
  21221724.579     3075757.371 6   2419015.00221        15.000           1.250
  19814367.735   -22313797.006 8 -17258749.82923        29.000           3.063
  20716017.931   -18446582.743 7 -14209203.28222        20.750           1.813
 91  5 30 19 43 14.9970000  0  4G11G19G 2G 6
  23295803.954    -3727408.527 6  -2805672.45321        12.500           0.469
  21225915.063     3097789.920 6   2436183.20321        16.250           1.375
  19811225.040   -22330308.173 8 -17271615.66923        28.500           2.969
  20709422.431   -18481227.973 7 -14236199.54722        20.500           1.844
 91  5 30 19 43 29.9970000  0  4G11G19G 2G 6
  23301953.337    -3695096.197 6  -2780494.05521        12.750           0.406
  21230125.985     3119879.740 6   2453395.96722        14.000           1.500
  19808096.228   -22346753.730 8 -17284430.38623        28.750           3.000
  20702836.181   -18515847.197 7 -14263175.55522        21.000           1.813
 91  5 30 19 43 44.9970000  0  4G11G19G 2G 6
  23308124.595    -3662686.508 6  -2755239.78821        12.500           0.438
  21234335.751     3142033.919 6   2470658.93121        15.000           1.281
  19804981.501   -22363126.640 8 -17297188.49323        28.750           2.875
  20696254.259   -18550433.199 7 -14290125.67122        21.000           1.813
 91  5 30 19 43 59.9970000  0  4G11G19G 2G 6
  23314304.618    -3630184.195 5  -2729913.36821        11.750           0.500
  21238563.798     3164248.083 6   2487968.64921        14.500           1.219
  19801878.673   -22379431.402 8 -17309893.49723        29.000           3.000
  20689677.681   -18584990.135 7 -14317053.13722        20.250           2.000
 91  5 30 19 44 14.9970000  0  4G11G19G 2G 6
  23320506.931    -3597589.504 5  -2704514.94221        11.250           0.469
  21242802.579     3186522.534 6   2505325.31421        16.250           1.250
  19798787.438   -22395668.008 8 -17322545.39723        28.000           2.906
  20683109.743   -18619517.934 7 -14343957.89322        21.250           1.875
 91  5 30 19 44 29.9970000  0  4G11G19G 2G 6
  23326729.165    -3564904.717 6  -2679046.35721        12.500           0.563
  21247052.532     3208855.222 6   2522727.37021        15.250           1.250
  19795712.509   -22411838.377 8 -17335145.68223        28.750           2.969
  20676542.962   -18654018.295 7 -14370841.28522        20.500           1.906
 91  5 30 19 44 44.9970000  0  4G11G19G 2G 6
  23332964.501    -3532126.374 6  -2653504.84621        12.250           0.531
  21251313.438     3231249.897 6   2540177.75221        15.250           1.125
  19792647.001   -22427938.918 8 -17347691.55523        28.500           3.063
  20669986.517   -18688487.315 7 -14397700.23922        20.750           1.906
 91  5 30 19 44 59.9970000  0  4G11G19G 2G 6
  23339218.282    -3499255.750 5  -2627891.41521        11.750           0.438
  21255592.165     3253705.509 6   2557675.60121        14.250           1.219
  19789597.837   -22443970.664 8 -17360183.82423        29.000           2.969
  20663433.712   -18722925.738 7 -14424535.35722        21.000           1.875
 91  5 30 19 45 14.9970000  0  4G11G19G 2G 6
  23345494.235    -3466293.763 6  -2602206.80921        12.000           0.438
  21259872.079     3276221.439 6   2575220.44121        16.000           1.125
  19786559.306   -22459934.048 8 -17372622.82223        28.750           3.031
  20656885.142   -18757334.091 7 -14451347.05422        20.750           2.094
 91  5 30 19 45 29.9970000  0  4G11G19G 2G 6
  23351778.759    -3433242.965 5  -2576452.98721        11.000           0.406
  21264171.228     3298795.494 6   2592810.58221        15.750           1.125
  19783534.485   -22475831.350 8 -17385010.32423        29.000           3.000
  20650341.938   -18791714.352 7 -14478136.84222        20.750           1.938
 91  5 30 19 45 44.9970000  0  4G11G19G 2G 6
  23358090.376    -3400100.732 5  -2550627.92521        11.250           0.406
  21268473.337     3321430.687 6   2610448.36621        15.500           1.188
  19780522.188   -22491659.857 8 -17397344.22023        28.750           2.969
  20643804.626   -18826063.413 7 -14504902.33122        21.000           2.063
 91  5 30 19 45 59.9970000  0  4G11G19G 2G 6
  23364421.040    -3366867.081 6  -2524731.63021        12.000           0.500
  21272794.728     3344127.319 6   2628134.00621        15.250           1.094
  19777522.845   -22507419.142 8 -17409624.18623        28.750           3.063
  20637274.110   -18860380.842 7 -14531643.17222        20.750           2.031
 91  5 30 19 46 14.9970000  0  4G11G19G 2G 6
  23370757.118    -3333544.766 6  -2498766.22721        12.000           0.375
  21277122.462     3366883.164 6   2645865.78921        15.500           1.094
  19774536.056   -22523111.603 8 -17421852.07523        28.750           3.031
  20630749.868   -18894668.722 7 -14558360.98122        21.000           2.063
 91  5 30 19 46 29.9970000  0  4G11G19G 2G 6
  23377110.243    -3300130.557 5  -2472729.23921        11.250           0.500
  21281471.884     3389701.806 6   2663646.50421        15.000           1.094
  19771562.728   -22538733.698 8 -17434025.13523        28.250           3.094
  20624230.665   -18928923.359 7 -14585052.89722        21.000           2.000
 91  5 30 19 46 44.9970000  0  4G11G19G 2G 6
  23383488.970    -3266627.864 5  -2446623.27921        11.000           0.500
  21285820.759     3412579.962 6   2681473.60121        16.250           1.188
  19768604.274   -22554288.730 8 -17446145.93423        28.250           3.000
  20617718.517   -18963147.754 7 -14611721.23322        21.250           2.000
 91  5 30 19 46 59.9970000  0  4G11G19G 2G 6
  23389874.993    -3233034.322 5  -2420446.54321        10.750           0.469
  21290185.540     3435520.321 6   2699349.16921        15.500           1.031
  19765657.165   -22569773.940 8 -17458212.32823        28.500           3.063
  20611211.274   -18997338.909 7 -14638363.67522        21.500           2.094
 91  5 30 19 47 14.9970000  0  4G11G19G 2G 6
  23396288.868    -3199353.591 5  -2394201.89221        11.750           0.438
  21294562.751     3458519.873 6   2717270.86221        16.250           1.188
  19762723.907   -22585192.681 8 -17470226.93023        28.500           2.969
  20604709.157   -19031499.980 7 -14664982.68022        20.750           2.094
 91  5 30 19 47 29.9970000  0  4G11G19G 2G 6
  23402719.220    -3165582.331 6  -2367886.68121        12.250           0.500
  21298954.040     3481582.090 6   2735241.37121        14.250           1.188
  19759802.438   -22600541.334 8 -17482186.91023        28.750           3.063
  20598215.017   -19065627.214 7 -14691575.31322        20.750           2.094
 91  5 30 19 47 44.9970000  0  4G11G19G 2G 6
  23409156.024    -3131725.812 5  -2341505.04021        11.500           0.406
  21303350.634     3504702.015 6   2753256.85621        15.250           1.094
  19756893.798   -22615824.876 8 -17494096.16123        28.750           3.000
  20591728.728   -19099725.358 7 -14718145.27822        21.000           2.031
 91  5 30 19 47 59.9970000  0  4G11G19G 2G 6
  23415621.884    -3097780.104 6  -2315053.89821        12.000           0.375
  21307764.704     3527883.669 6   2771320.44021        14.500           1.188
  19753999.313   -22631039.386 8 -17505951.61823        29.000           3.063
  20585245.407   -19133790.062 7 -14744689.18822        21.000           2.031
 91  5 30 19 48 14.9970000  0  4G11G19G 2G 6
  23422095.571    -3063745.419 5  -2288533.39521        11.500           0.406
  21312185.603     3551127.369 6   2789432.37121        15.750           1.094
  19751117.821   -22646184.683 8 -17517753.14823        28.750           3.063
  20578770.103   -19167821.087 7 -14771206.86522        21.500           2.031
 91  5 30 19 48 29.9970000  0  4G11G19G 2G 6
  23428589.837    -3029624.304 5  -2261945.54421        11.500           0.469
  21316619.079     3574430.927 6   2807590.93321        14.000           1.250
  19748247.571   -22661262.995 8 -17529502.48023        29.250           3.094
  20572300.282   -19201820.315 7 -14797699.75122        21.250           2.125
 91  5 30 19 48 44.9970000  0  4G11G19G 2G 6
  23435092.728    -2995415.818 5  -2235289.64921        10.750           0.438
  21321064.673     3597795.612 6   2825797.12921        15.000           1.125
  19745389.649   -22676273.070 8 -17541198.64223        28.750           3.125
  20565838.259   -19235786.413 7 -14824166.82722        21.250           2.125
 91  5 30 19 48 59.9970000  0  4G11G19G 2G 6
  23441625.181    -2961122.692 5  -2208567.76021        11.750           0.406
  21325525.587     3621219.169 6   2844049.20121        13.750           1.156
  19742548.071   -22691217.190 8 -17552843.40423        29.000           3.094
  20559377.259   -19269721.454 7 -14850609.69322        21.250           2.188
 91  5 30 19 49 14.9970000  0  4G11G19G 2G 6
  23448168.017    -2926743.109 5  -2181778.52521        11.000           0.375
  21329993.329     3644703.689 6   2862348.77921        15.750           1.188
  19739716.251   -22706093.373 8 -17564435.23223        28.750           3.031
  20552927.790   -19303623.226 7 -14877026.64822        21.750           2.156
 91  5 30 19 49 29.9970000  0  4G11G19G 2G 6
  23454723.235    -2892278.266 5  -2154922.86721        10.750           0.406
  21334476.751     3668248.426 6   2880695.27021        15.000           1.125
  19736899.118   -22720902.419 8 -17575974.74523        29.250           3.125
  20546484.790   -19337492.278 7 -14903418.09922        21.500           2.156
 91  5 30 19 49 44.9970000  0  4G11G19G 2G 6
  23461298.642    -2857725.719 5  -2127998.85221        10.250           0.438
  21338961.970     3691856.051 6   2899090.77021        15.000           1.188
  19734095.220   -22735641.616 8 -17587459.82623        29.250           3.125
  20540043.782   -19371325.605 7 -14929781.71422        21.500           2.031
 91  5 30 19 49 59.9970000  0  4G11G19G 2G 6
  23467890.860    -2823089.087 5  -2101009.33421         9.750           0.438
  21343471.134     3715523.154 6   2917532.61921        14.250           1.063
  19731300.517   -22750314.521 8 -17598893.25823        29.000           3.125
  20533615.665   -19405126.607 7 -14956120.14022        21.750           2.031
 91  5 30 19 50 14.9970000  0  4G11G19G 2G 6
  23474500.071    -2788366.978 5  -2073953.20821        11.000           0.344
  21347982.173     3739251.465 6   2936022.16821        15.250           0.969
  19728521.095   -22764919.291 8 -17610273.59523        28.750           3.094
  20527186.868   -19438893.223 7 -14982431.77422        21.500           2.000
 91  5 30 19 50 29.9970000  0  4G11G19G 2G 6
  23481120.782    -2753555.692 5  -2046827.58821        10.750           0.375
  21352513.821     3763045.113 6   2954562.62321        14.750           1.031
  19725756.493   -22779451.708 8 -17621597.55023        28.500           3.156
  20520767.228   -19472621.191 7 -15008713.29122        21.250           2.031
 91  5 30 19 50 44.9970000  0  4G11G19G 2G 6
  23487761.938    -2718663.029 5  -2019638.55121        11.000           0.281
  21357054.798     3786896.422 6   2973148.00921        15.750           1.063
  19723003.142   -22793919.485 8 -17632871.13923        28.500           3.031
  20514354.610   -19506317.872 7 -15034970.43622        21.250           1.938
 91  5 30 19 50 59.9960000  0  4G11G19G 2G 6
  23494419.816    -2683688.921 5  -1992386.03321        10.750           0.469
  21361607.020     3810806.786 6   2991779.41621        14.000           1.063
  19720263.465   -22808319.030 8 -17644091.56123        28.750           3.188
  20507951.106   -19539978.001 7 -15061199.08922        21.500           2.094
 91  5 30 19 51 14.9960000  0  4G11G19G 2G 6
  23501088.434    -2648627.796 5  -1965065.73221        10.000           0.313
  21366161.488     3834780.681 6   3010460.32921        15.000           1.188
  19717535.434   -22822651.172 8 -17655259.45923        28.250           3.125
  20501552.449   -19573604.756 7 -15087401.74322        22.250           2.031
 91  5 30 19 51 29.9960000  0  4G11G19G 2G 6
  23507771.934    -2613484.637 5  -1937681.50221        10.500           0.313
  21370741.254     3858814.066 6   3029187.59921        14.250           1.094
  19714821.434   -22836917.324 8 -17666375.93223        29.000           3.219
  20495160.793   -19607198.069 7 -15113578.34122        22.000           1.969
 91  5 30 19 51 44.9960000  0  4G11G19G 2G 6
  23514481.785    -2578257.959 5  -1910232.20421        11.000           0.406
  21375319.926     3882908.756 6   3047962.65021        14.750           1.156
  19712118.895   -22851115.456 8 -17677439.40523        28.500           3.250
  20488773.238   -19640755.849 7 -15139727.24122        21.500           2.031
 91  5 30 19 51 59.9960000  0  4G11G19G 2G 6
  23521204.129    -2542948.444 5  -1882718.35221        10.750           0.469
  21379921.566     3907064.356 6   3066785.14121        14.500           1.094
  19709428.699   -22865246.181 8 -17688450.35623        28.000           3.156
  20482396.965   -19674278.257 7 -15165848.58022        22.250           2.031
 91  5 30 19 52 14.9960000  0  4G11G19G 2G 6
  23527937.574    -2507559.081 5  -1855142.27621        11.500           0.531
  21384523.660     3931278.369 6   3085653.14721        15.000           1.156
  19706752.785   -22879312.086 8 -17699410.79723        28.250           3.281
  20476021.676   -19707767.792 7 -15191944.30622        21.500           1.969
 91  5 30 19 52 29.9960000  0  4G11G19G 2G 6
  23534682.707    -2472086.785 5  -1827501.57321        11.000           0.531
  21389146.785     3955553.891 6   3104569.08521        14.500           1.188
  19704091.020   -22893310.154 8 -17710318.37723        28.500           3.156
  20469656.762   -19741221.003 7 -15218011.72522        22.250           2.031
 91  5 30 19 52 44.9960000  0  3G19G 2G 6
  21393774.027     3979886.863 6   3123529.79921        14.750           1.219
  19701437.566   -22907244.481 8 -17721176.29423        28.250           3.125
  20463296.340   -19774641.813 7 -15244053.91322        22.500           2.031
 91  5 30 19 52 59.9960000  0  3G19G 2G 6
  21398417.074     4004278.244 6   3142536.01821        14.000           1.094
  19698800.004   -22921114.118 8 -17731983.80423        28.750           3.156
  20456940.356   -19808029.118 7 -15270069.98322        22.000           2.031
 91  5 30 19 53 14.9960000  0  3G19G 2G 6
  21403070.691     4028730.438 6   3161589.62921        14.750           1.094
  19696172.356   -22934916.514 8 -17742738.91223        28.250           3.188
  20450595.676   -19841380.256 7 -15296057.87422        22.250           2.063
